<?xml version="1.0" encoding="UTF-8" standalone="no" ?>
<gpx xmlns="http://www.topografix.com/GPX/1/1" xmlns:xsi="http://www.w3.org/2001/XMLSchema-instance" xsi:schemaLocation="http://www.topografix.com/GPX/1/1 http://www.topografix.com/GPX/1/1/gpx.xsd" version="1.1" creator="VisuGPX - https://www.visugpx.com">
  <metadata>
    <name>mt st Odile nord </name>
  </metadata>
  <trk>
    <name><![CDATA[mt st Odile nord 1]]></name>
    <trkseg>
      <trkpt lat="48.43466" lon="7.41806">
        <ele>580.50334461466</ele>
        <time>2022-04-27T10:04:32.000Z</time>
      </trkpt>
      <trkpt lat="48.43464" lon="7.41831">
        <ele>580.50004759457</ele>
        <time>2022-04-27T10:04:32.003Z</time>
      </trkpt>
      <trkpt lat="48.43445" lon="7.419">
        <ele>580.65213910657</ele>
        <time>2022-04-27T10:04:32.014Z</time>
      </trkpt>
      <trkpt lat="48.43444" lon="7.41918">
        <ele>580.40050331937</ele>
        <time>2022-04-27T10:04:32.027Z</time>
      </trkpt>
      <trkpt lat="48.43448" lon="7.41935">
        <ele>579.81814332321</ele>
        <time>2022-04-27T10:04:32.042Z</time>
      </trkpt>
      <trkpt lat="48.43454" lon="7.41946">
        <ele>578.9696506226</ele>
        <time>2022-04-27T10:04:32.058Z</time>
      </trkpt>
      <trkpt lat="48.4346" lon="7.41954">
        <ele>577.88734284859</ele>
        <time>2022-04-27T10:04:32.075Z</time>
      </trkpt>
      <trkpt lat="48.43472" lon="7.41961">
        <ele>576.52866448645</ele>
        <time>2022-04-27T10:04:32.094Z</time>
      </trkpt>
      <trkpt lat="48.43499" lon="7.41966">
        <ele>574.49118547546</ele>
        <time>2022-04-27T10:04:32.118Z</time>
      </trkpt>
      <trkpt lat="48.43521" lon="7.41962">
        <ele>572.28703350908</ele>
        <time>2022-04-27T10:04:32.145Z</time>
      </trkpt>
      <trkpt lat="48.43535" lon="7.41954">
        <ele>570.25141120703</ele>
        <time>2022-04-27T10:04:32.175Z</time>
      </trkpt>
      <trkpt lat="48.43545" lon="7.41935">
        <ele>568.48754159268</ele>
        <time>2022-04-27T10:04:32.207Z</time>
      </trkpt>
      <trkpt lat="48.43563" lon="7.41837">
        <ele>567.30381078985</ele>
        <time>2022-04-27T10:04:32.250Z</time>
      </trkpt>
      <trkpt lat="48.43568" lon="7.4182">
        <ele>565.89038029055</ele>
        <time>2022-04-27T10:04:32.295Z</time>
      </trkpt>
      <trkpt lat="48.43588" lon="7.41777">
        <ele>564.1367147998</ele>
        <time>2022-04-27T10:04:32.346Z</time>
      </trkpt>
      <trkpt lat="48.43594" lon="7.41754">
        <ele>562.38015400909</ele>
        <time>2022-04-27T10:04:32.399Z</time>
      </trkpt>
      <trkpt lat="48.43603" lon="7.4169">
        <ele>560.56086865226</ele>
        <time>2022-04-27T10:04:32.459Z</time>
      </trkpt>
      <trkpt lat="48.43606" lon="7.41682">
        <ele>558.73208406844</ele>
        <time>2022-04-27T10:04:32.520Z</time>
      </trkpt>
      <trkpt lat="48.43611" lon="7.41679">
        <ele>556.85523723128</ele>
        <time>2022-04-27T10:04:32.582Z</time>
      </trkpt>
      <trkpt lat="48.43618" lon="7.41681">
        <ele>555.00985641645</ele>
        <time>2022-04-27T10:04:32.645Z</time>
      </trkpt>
      <trkpt lat="48.43624" lon="7.41689">
        <ele>553.21111763642</ele>
        <time>2022-04-27T10:04:32.709Z</time>
      </trkpt>
      <trkpt lat="48.43642" lon="7.41742">
        <ele>551.37257242421</ele>
        <time>2022-04-27T10:04:32.780Z</time>
      </trkpt>
      <trkpt lat="48.43668" lon="7.4178">
        <ele>549.03984143185</ele>
        <time>2022-04-27T10:04:32.857Z</time>
      </trkpt>
      <trkpt lat="48.43671" lon="7.41797">
        <ele>546.85491196291</ele>
        <time>2022-04-27T10:04:32.936Z</time>
      </trkpt>
      <trkpt lat="48.43671" lon="7.41815">
        <ele>544.67011323278</ele>
        <time>2022-04-27T10:04:33.016Z</time>
      </trkpt>
      <trkpt lat="48.43667" lon="7.41912">
        <ele>541.78679408824</ele>
        <time>2022-04-27T10:04:33.107Z</time>
      </trkpt>
      <trkpt lat="48.4367" lon="7.41968">
        <ele>538.74655155095</ele>
        <time>2022-04-27T10:04:33.204Z</time>
      </trkpt>
      <trkpt lat="48.43666" lon="7.41984">
        <ele>536.10390448471</ele>
        <time>2022-04-27T10:04:33.303Z</time>
      </trkpt>
      <trkpt lat="48.43654" lon="7.42011">
        <ele>533.74313454568</ele>
        <time>2022-04-27T10:04:33.405Z</time>
      </trkpt>
      <trkpt lat="48.43651" lon="7.42027">
        <ele>531.29319712794</ele>
        <time>2022-04-27T10:04:33.509Z</time>
      </trkpt>
      <trkpt lat="48.43653" lon="7.42038">
        <ele>528.86067076751</ele>
        <time>2022-04-27T10:04:33.614Z</time>
      </trkpt>
      <trkpt lat="48.43659" lon="7.42044">
        <ele>526.37120942727</ele>
        <time>2022-04-27T10:04:33.720Z</time>
      </trkpt>
      <trkpt lat="48.43667" lon="7.42047">
        <ele>523.79779368685</ele>
        <time>2022-04-27T10:04:33.828Z</time>
      </trkpt>
      <trkpt lat="48.43677" lon="7.42045">
        <ele>521.17667682858</ele>
        <time>2022-04-27T10:04:33.937Z</time>
      </trkpt>
      <trkpt lat="48.43738" lon="7.42004">
        <ele>518.51208602297</ele>
        <time>2022-04-27T10:04:34.057Z</time>
      </trkpt>
      <trkpt lat="48.43816" lon="7.41932">
        <ele>515.35350135398</ele>
        <time>2022-04-27T10:04:34.192Z</time>
      </trkpt>
      <trkpt lat="48.43829" lon="7.4191">
        <ele>512.565328227</ele>
        <time>2022-04-27T10:04:34.330Z</time>
      </trkpt>
      <trkpt lat="48.43833" lon="7.41899">
        <ele>509.96010999577</ele>
        <time>2022-04-27T10:04:34.469Z</time>
      </trkpt>
      <trkpt lat="48.43837" lon="7.41876">
        <ele>507.46272516357</ele>
        <time>2022-04-27T10:04:34.611Z</time>
      </trkpt>
      <trkpt lat="48.43841" lon="7.41771">
        <ele>504.83177267054</ele>
        <time>2022-04-27T10:04:34.764Z</time>
      </trkpt>
      <trkpt lat="48.43838" lon="7.41748">
        <ele>502.45354997772</ele>
        <time>2022-04-27T10:04:34.919Z</time>
      </trkpt>
      <trkpt lat="48.43831" lon="7.41728">
        <ele>500.16654193401</ele>
        <time>2022-04-27T10:04:35.077Z</time>
      </trkpt>
      <trkpt lat="48.43815" lon="7.41698">
        <ele>498.07663894101</ele>
        <time>2022-04-27T10:04:35.239Z</time>
      </trkpt>
      <trkpt lat="48.43804" lon="7.4167">
        <ele>495.96436557171</ele>
        <time>2022-04-27T10:04:35.404Z</time>
      </trkpt>
      <trkpt lat="48.43794" lon="7.41623">
        <ele>493.75717149399</ele>
        <time>2022-04-27T10:04:35.574Z</time>
      </trkpt>
      <trkpt lat="48.43782" lon="7.4159">
        <ele>491.71275281136</ele>
        <time>2022-04-27T10:04:35.748Z</time>
      </trkpt>
      <trkpt lat="48.43777" lon="7.41565">
        <ele>489.86282477632</ele>
        <time>2022-04-27T10:04:35.925Z</time>
      </trkpt>
      <trkpt lat="48.43779" lon="7.41556">
        <ele>488.0579000233</ele>
        <time>2022-04-27T10:04:36.103Z</time>
      </trkpt>
      <trkpt lat="48.43788" lon="7.41549">
        <ele>486.08331602547</ele>
        <time>2022-04-27T10:04:36.283Z</time>
      </trkpt>
      <trkpt lat="48.43797" lon="7.41551">
        <ele>484.2168248519</ele>
        <time>2022-04-27T10:04:36.464Z</time>
      </trkpt>
      <trkpt lat="48.43821" lon="7.41589">
        <ele>482.44143377968</ele>
        <time>2022-04-27T10:04:36.651Z</time>
      </trkpt>
      <trkpt lat="48.43854" lon="7.41632">
        <ele>480.65403172086</ele>
        <time>2022-04-27T10:04:36.845Z</time>
      </trkpt>
      <trkpt lat="48.43857" lon="7.41635">
        <ele>478.98471820307</ele>
        <time>2022-04-27T10:04:37.040Z</time>
      </trkpt>
      <trkpt lat="48.43869" lon="7.41647">
        <ele>477.23594512558</ele>
        <time>2022-04-27T10:04:37.237Z</time>
      </trkpt>
      <trkpt lat="48.43872" lon="7.41652">
        <ele>475.60824631691</ele>
        <time>2022-04-27T10:04:37.435Z</time>
      </trkpt>
      <trkpt lat="48.43927" lon="7.41723">
        <ele>473.41549450953</ele>
        <time>2022-04-27T10:04:37.644Z</time>
      </trkpt>
      <trkpt lat="48.43936" lon="7.41743">
        <ele>471.55803084393</ele>
        <time>2022-04-27T10:04:37.856Z</time>
      </trkpt>
      <trkpt lat="48.43942" lon="7.41762">
        <ele>469.78499341528</ele>
        <time>2022-04-27T10:04:38.070Z</time>
      </trkpt>
      <trkpt lat="48.43944" lon="7.41807">
        <ele>468.37297947679</ele>
        <time>2022-04-27T10:04:38.289Z</time>
      </trkpt>
      <trkpt lat="48.43948" lon="7.41823">
        <ele>466.75052888389</ele>
        <time>2022-04-27T10:04:38.510Z</time>
      </trkpt>
      <trkpt lat="48.43968" lon="7.41861">
        <ele>464.78718618122</ele>
        <time>2022-04-27T10:04:38.736Z</time>
      </trkpt>
      <trkpt lat="48.43978" lon="7.41887">
        <ele>463.11284530214</ele>
        <time>2022-04-27T10:04:38.965Z</time>
      </trkpt>
      <trkpt lat="48.43984" lon="7.41913">
        <ele>461.53582582565</ele>
        <time>2022-04-27T10:04:39.197Z</time>
      </trkpt>
      <trkpt lat="48.4399" lon="7.42006">
        <ele>459.78048119142</ele>
        <time>2022-04-27T10:04:39.439Z</time>
      </trkpt>
      <trkpt lat="48.4399" lon="7.4206">
        <ele>458.05899018005</ele>
        <time>2022-04-27T10:04:39.687Z</time>
      </trkpt>
      <trkpt lat="48.43995" lon="7.42119">
        <ele>456.2380443364</ele>
        <time>2022-04-27T10:04:39.941Z</time>
      </trkpt>
      <trkpt lat="48.43995" lon="7.42163">
        <ele>454.42612579914</ele>
        <time>2022-04-27T10:04:40.200Z</time>
      </trkpt>
      <trkpt lat="48.43991" lon="7.42224">
        <ele>452.7460150905</ele>
        <time>2022-04-27T10:04:40.465Z</time>
      </trkpt>
      <trkpt lat="48.43991" lon="7.42224">
        <ele>451.14563550135</ele>
        <time>2022-04-27T10:04:40.730Z</time>
      </trkpt>
      <trkpt lat="48.43984" lon="7.42284">
        <ele>449.17233093177</ele>
        <time>2022-04-27T10:04:41.002Z</time>
      </trkpt>
      <trkpt lat="48.43974" lon="7.42312">
        <ele>447.48915571764</ele>
        <time>2022-04-27T10:04:41.277Z</time>
      </trkpt>
      <trkpt lat="48.43945" lon="7.42356">
        <ele>445.96235187225</ele>
        <time>2022-04-27T10:04:41.559Z</time>
      </trkpt>
      <trkpt lat="48.43921" lon="7.42394">
        <ele>444.17697850172</ele>
        <time>2022-04-27T10:04:41.846Z</time>
      </trkpt>
      <trkpt lat="48.439" lon="7.42415">
        <ele>442.23056797782</ele>
        <time>2022-04-27T10:04:42.137Z</time>
      </trkpt>
      <trkpt lat="48.43875" lon="7.42423">
        <ele>440.40371373596</ele>
        <time>2022-04-27T10:04:42.432Z</time>
      </trkpt>
      <trkpt lat="48.43818" lon="7.42418">
        <ele>438.38370362766</ele>
        <time>2022-04-27T10:04:42.736Z</time>
      </trkpt>
      <trkpt lat="48.43739" lon="7.42408">
        <ele>436.02017417429</ele>
        <time>2022-04-27T10:04:43.053Z</time>
      </trkpt>
      <trkpt lat="48.43686" lon="7.42387">
        <ele>434.25050774803</ele>
        <time>2022-04-27T10:04:43.379Z</time>
      </trkpt>
      <trkpt lat="48.43675" lon="7.42388">
        <ele>432.2415181117</ele>
        <time>2022-04-27T10:04:43.707Z</time>
      </trkpt>
      <trkpt lat="48.43653" lon="7.42404">
        <ele>429.90080835277</ele>
        <time>2022-04-27T10:04:44.039Z</time>
      </trkpt>
      <trkpt lat="48.43651" lon="7.42413">
        <ele>427.42660188187</ele>
        <time>2022-04-27T10:04:44.372Z</time>
      </trkpt>
      <trkpt lat="48.43652" lon="7.42424">
        <ele>424.76406079665</ele>
        <time>2022-04-27T10:04:44.706Z</time>
      </trkpt>
      <trkpt lat="48.43657" lon="7.42435">
        <ele>421.87972202591</ele>
        <time>2022-04-27T10:04:45.041Z</time>
      </trkpt>
      <trkpt lat="48.43665" lon="7.42438">
        <ele>418.90799479917</ele>
        <time>2022-04-27T10:04:45.377Z</time>
      </trkpt>
      <trkpt lat="48.43676" lon="7.42431">
        <ele>415.95346235449</ele>
        <time>2022-04-27T10:04:45.715Z</time>
      </trkpt>
      <trkpt lat="48.43689" lon="7.42417">
        <ele>412.89825399022</ele>
        <time>2022-04-27T10:04:46.056Z</time>
      </trkpt>
      <trkpt lat="48.43703" lon="7.42417">
        <ele>409.64419823374</ele>
        <time>2022-04-27T10:04:46.399Z</time>
      </trkpt>
      <trkpt lat="48.43813" lon="7.42478">
        <ele>405.61320856703</ele>
        <time>2022-04-27T10:04:46.761Z</time>
      </trkpt>
      <trkpt lat="48.43856" lon="7.42508">
        <ele>402.11679288784</ele>
        <time>2022-04-27T10:04:47.131Z</time>
      </trkpt>
      <trkpt lat="48.43894" lon="7.42538">
        <ele>398.05974546043</ele>
        <time>2022-04-27T10:04:47.507Z</time>
      </trkpt>
      <trkpt lat="48.4392" lon="7.42549">
        <ele>394.05402530876</ele>
        <time>2022-04-27T10:04:47.888Z</time>
      </trkpt>
      <trkpt lat="48.4394" lon="7.42547">
        <ele>390.36522989308</ele>
        <time>2022-04-27T10:04:48.272Z</time>
      </trkpt>
      <trkpt lat="48.43983" lon="7.42526">
        <ele>386.45400428935</ele>
        <time>2022-04-27T10:04:48.663Z</time>
      </trkpt>
      <trkpt lat="48.43983" lon="7.42526">
        <ele>382.92562134437</ele>
        <time>2022-04-27T10:04:49.054Z</time>
      </trkpt>
      <trkpt lat="48.44027" lon="7.42502">
        <ele>379.09976891993</ele>
        <time>2022-04-27T10:04:49.453Z</time>
      </trkpt>
      <trkpt lat="48.44112" lon="7.42413">
        <ele>375.18738532792</ele>
        <time>2022-04-27T10:04:49.868Z</time>
      </trkpt>
      <trkpt lat="48.44174" lon="7.42347">
        <ele>371.43935661575</ele>
        <time>2022-04-27T10:04:50.295Z</time>
      </trkpt>
      <trkpt lat="48.44183" lon="7.42316">
        <ele>368.2041972553</ele>
        <time>2022-04-27T10:04:50.726Z</time>
      </trkpt>
      <trkpt lat="48.44182" lon="7.42239">
        <ele>365.40709053619</ele>
        <time>2022-04-27T10:04:51.165Z</time>
      </trkpt>
      <trkpt lat="48.44185" lon="7.42225">
        <ele>362.63306163973</ele>
        <time>2022-04-27T10:04:51.606Z</time>
      </trkpt>
      <trkpt lat="48.44194" lon="7.42214">
        <ele>360.01224913625</ele>
        <time>2022-04-27T10:04:52.049Z</time>
      </trkpt>
      <trkpt lat="48.44206" lon="7.4221">
        <ele>357.63915976083</ele>
        <time>2022-04-27T10:04:52.494Z</time>
      </trkpt>
      <trkpt lat="48.44218" lon="7.42217">
        <ele>355.36580260302</ele>
        <time>2022-04-27T10:04:52.941Z</time>
      </trkpt>
      <trkpt lat="48.44268" lon="7.42262">
        <ele>352.89997926826</ele>
        <time>2022-04-27T10:04:53.397Z</time>
      </trkpt>
      <trkpt lat="48.44286" lon="7.42284">
        <ele>350.8094539935</ele>
        <time>2022-04-27T10:04:53.857Z</time>
      </trkpt>
      <trkpt lat="48.44288" lon="7.4229">
        <ele>349.07359989464</ele>
        <time>2022-04-27T10:04:54.317Z</time>
      </trkpt>
      <trkpt lat="48.44295" lon="7.42301">
        <ele>347.46617951109</ele>
        <time>2022-04-27T10:04:54.779Z</time>
      </trkpt>
      <trkpt lat="48.44307" lon="7.42334">
        <ele>345.79927894944</ele>
        <time>2022-04-27T10:04:55.245Z</time>
      </trkpt>
      <trkpt lat="48.44313" lon="7.42345">
        <ele>344.58223209956</ele>
        <time>2022-04-27T10:04:55.713Z</time>
      </trkpt>
      <trkpt lat="48.44324" lon="7.42357">
        <ele>343.58397263918</ele>
        <time>2022-04-27T10:04:56.183Z</time>
      </trkpt>
      <trkpt lat="48.44348" lon="7.42373">
        <ele>342.75501309459</ele>
        <time>2022-04-27T10:04:56.657Z</time>
      </trkpt>
      <trkpt lat="48.44368" lon="7.42386">
        <ele>342.05527816241</ele>
        <time>2022-04-27T10:04:57.134Z</time>
      </trkpt>
      <trkpt lat="48.44391" lon="7.42399">
        <ele>341.5727961051</ele>
        <time>2022-04-27T10:04:57.615Z</time>
      </trkpt>
      <trkpt lat="48.44405" lon="7.42404">
        <ele>341.19345898183</ele>
        <time>2022-04-27T10:04:58.099Z</time>
      </trkpt>
      <trkpt lat="48.44427" lon="7.42405">
        <ele>340.9424485889</ele>
        <time>2022-04-27T10:04:58.586Z</time>
      </trkpt>
      <trkpt lat="48.4447" lon="7.42397">
        <ele>340.76232966949</ele>
        <time>2022-04-27T10:04:59.080Z</time>
      </trkpt>
      <trkpt lat="48.4447" lon="7.42397">
        <ele>340.53249389381</ele>
        <time>2022-04-27T10:04:59.574Z</time>
      </trkpt>
      <trkpt lat="48.44477" lon="7.42397">
        <ele>340.29883160134</ele>
        <time>2022-04-27T10:05:00.069Z</time>
      </trkpt>
      <trkpt lat="48.4448" lon="7.4239">
        <ele>340.09753805528</ele>
        <time>2022-04-27T10:05:00.565Z</time>
      </trkpt>
      <trkpt lat="48.44498" lon="7.42366">
        <ele>339.90473961868</ele>
        <time>2022-04-27T10:05:01.065Z</time>
      </trkpt>
      <trkpt lat="48.44492" lon="7.42358">
        <ele>339.64132558303</ele>
        <time>2022-04-27T10:05:01.566Z</time>
      </trkpt>
      <trkpt lat="48.44495" lon="7.42352">
        <ele>339.25073279765</ele>
        <time>2022-04-27T10:05:02.068Z</time>
      </trkpt>
      <trkpt lat="48.44505" lon="7.42341">
        <ele>338.78772254219</ele>
        <time>2022-04-27T10:05:02.572Z</time>
      </trkpt>
      <trkpt lat="48.44535" lon="7.42326">
        <ele>338.10792254878</ele>
        <time>2022-04-27T10:05:03.081Z</time>
      </trkpt>
      <trkpt lat="48.44562" lon="7.4231">
        <ele>337.4019075664</ele>
        <time>2022-04-27T10:05:03.595Z</time>
      </trkpt>
      <trkpt lat="48.44584" lon="7.42367">
        <ele>336.32000921228</ele>
        <time>2022-04-27T10:05:04.116Z</time>
      </trkpt>
      <trkpt lat="48.44598" lon="7.4236">
        <ele>335.23875246365</ele>
        <time>2022-04-27T10:05:04.639Z</time>
      </trkpt>
      <trkpt lat="48.44613" lon="7.42367">
        <ele>333.99766833584</ele>
        <time>2022-04-27T10:05:05.164Z</time>
      </trkpt>
      <trkpt lat="48.44632" lon="7.42382">
        <ele>332.61672022222</ele>
        <time>2022-04-27T10:05:05.693Z</time>
      </trkpt>
      <trkpt lat="48.44722" lon="7.42455">
        <ele>330.77720163403</ele>
        <time>2022-04-27T10:05:06.238Z</time>
      </trkpt>
      <trkpt lat="48.44722" lon="7.42455">
        <ele>329.25508659631</ele>
        <time>2022-04-27T10:05:06.783Z</time>
      </trkpt>
      <trkpt lat="48.44794" lon="7.42479">
        <ele>327.31910230971</ele>
        <time>2022-04-27T10:05:07.340Z</time>
      </trkpt>
      <trkpt lat="48.44818" lon="7.42486">
        <ele>325.5518249251</ele>
        <time>2022-04-27T10:05:07.901Z</time>
      </trkpt>
      <trkpt lat="48.44854" lon="7.42488">
        <ele>323.60518669906</ele>
        <time>2022-04-27T10:05:08.468Z</time>
      </trkpt>
      <trkpt lat="48.44886" lon="7.42485">
        <ele>321.56790060563</ele>
        <time>2022-04-27T10:05:09.040Z</time>
      </trkpt>
      <trkpt lat="48.44886" lon="7.42485">
        <ele>319.65636248635</ele>
        <time>2022-04-27T10:05:09.612Z</time>
      </trkpt>
      <trkpt lat="48.44898" lon="7.42481">
        <ele>317.66424799205</ele>
        <time>2022-04-27T10:05:10.186Z</time>
      </trkpt>
      <trkpt lat="48.44911" lon="7.42479">
        <ele>315.63643882613</ele>
        <time>2022-04-27T10:05:10.762Z</time>
      </trkpt>
      <trkpt lat="48.44925" lon="7.42483">
        <ele>313.61672028518</ele>
        <time>2022-04-27T10:05:11.340Z</time>
      </trkpt>
      <trkpt lat="48.44957" lon="7.42496">
        <ele>311.56321784909</ele>
        <time>2022-04-27T10:05:11.923Z</time>
      </trkpt>
      <trkpt lat="48.44965" lon="7.42499">
        <ele>309.54612531532</ele>
        <time>2022-04-27T10:05:12.508Z</time>
      </trkpt>
      <trkpt lat="48.44977" lon="7.42503">
        <ele>307.53125988826</ele>
        <time>2022-04-27T10:05:13.095Z</time>
      </trkpt>
      <trkpt lat="48.44977" lon="7.42503">
        <ele>305.58869305266</ele>
        <time>2022-04-27T10:05:13.682Z</time>
      </trkpt>
      <trkpt lat="48.45172" lon="7.42578">
        <ele>302.88980065267</ele>
        <time>2022-04-27T10:05:14.301Z</time>
      </trkpt>
      <trkpt lat="48.452" lon="7.42585">
        <ele>300.97944374683</ele>
        <time>2022-04-27T10:05:14.925Z</time>
      </trkpt>
      <trkpt lat="48.45242" lon="7.42582">
        <ele>299.01466390946</ele>
        <time>2022-04-27T10:05:15.555Z</time>
      </trkpt>
      <trkpt lat="48.45295" lon="7.42586">
        <ele>297.25018319012</ele>
        <time>2022-04-27T10:05:16.194Z</time>
      </trkpt>
      <trkpt lat="48.45353" lon="7.42596">
        <ele>295.55340540269</ele>
        <time>2022-04-27T10:05:16.842Z</time>
      </trkpt>
      <trkpt lat="48.45364" lon="7.42593">
        <ele>294.09520319228</ele>
        <time>2022-04-27T10:05:17.492Z</time>
      </trkpt>
      <trkpt lat="48.45379" lon="7.42571">
        <ele>292.77218552175</ele>
        <time>2022-04-27T10:05:18.145Z</time>
      </trkpt>
      <trkpt lat="48.45389" lon="7.42561">
        <ele>291.56718228726</ele>
        <time>2022-04-27T10:05:18.800Z</time>
      </trkpt>
      <trkpt lat="48.45434" lon="7.42531">
        <ele>290.32422452414</ele>
        <time>2022-04-27T10:05:19.463Z</time>
      </trkpt>
      <trkpt lat="48.4545" lon="7.42525">
        <ele>289.34947960134</ele>
        <time>2022-04-27T10:05:20.129Z</time>
      </trkpt>
      <trkpt lat="48.4548" lon="7.42519">
        <ele>288.43865877104</ele>
        <time>2022-04-27T10:05:20.800Z</time>
      </trkpt>
      <trkpt lat="48.45537" lon="7.42527">
        <ele>287.81292862482</ele>
        <time>2022-04-27T10:05:21.480Z</time>
      </trkpt>
      <trkpt lat="48.4555" lon="7.42526">
        <ele>287.23993591537</ele>
        <time>2022-04-27T10:05:22.162Z</time>
      </trkpt>
      <trkpt lat="48.45562" lon="7.42522">
        <ele>286.76237870957</ele>
        <time>2022-04-27T10:05:22.846Z</time>
      </trkpt>
      <trkpt lat="48.45581" lon="7.42511">
        <ele>286.40820268799</ele>
        <time>2022-04-27T10:05:23.533Z</time>
      </trkpt>
      <trkpt lat="48.456" lon="7.42555">
        <ele>285.81266378656</ele>
        <time>2022-04-27T10:05:24.226Z</time>
      </trkpt>
      <trkpt lat="48.45626" lon="7.42552">
        <ele>285.46334354233</ele>
        <time>2022-04-27T10:05:24.923Z</time>
      </trkpt>
      <trkpt lat="48.45638" lon="7.42548">
        <ele>285.16463484897</ele>
        <time>2022-04-27T10:05:25.622Z</time>
      </trkpt>
      <trkpt lat="48.4565" lon="7.42537">
        <ele>284.90393447639</ele>
        <time>2022-04-27T10:05:26.323Z</time>
      </trkpt>
      <trkpt lat="48.45664" lon="7.4252">
        <ele>284.66403397638</ele>
        <time>2022-04-27T10:05:27.027Z</time>
      </trkpt>
      <trkpt lat="48.45673" lon="7.42508">
        <ele>284.36847509008</ele>
        <time>2022-04-27T10:05:27.733Z</time>
      </trkpt>
      <trkpt lat="48.45699" lon="7.42478">
        <ele>284.10391361353</ele>
        <time>2022-04-27T10:05:28.444Z</time>
      </trkpt>
      <trkpt lat="48.45702" lon="7.42472">
        <ele>283.6957630528</ele>
        <time>2022-04-27T10:05:29.156Z</time>
      </trkpt>
      <trkpt lat="48.45711" lon="7.42475">
        <ele>283.16505074891</ele>
        <time>2022-04-27T10:05:29.869Z</time>
      </trkpt>
      <trkpt lat="48.45728" lon="7.42475">
        <ele>282.56395238043</ele>
        <time>2022-04-27T10:05:30.585Z</time>
      </trkpt>
      <trkpt lat="48.45758" lon="7.42474">
        <ele>281.84594634011</ele>
        <time>2022-04-27T10:05:31.306Z</time>
      </trkpt>
      <trkpt lat="48.45769" lon="7.42474">
        <ele>281.01045600235</ele>
        <time>2022-04-27T10:05:32.029Z</time>
      </trkpt>
      <trkpt lat="48.45778" lon="7.42478">
        <ele>280.03339945686</ele>
        <time>2022-04-27T10:05:32.753Z</time>
      </trkpt>
      <trkpt lat="48.45821" lon="7.4254">
        <ele>278.74894660621</ele>
        <time>2022-04-27T10:05:33.487Z</time>
      </trkpt>
      <trkpt lat="48.45822" lon="7.4254">
        <ele>277.5674248271</ele>
        <time>2022-04-27T10:05:34.221Z</time>
      </trkpt>
      <trkpt lat="48.4583" lon="7.42559">
        <ele>276.24652699943</ele>
        <time>2022-04-27T10:05:34.957Z</time>
      </trkpt>
      <trkpt lat="48.45871" lon="7.42764">
        <ele>274.23242511761</ele>
        <time>2022-04-27T10:05:35.716Z</time>
      </trkpt>
      <trkpt lat="48.45882" lon="7.4279">
        <ele>272.68136943113</ele>
        <time>2022-04-27T10:05:36.478Z</time>
      </trkpt>
      <trkpt lat="48.45887" lon="7.42799">
        <ele>271.10349230185</ele>
        <time>2022-04-27T10:05:37.242Z</time>
      </trkpt>
      <trkpt lat="48.45894" lon="7.42808">
        <ele>269.45370380935</ele>
        <time>2022-04-27T10:05:38.007Z</time>
      </trkpt>
      <trkpt lat="48.45921" lon="7.42825">
        <ele>267.68525364441</ele>
        <time>2022-04-27T10:05:38.777Z</time>
      </trkpt>
      <trkpt lat="48.45966" lon="7.42866">
        <ele>265.92926807717</ele>
        <time>2022-04-27T10:05:39.555Z</time>
      </trkpt>
      <trkpt lat="48.45966" lon="7.42866">
        <ele>264.25827432295</ele>
        <time>2022-04-27T10:05:40.333Z</time>
      </trkpt>
      <trkpt lat="48.46004" lon="7.42908">
        <ele>262.53962056819</ele>
        <time>2022-04-27T10:05:41.119Z</time>
      </trkpt>
      <trkpt lat="48.46037" lon="7.42944">
        <ele>260.75633565104</ele>
        <time>2022-04-27T10:05:41.911Z</time>
      </trkpt>
      <trkpt lat="48.46069" lon="7.42969">
        <ele>258.96442792215</ele>
        <time>2022-04-27T10:05:42.709Z</time>
      </trkpt>
      <trkpt lat="48.46074" lon="7.42984">
        <ele>257.3304336587</ele>
        <time>2022-04-27T10:05:43.509Z</time>
      </trkpt>
      <trkpt lat="48.46091" lon="7.42993">
        <ele>255.77989248065</ele>
        <time>2022-04-27T10:05:44.312Z</time>
      </trkpt>
      <trkpt lat="48.46094" lon="7.43001">
        <ele>254.33148459839</ele>
        <time>2022-04-27T10:05:45.116Z</time>
      </trkpt>
      <trkpt lat="48.4614" lon="7.43027">
        <ele>252.79432989462</ele>
        <time>2022-04-27T10:05:45.928Z</time>
      </trkpt>
      <trkpt lat="48.46179" lon="7.43043">
        <ele>251.38805191571</ele>
        <time>2022-04-27T10:05:46.746Z</time>
      </trkpt>
      <trkpt lat="48.46203" lon="7.43049">
        <ele>250.28554773914</ele>
        <time>2022-04-27T10:05:47.568Z</time>
      </trkpt>
      <trkpt lat="48.46258" lon="7.43055">
        <ele>249.19393497518</ele>
        <time>2022-04-27T10:05:48.399Z</time>
      </trkpt>
      <trkpt lat="48.46268" lon="7.43061">
        <ele>248.33433454671</ele>
        <time>2022-04-27T10:05:49.231Z</time>
      </trkpt>
      <trkpt lat="48.46287" lon="7.43057">
        <ele>247.62646023644</ele>
        <time>2022-04-27T10:05:50.067Z</time>
      </trkpt>
      <trkpt lat="48.46309" lon="7.43057">
        <ele>247.07471708199</ele>
        <time>2022-04-27T10:05:50.906Z</time>
      </trkpt>
      <trkpt lat="48.46309" lon="7.43057">
        <ele>246.71757844173</ele>
        <time>2022-04-27T10:05:51.745Z</time>
      </trkpt>
      <trkpt lat="48.46327" lon="7.43062">
        <ele>246.46242491627</ele>
        <time>2022-04-27T10:05:52.587Z</time>
      </trkpt>
      <trkpt lat="48.4634" lon="7.43065">
        <ele>246.36688712071</ele>
        <time>2022-04-27T10:05:53.431Z</time>
      </trkpt>
      <trkpt lat="48.46372" lon="7.43063">
        <ele>246.42360865874</ele>
        <time>2022-04-27T10:05:54.280Z</time>
      </trkpt>
      <trkpt lat="48.46442" lon="7.43047">
        <ele>246.9713132675</ele>
        <time>2022-04-27T10:05:55.141Z</time>
      </trkpt>
      <trkpt lat="48.46462" lon="7.4305">
        <ele>247.39872207987</ele>
        <time>2022-04-27T10:05:56.005Z</time>
      </trkpt>
      <trkpt lat="48.46483" lon="7.43067">
        <ele>247.86893312202</ele>
        <time>2022-04-27T10:05:56.873Z</time>
      </trkpt>
      <trkpt lat="48.46542" lon="7.43134">
        <ele>248.44080949835</ele>
        <time>2022-04-27T10:05:57.752Z</time>
      </trkpt>
      <trkpt lat="48.46568" lon="7.43163">
        <ele>248.98459280525</ele>
        <time>2022-04-27T10:05:58.637Z</time>
      </trkpt>
      <trkpt lat="48.46621" lon="7.43228">
        <ele>249.68037650715</ele>
        <time>2022-04-27T10:05:59.533Z</time>
      </trkpt>
      <trkpt lat="48.46661" lon="7.43294">
        <ele>250.3902314909</ele>
        <time>2022-04-27T10:06:00.438Z</time>
      </trkpt>
      <trkpt lat="48.46725" lon="7.43388">
        <ele>251.04663578493</ele>
        <time>2022-04-27T10:06:01.357Z</time>
      </trkpt>
      <trkpt lat="48.46771" lon="7.43444">
        <ele>251.59740694497</ele>
        <time>2022-04-27T10:06:02.286Z</time>
      </trkpt>
      <trkpt lat="48.46786" lon="7.43464">
        <ele>252.26595879364</ele>
        <time>2022-04-27T10:06:03.218Z</time>
      </trkpt>
      <trkpt lat="48.4679" lon="7.43472">
        <ele>252.92514235929</ele>
        <time>2022-04-27T10:06:04.151Z</time>
      </trkpt>
      <trkpt lat="48.46834" lon="7.43541">
        <ele>253.63539351901</ele>
        <time>2022-04-27T10:06:05.094Z</time>
      </trkpt>
      <trkpt lat="48.46856" lon="7.43591">
        <ele>254.41082275865</ele>
        <time>2022-04-27T10:06:06.044Z</time>
      </trkpt>
      <trkpt lat="48.46856" lon="7.43591">
        <ele>254.96262746246</ele>
        <time>2022-04-27T10:06:06.994Z</time>
      </trkpt>
      <trkpt lat="48.46883" lon="7.4369">
        <ele>255.61506626382</ele>
        <time>2022-04-27T10:06:07.955Z</time>
      </trkpt>
      <trkpt lat="48.46893" lon="7.43713">
        <ele>256.06424560274</ele>
        <time>2022-04-27T10:06:08.919Z</time>
      </trkpt>
      <trkpt lat="48.46909" lon="7.43743">
        <ele>256.37434119401</ele>
        <time>2022-04-27T10:06:09.887Z</time>
      </trkpt>
      <trkpt lat="48.46909" lon="7.43743">
        <ele>256.64618059274</ele>
        <time>2022-04-27T10:06:10.855Z</time>
      </trkpt>
      <trkpt lat="48.46922" lon="7.43768">
        <ele>256.76294263488</ele>
        <time>2022-04-27T10:06:11.827Z</time>
      </trkpt>
      <trkpt lat="48.46928" lon="7.4378">
        <ele>256.82455806683</ele>
        <time>2022-04-27T10:06:12.800Z</time>
      </trkpt>
      <trkpt lat="48.46931" lon="7.43785">
        <ele>256.83132686026</ele>
        <time>2022-04-27T10:06:13.774Z</time>
      </trkpt>
      <trkpt lat="48.46951" lon="7.43844">
        <ele>256.63532458438</ele>
        <time>2022-04-27T10:06:14.755Z</time>
      </trkpt>
      <trkpt lat="48.46971" lon="7.43882">
        <ele>256.42724787352</ele>
        <time>2022-04-27T10:06:15.741Z</time>
      </trkpt>
      <trkpt lat="48.47012" lon="7.43939">
        <ele>256.24600939019</ele>
        <time>2022-04-27T10:06:16.736Z</time>
      </trkpt>
      <trkpt lat="48.47038" lon="7.43965">
        <ele>256.03593656815</ele>
        <time>2022-04-27T10:06:17.736Z</time>
      </trkpt>
      <trkpt lat="48.47038" lon="7.43965">
        <ele>255.70981492313</ele>
        <time>2022-04-27T10:06:18.736Z</time>
      </trkpt>
      <trkpt lat="48.47065" lon="7.43986">
        <ele>255.25959396753</ele>
        <time>2022-04-27T10:06:19.741Z</time>
      </trkpt>
      <trkpt lat="48.47094" lon="7.43997">
        <ele>254.70190491096</ele>
        <time>2022-04-27T10:06:20.751Z</time>
      </trkpt>
      <trkpt lat="48.47114" lon="7.43998">
        <ele>254.15473035727</ele>
        <time>2022-04-27T10:06:21.764Z</time>
      </trkpt>
      <trkpt lat="48.47144" lon="7.43992">
        <ele>253.66512473785</ele>
        <time>2022-04-27T10:06:22.782Z</time>
      </trkpt>
      <trkpt lat="48.47237" lon="7.43949">
        <ele>252.9346102048</ele>
        <time>2022-04-27T10:06:23.815Z</time>
      </trkpt>
      <trkpt lat="48.47254" lon="7.43947">
        <ele>252.31139492025</ele>
        <time>2022-04-27T10:06:24.851Z</time>
      </trkpt>
      <trkpt lat="48.47254" lon="7.43947">
        <ele>251.66915876471</ele>
        <time>2022-04-27T10:06:25.887Z</time>
      </trkpt>
      <trkpt lat="48.47262" lon="7.43947">
        <ele>250.99861051274</ele>
        <time>2022-04-27T10:06:26.924Z</time>
      </trkpt>
      <trkpt lat="48.47269" lon="7.43948">
        <ele>250.30211863388</ele>
        <time>2022-04-27T10:06:27.962Z</time>
      </trkpt>
      <trkpt lat="48.4729" lon="7.43953">
        <ele>249.56225627891</ele>
        <time>2022-04-27T10:06:29.004Z</time>
      </trkpt>
      <trkpt lat="48.47381" lon="7.44001">
        <ele>248.79738331085</ele>
        <time>2022-04-27T10:06:30.061Z</time>
      </trkpt>
      <trkpt lat="48.47396" lon="7.44005">
        <ele>248.0053364883</ele>
        <time>2022-04-27T10:06:31.121Z</time>
      </trkpt>
      <trkpt lat="48.47412" lon="7.44006">
        <ele>247.19545210735</ele>
        <time>2022-04-27T10:06:32.183Z</time>
      </trkpt>
      <trkpt lat="48.47433" lon="7.44003">
        <ele>246.38160966548</ele>
        <time>2022-04-27T10:06:33.249Z</time>
      </trkpt>
      <trkpt lat="48.47475" lon="7.4399">
        <ele>245.58423108722</ele>
        <time>2022-04-27T10:06:34.321Z</time>
      </trkpt>
      <trkpt lat="48.4751" lon="7.43985">
        <ele>244.60917220433</ele>
        <time>2022-04-27T10:06:35.399Z</time>
      </trkpt>
      <trkpt lat="48.47525" lon="7.43985">
        <ele>243.71106752356</ele>
        <time>2022-04-27T10:06:36.480Z</time>
      </trkpt>
      <trkpt lat="48.47525" lon="7.43985">
        <ele>242.87297705819</ele>
        <time>2022-04-27T10:06:37.561Z</time>
      </trkpt>
      <trkpt lat="48.4753" lon="7.43986">
        <ele>242.01835748419</ele>
        <time>2022-04-27T10:06:38.642Z</time>
      </trkpt>
      <trkpt lat="48.47587" lon="7.44003">
        <ele>241.09376733304</ele>
        <time>2022-04-27T10:06:39.733Z</time>
      </trkpt>
      <trkpt lat="48.47587" lon="7.44003">
        <ele>240.24604380444</ele>
        <time>2022-04-27T10:06:40.824Z</time>
      </trkpt>
      <trkpt lat="48.47596" lon="7.44005">
        <ele>239.3727012365</ele>
        <time>2022-04-27T10:06:41.916Z</time>
      </trkpt>
      <trkpt lat="48.47604" lon="7.44006">
        <ele>238.50735606243</ele>
        <time>2022-04-27T10:06:43.009Z</time>
      </trkpt>
      <trkpt lat="48.47636" lon="7.44008">
        <ele>237.59167774436</ele>
        <time>2022-04-27T10:06:44.107Z</time>
      </trkpt>
      <trkpt lat="48.47652" lon="7.44009">
        <ele>236.75708790106</ele>
        <time>2022-04-27T10:06:45.208Z</time>
      </trkpt>
      <trkpt lat="48.47683" lon="7.44024">
        <ele>235.86690162102</ele>
        <time>2022-04-27T10:06:46.314Z</time>
      </trkpt>
      <trkpt lat="48.4769" lon="7.44025">
        <ele>235.03437561878</ele>
        <time>2022-04-27T10:06:47.421Z</time>
      </trkpt>
      <trkpt lat="48.477" lon="7.44027">
        <ele>234.20746170421</ele>
        <time>2022-04-27T10:06:48.530Z</time>
      </trkpt>
      <trkpt lat="48.47729" lon="7.44021">
        <ele>233.34418119886</ele>
        <time>2022-04-27T10:06:49.644Z</time>
      </trkpt>
      <trkpt lat="48.47741" lon="7.44021">
        <ele>232.52361392578</ele>
        <time>2022-04-27T10:06:50.760Z</time>
      </trkpt>
      <trkpt lat="48.47747" lon="7.44024">
        <ele>231.74682995634</ele>
        <time>2022-04-27T10:06:51.877Z</time>
      </trkpt>
      <trkpt lat="48.47752" lon="7.44034">
        <ele>231.0045038412</ele>
        <time>2022-04-27T10:06:52.995Z</time>
      </trkpt>
      <trkpt lat="48.47753" lon="7.4404">
        <ele>230.30450279769</ele>
        <time>2022-04-27T10:06:54.114Z</time>
      </trkpt>
      <trkpt lat="48.47753" lon="7.44042">
        <ele>229.64182635898</ele>
        <time>2022-04-27T10:06:55.233Z</time>
      </trkpt>
      <trkpt lat="48.47754" lon="7.4409">
        <ele>228.30969630852</ele>
        <time>2022-04-27T10:06:56.357Z</time>
      </trkpt>
      <trkpt lat="48.47745" lon="7.44177">
        <ele>227.60892154684</ele>
        <time>2022-04-27T10:06:57.490Z</time>
      </trkpt>
      <trkpt lat="48.47741" lon="7.44233">
        <ele>227.04030790221</ele>
        <time>2022-04-27T10:06:58.629Z</time>
      </trkpt>
      <trkpt lat="48.4774" lon="7.44243">
        <ele>226.6112641523</ele>
        <time>2022-04-27T10:06:59.769Z</time>
      </trkpt>
      <trkpt lat="48.47734" lon="7.44265">
        <ele>226.2931732525</ele>
        <time>2022-04-27T10:07:00.912Z</time>
      </trkpt>
      <trkpt lat="48.47729" lon="7.44282">
        <ele>226.02940156392</ele>
        <time>2022-04-27T10:07:02.057Z</time>
      </trkpt>
      <trkpt lat="48.47692" lon="7.44386">
        <ele>225.80483314023</ele>
        <time>2022-04-27T10:07:03.214Z</time>
      </trkpt>
      <trkpt lat="48.47667" lon="7.44462">
        <ele>225.56484621207</ele>
        <time>2022-04-27T10:07:04.380Z</time>
      </trkpt>
      <trkpt lat="48.47659" lon="7.44474">
        <ele>225.41169121606</ele>
        <time>2022-04-27T10:07:05.548Z</time>
      </trkpt>
      <trkpt lat="48.47652" lon="7.4447">
        <ele>225.35011811024</ele>
        <time>2022-04-27T10:07:06.717Z</time>
      </trkpt>
      <trkpt lat="48.47645" lon="7.44474">
        <ele>225.35967944256</ele>
        <time>2022-04-27T10:07:07.888Z</time>
      </trkpt>
      <trkpt lat="48.47643" lon="7.44478">
        <ele>225.49906276024</ele>
        <time>2022-04-27T10:07:09.059Z</time>
      </trkpt>
      <trkpt lat="48.47643" lon="7.44489">
        <ele>225.75399136111</ele>
        <time>2022-04-27T10:07:10.231Z</time>
      </trkpt>
      <trkpt lat="48.47646" lon="7.44498">
        <ele>226.09312145887</ele>
        <time>2022-04-27T10:07:11.404Z</time>
      </trkpt>
      <trkpt lat="48.47652" lon="7.445">
        <ele>226.4922646245</ele>
        <time>2022-04-27T10:07:12.578Z</time>
      </trkpt>
      <trkpt lat="48.47657" lon="7.44499">
        <ele>226.9438222308</ele>
        <time>2022-04-27T10:07:13.753Z</time>
      </trkpt>
      <trkpt lat="48.47659" lon="7.44496">
        <ele>227.41678816089</ele>
        <time>2022-04-27T10:07:14.929Z</time>
      </trkpt>
      <trkpt lat="48.47661" lon="7.44506">
        <ele>227.93228679433</ele>
        <time>2022-04-27T10:07:16.106Z</time>
      </trkpt>
      <trkpt lat="48.47664" lon="7.44535">
        <ele>228.44916702447</ele>
        <time>2022-04-27T10:07:17.286Z</time>
      </trkpt>
      <trkpt lat="48.47667" lon="7.44552">
        <ele>228.96832353321</ele>
        <time>2022-04-27T10:07:18.468Z</time>
      </trkpt>
      <trkpt lat="48.47674" lon="7.44576">
        <ele>229.53822436479</ele>
        <time>2022-04-27T10:07:19.652Z</time>
      </trkpt>
      <trkpt lat="48.47696" lon="7.44612">
        <ele>230.11357301022</ele>
        <time>2022-04-27T10:07:20.842Z</time>
      </trkpt>
      <trkpt lat="48.47867" lon="7.44804">
        <ele>230.85509861508</ele>
        <time>2022-04-27T10:07:22.066Z</time>
      </trkpt>
      <trkpt lat="48.48054" lon="7.45045">
        <ele>231.29136744397</ele>
        <time>2022-04-27T10:07:23.329Z</time>
      </trkpt>
      <trkpt lat="48.48101" lon="7.45088">
        <ele>231.74898502172</ele>
        <time>2022-04-27T10:07:24.601Z</time>
      </trkpt>
      <trkpt lat="48.4812" lon="7.451">
        <ele>232.05038766392</ele>
        <time>2022-04-27T10:07:25.876Z</time>
      </trkpt>
      <trkpt lat="48.4812" lon="7.451">
        <ele>232.2344304978</ele>
        <time>2022-04-27T10:07:27.151Z</time>
      </trkpt>
      <trkpt lat="48.48152" lon="7.45122">
        <ele>232.31663392778</ele>
        <time>2022-04-27T10:07:28.432Z</time>
      </trkpt>
      <trkpt lat="48.48194" lon="7.45143">
        <ele>232.34549764678</ele>
        <time>2022-04-27T10:07:29.720Z</time>
      </trkpt>
      <trkpt lat="48.48257" lon="7.45165">
        <ele>232.1891220984</ele>
        <time>2022-04-27T10:07:31.018Z</time>
      </trkpt>
      <trkpt lat="48.48272" lon="7.45173">
        <ele>231.94626318155</ele>
        <time>2022-04-27T10:07:32.319Z</time>
      </trkpt>
      <trkpt lat="48.48292" lon="7.45197">
        <ele>231.51837115156</ele>
        <time>2022-04-27T10:07:33.624Z</time>
      </trkpt>
      <trkpt lat="48.48304" lon="7.45225">
        <ele>230.87964358544</ele>
        <time>2022-04-27T10:07:34.933Z</time>
      </trkpt>
      <trkpt lat="48.48325" lon="7.45296">
        <ele>229.98148806888</ele>
        <time>2022-04-27T10:07:36.250Z</time>
      </trkpt>
      <trkpt lat="48.48344" lon="7.45361">
        <ele>229.10788792196</ele>
        <time>2022-04-27T10:07:37.574Z</time>
      </trkpt>
      <trkpt lat="48.48352" lon="7.45379">
        <ele>228.17191375065</ele>
        <time>2022-04-27T10:07:38.901Z</time>
      </trkpt>
      <trkpt lat="48.48382" lon="7.45408">
        <ele>227.04993411405</ele>
        <time>2022-04-27T10:07:40.234Z</time>
      </trkpt>
      <trkpt lat="48.48478" lon="7.45468">
        <ele>225.50170259948</ele>
        <time>2022-04-27T10:07:41.583Z</time>
      </trkpt>
      <trkpt lat="48.48655" lon="7.45585">
        <ele>223.92128833223</ele>
        <time>2022-04-27T10:07:42.963Z</time>
      </trkpt>
      <trkpt lat="48.4871" lon="7.45615">
        <ele>222.38910437274</ele>
        <time>2022-04-27T10:07:44.352Z</time>
      </trkpt>
      <trkpt lat="48.48726" lon="7.45624">
        <ele>220.89194493115</ele>
        <time>2022-04-27T10:07:45.744Z</time>
      </trkpt>
      <trkpt lat="48.48784" lon="7.45654">
        <ele>219.27248765609</ele>
        <time>2022-04-27T10:07:47.146Z</time>
      </trkpt>
      <trkpt lat="48.48858" lon="7.45699">
        <ele>217.55656515684</ele>
        <time>2022-04-27T10:07:48.561Z</time>
      </trkpt>
      <trkpt lat="48.48858" lon="7.45699">
        <ele>215.97327903606</ele>
        <time>2022-04-27T10:07:49.976Z</time>
      </trkpt>
      <trkpt lat="48.48871" lon="7.45708">
        <ele>214.36655983127</ele>
        <time>2022-04-27T10:07:51.393Z</time>
      </trkpt>
      <trkpt lat="48.4901" lon="7.45796">
        <ele>212.53306428749</ele>
        <time>2022-04-27T10:07:52.834Z</time>
      </trkpt>
      <trkpt lat="48.49036" lon="7.4582">
        <ele>210.90722791285</ele>
        <time>2022-04-27T10:07:54.280Z</time>
      </trkpt>
      <trkpt lat="48.49058" lon="7.45852">
        <ele>209.30502437324</ele>
        <time>2022-04-27T10:07:55.731Z</time>
      </trkpt>
      <trkpt lat="48.49076" lon="7.45883">
        <ele>207.74160562367</ele>
        <time>2022-04-27T10:07:57.186Z</time>
      </trkpt>
      <trkpt lat="48.49116" lon="7.45975">
        <ele>206.23911193511</ele>
        <time>2022-04-27T10:07:58.653Z</time>
      </trkpt>
      <trkpt lat="48.49132" lon="7.46002">
        <ele>204.8247798749</ele>
        <time>2022-04-27T10:08:00.124Z</time>
      </trkpt>
      <trkpt lat="48.49153" lon="7.46025">
        <ele>203.49231880105</ele>
        <time>2022-04-27T10:08:01.599Z</time>
      </trkpt>
      <trkpt lat="48.49185" lon="7.46052">
        <ele>202.25870558841</ele>
        <time>2022-04-27T10:08:03.080Z</time>
      </trkpt>
      <trkpt lat="48.49185" lon="7.46063">
        <ele>201.18213810808</ele>
        <time>2022-04-27T10:08:04.562Z</time>
      </trkpt>
      <trkpt lat="48.49189" lon="7.4607">
        <ele>200.21311137534</ele>
        <time>2022-04-27T10:08:06.045Z</time>
      </trkpt>
      <trkpt lat="48.49196" lon="7.4607">
        <ele>199.35871109555</ele>
        <time>2022-04-27T10:08:07.529Z</time>
      </trkpt>
      <trkpt lat="48.492" lon="7.46064">
        <ele>198.6139669378</ele>
        <time>2022-04-27T10:08:09.014Z</time>
      </trkpt>
      <trkpt lat="48.49233" lon="7.46077">
        <ele>197.87357909553</ele>
        <time>2022-04-27T10:08:10.505Z</time>
      </trkpt>
      <trkpt lat="48.49256" lon="7.4608">
        <ele>197.26833936542</ele>
        <time>2022-04-27T10:08:11.999Z</time>
      </trkpt>
      <trkpt lat="48.4928" lon="7.46081">
        <ele>196.76846493835</ele>
        <time>2022-04-27T10:08:13.497Z</time>
      </trkpt>
      <trkpt lat="48.49435" lon="7.46073">
        <ele>196.64647300642</ele>
        <time>2022-04-27T10:08:15.020Z</time>
      </trkpt>
      <trkpt lat="48.49445" lon="7.46074">
        <ele>196.40049485126</ele>
        <time>2022-04-27T10:08:16.545Z</time>
      </trkpt>
      <trkpt lat="48.49453" lon="7.4608">
        <ele>196.22236944732</ele>
        <time>2022-04-27T10:08:18.071Z</time>
      </trkpt>
      <trkpt lat="48.49453" lon="7.4608">
        <ele>196.07240427985</ele>
        <time>2022-04-27T10:08:19.597Z</time>
      </trkpt>
      <trkpt lat="48.49462" lon="7.46085">
        <ele>196.0116962629</ele>
        <time>2022-04-27T10:08:21.125Z</time>
      </trkpt>
      <trkpt lat="48.49471" lon="7.46139">
        <ele>195.94972363027</ele>
        <time>2022-04-27T10:08:22.658Z</time>
      </trkpt>
      <trkpt lat="48.49488" lon="7.46221">
        <ele>195.78222434524</ele>
        <time>2022-04-27T10:08:24.201Z</time>
      </trkpt>
      <trkpt lat="48.49488" lon="7.46221">
        <ele>195.81483739204</ele>
        <time>2022-04-27T10:08:25.744Z</time>
      </trkpt>
      <trkpt lat="48.49495" lon="7.46253">
        <ele>195.77335316314</ele>
        <time>2022-04-27T10:08:27.290Z</time>
      </trkpt>
      <trkpt lat="48.49505" lon="7.46299">
        <ele>195.96587106671</ele>
        <time>2022-04-27T10:08:28.841Z</time>
      </trkpt>
      <trkpt lat="48.4951" lon="7.46325">
        <ele>196.09784780634</ele>
        <time>2022-04-27T10:08:30.395Z</time>
      </trkpt>
      <trkpt lat="48.49521" lon="7.46375">
        <ele>196.25579677535</ele>
        <time>2022-04-27T10:08:31.955Z</time>
      </trkpt>
      <trkpt lat="48.49526" lon="7.46403">
        <ele>196.38537703901</ele>
        <time>2022-04-27T10:08:33.518Z</time>
      </trkpt>
      <trkpt lat="48.49528" lon="7.46409">
        <ele>196.51502891808</ele>
        <time>2022-04-27T10:08:35.082Z</time>
      </trkpt>
      <trkpt lat="48.49541" lon="7.46469">
        <ele>196.64411182376</ele>
        <time>2022-04-27T10:08:36.652Z</time>
      </trkpt>
      <trkpt lat="48.49549" lon="7.46505">
        <ele>196.76443899094</ele>
        <time>2022-04-27T10:08:38.226Z</time>
      </trkpt>
      <trkpt lat="48.49558" lon="7.46552">
        <ele>196.87380709469</ele>
        <time>2022-04-27T10:08:39.806Z</time>
      </trkpt>
      <trkpt lat="48.49571" lon="7.46621">
        <ele>196.94812967261</ele>
        <time>2022-04-27T10:08:41.393Z</time>
      </trkpt>
      <trkpt lat="48.49579" lon="7.46655">
        <ele>196.96811307614</ele>
        <time>2022-04-27T10:08:42.984Z</time>
      </trkpt>
      <trkpt lat="48.49581" lon="7.46671">
        <ele>197.00522315444</ele>
        <time>2022-04-27T10:08:44.577Z</time>
      </trkpt>
      <trkpt lat="48.49593" lon="7.46729">
        <ele>196.97542830658</ele>
        <time>2022-04-27T10:08:46.176Z</time>
      </trkpt>
      <trkpt lat="48.49602" lon="7.46774">
        <ele>197.03692048045</ele>
        <time>2022-04-27T10:08:47.780Z</time>
      </trkpt>
      <trkpt lat="48.49604" lon="7.46782">
        <ele>197.04213641941</ele>
        <time>2022-04-27T10:08:49.385Z</time>
      </trkpt>
      <trkpt lat="48.49615" lon="7.46844">
        <ele>197.01582747538</ele>
        <time>2022-04-27T10:08:50.997Z</time>
      </trkpt>
      <trkpt lat="48.49615" lon="7.46844">
        <ele>196.97883037141</ele>
        <time>2022-04-27T10:08:52.609Z</time>
      </trkpt>
      <trkpt lat="48.49615" lon="7.46847">
        <ele>196.91879563579</ele>
        <time>2022-04-27T10:08:54.221Z</time>
      </trkpt>
      <trkpt lat="48.4962" lon="7.46866">
        <ele>196.83091334829</ele>
        <time>2022-04-27T10:08:55.835Z</time>
      </trkpt>
      <trkpt lat="48.49621" lon="7.46874">
        <ele>196.7176895093</ele>
        <time>2022-04-27T10:08:57.450Z</time>
      </trkpt>
      <trkpt lat="48.49628" lon="7.46909">
        <ele>196.54120049649</ele>
        <time>2022-04-27T10:08:59.069Z</time>
      </trkpt>
      <trkpt lat="48.49636" lon="7.46949">
        <ele>196.36932873676</ele>
        <time>2022-04-27T10:09:00.693Z</time>
      </trkpt>
      <trkpt lat="48.49638" lon="7.46959">
        <ele>196.1848607016</ele>
        <time>2022-04-27T10:09:02.318Z</time>
      </trkpt>
      <trkpt lat="48.49638" lon="7.46959">
        <ele>195.97453534377</ele>
        <time>2022-04-27T10:09:03.943Z</time>
      </trkpt>
      <trkpt lat="48.49641" lon="7.46979">
        <ele>195.7423245628</ele>
        <time>2022-04-27T10:09:05.570Z</time>
      </trkpt>
      <trkpt lat="48.49641" lon="7.46979">
        <ele>195.47916212745</ele>
        <time>2022-04-27T10:09:07.197Z</time>
      </trkpt>
      <trkpt lat="48.4965" lon="7.4704">
        <ele>195.16745403906</ele>
        <time>2022-04-27T10:09:08.831Z</time>
      </trkpt>
      <trkpt lat="48.49656" lon="7.47097">
        <ele>194.79760904765</ele>
        <time>2022-04-27T10:09:10.471Z</time>
      </trkpt>
      <trkpt lat="48.49658" lon="7.47112">
        <ele>194.43864719574</ele>
        <time>2022-04-27T10:09:12.112Z</time>
      </trkpt>
      <trkpt lat="48.4966" lon="7.4713">
        <ele>194.08142798154</ele>
        <time>2022-04-27T10:09:13.755Z</time>
      </trkpt>
      <trkpt lat="48.4966" lon="7.4713">
        <ele>193.69146899614</ele>
        <time>2022-04-27T10:09:15.398Z</time>
      </trkpt>
      <trkpt lat="48.49665" lon="7.47149">
        <ele>193.29915975258</ele>
        <time>2022-04-27T10:09:17.043Z</time>
      </trkpt>
      <trkpt lat="48.4967" lon="7.47177">
        <ele>192.86686979287</ele>
        <time>2022-04-27T10:09:18.692Z</time>
      </trkpt>
      <trkpt lat="48.49672" lon="7.47193">
        <ele>192.40897264454</ele>
        <time>2022-04-27T10:09:20.342Z</time>
      </trkpt>
      <trkpt lat="48.49675" lon="7.47212">
        <ele>191.93127641659</ele>
        <time>2022-04-27T10:09:21.994Z</time>
      </trkpt>
      <trkpt lat="48.49682" lon="7.47263">
        <ele>191.43616445271</ele>
        <time>2022-04-27T10:09:23.652Z</time>
      </trkpt>
      <trkpt lat="48.49682" lon="7.47263">
        <ele>190.92666471714</ele>
        <time>2022-04-27T10:09:25.310Z</time>
      </trkpt>
      <trkpt lat="48.49686" lon="7.47291">
        <ele>190.36138801945</ele>
        <time>2022-04-27T10:09:26.971Z</time>
      </trkpt>
      <trkpt lat="48.49688" lon="7.47337">
        <ele>189.73834430326</ele>
        <time>2022-04-27T10:09:28.637Z</time>
      </trkpt>
      <trkpt lat="48.4969" lon="7.47365">
        <ele>189.11664844684</ele>
        <time>2022-04-27T10:09:30.306Z</time>
      </trkpt>
      <trkpt lat="48.49692" lon="7.47388">
        <ele>188.55914937414</ele>
        <time>2022-04-27T10:09:31.977Z</time>
      </trkpt>
      <trkpt lat="48.49695" lon="7.47398">
        <ele>188.02307463706</ele>
        <time>2022-04-27T10:09:33.649Z</time>
      </trkpt>
      <trkpt lat="48.49709" lon="7.47443">
        <ele>187.49393961477</ele>
        <time>2022-04-27T10:09:35.327Z</time>
      </trkpt>
      <trkpt lat="48.49721" lon="7.47479">
        <ele>187.04725870404</ele>
        <time>2022-04-27T10:09:37.009Z</time>
      </trkpt>
      <trkpt lat="48.49757" lon="7.4756">
        <ele>186.60479375681</ele>
        <time>2022-04-27T10:09:38.701Z</time>
      </trkpt>
      <trkpt lat="48.49799" lon="7.47658">
        <ele>186.15264311091</ele>
        <time>2022-04-27T10:09:40.406Z</time>
      </trkpt>
      <trkpt lat="48.49807" lon="7.47693">
        <ele>185.73222553602</ele>
        <time>2022-04-27T10:09:42.115Z</time>
      </trkpt>
      <trkpt lat="48.49823" lon="7.47799">
        <ele>185.39835350597</ele>
        <time>2022-04-27T10:09:43.835Z</time>
      </trkpt>
      <trkpt lat="48.49824" lon="7.47831">
        <ele>185.15013264032</ele>
        <time>2022-04-27T10:09:45.559Z</time>
      </trkpt>
      <trkpt lat="48.49831" lon="7.47852">
        <ele>184.96430108787</ele>
        <time>2022-04-27T10:09:47.285Z</time>
      </trkpt>
      <trkpt lat="48.49853" lon="7.47993">
        <ele>184.75013782719</ele>
        <time>2022-04-27T10:09:49.027Z</time>
      </trkpt>
      <trkpt lat="48.49853" lon="7.47993">
        <ele>184.65777793902</ele>
        <time>2022-04-27T10:09:50.769Z</time>
      </trkpt>
      <trkpt lat="48.49861" lon="7.48021">
        <ele>184.63667514073</ele>
        <time>2022-04-27T10:09:52.514Z</time>
      </trkpt>
      <trkpt lat="48.49926" lon="7.482">
        <ele>184.69515072861</ele>
        <time>2022-04-27T10:09:54.281Z</time>
      </trkpt>
      <trkpt lat="48.49967" lon="7.48285">
        <ele>184.75975449257</ele>
        <time>2022-04-27T10:09:56.059Z</time>
      </trkpt>
      <trkpt lat="48.4998" lon="7.48307">
        <ele>184.8698418198</ele>
        <time>2022-04-27T10:09:57.840Z</time>
      </trkpt>
      <trkpt lat="48.50024" lon="7.48377">
        <ele>185.13920002416</ele>
        <time>2022-04-27T10:09:59.631Z</time>
      </trkpt>
      <trkpt lat="48.50028" lon="7.48386">
        <ele>185.35892313318</ele>
        <time>2022-04-27T10:10:01.423Z</time>
      </trkpt>
      <trkpt lat="48.50036" lon="7.48393">
        <ele>185.62410415486</ele>
        <time>2022-04-27T10:10:03.217Z</time>
      </trkpt>
      <trkpt lat="48.50041" lon="7.48402">
        <ele>185.91412510533</ele>
        <time>2022-04-27T10:10:05.012Z</time>
      </trkpt>
      <trkpt lat="48.50043" lon="7.48412">
        <ele>186.24289664948</ele>
        <time>2022-04-27T10:10:06.808Z</time>
      </trkpt>
      <trkpt lat="48.50049" lon="7.4842">
        <ele>186.60699394764</ele>
        <time>2022-04-27T10:10:08.605Z</time>
      </trkpt>
      <trkpt lat="48.50056" lon="7.48424">
        <ele>186.99576733993</ele>
        <time>2022-04-27T10:10:10.404Z</time>
      </trkpt>
      <trkpt lat="48.50062" lon="7.48443">
        <ele>187.43864281158</ele>
        <time>2022-04-27T10:10:12.205Z</time>
      </trkpt>
      <trkpt lat="48.50129" lon="7.48554">
        <ele>187.83582928333</ele>
        <time>2022-04-27T10:10:14.022Z</time>
      </trkpt>
      <trkpt lat="48.50158" lon="7.48593">
        <ele>188.32275842921</ele>
        <time>2022-04-27T10:10:15.845Z</time>
      </trkpt>
      <trkpt lat="48.50277" lon="7.48792">
        <ele>188.84323676646</ele>
        <time>2022-04-27T10:10:17.697Z</time>
      </trkpt>
      <trkpt lat="48.50371" lon="7.48949">
        <ele>189.25412875627</ele>
        <time>2022-04-27T10:10:19.571Z</time>
      </trkpt>
      <trkpt lat="48.50375" lon="7.48945">
        <ele>189.65150243922</ele>
        <time>2022-04-27T10:10:21.446Z</time>
      </trkpt>
      <trkpt lat="48.50383" lon="7.48937">
        <ele>190.05502659008</ele>
        <time>2022-04-27T10:10:23.322Z</time>
      </trkpt>
      <trkpt lat="48.50389" lon="7.48931">
        <ele>190.39636402408</ele>
        <time>2022-04-27T10:10:25.199Z</time>
      </trkpt>
      <trkpt lat="48.5041" lon="7.4891">
        <ele>190.73816012393</ele>
        <time>2022-04-27T10:10:27.081Z</time>
      </trkpt>
      <trkpt lat="48.50438" lon="7.48891">
        <ele>191.05727404307</ele>
        <time>2022-04-27T10:10:28.967Z</time>
      </trkpt>
      <trkpt lat="48.50455" lon="7.48879">
        <ele>191.25478239565</ele>
        <time>2022-04-27T10:10:30.856Z</time>
      </trkpt>
      <trkpt lat="48.5046" lon="7.48871">
        <ele>191.41405735101</ele>
        <time>2022-04-27T10:10:32.747Z</time>
      </trkpt>
      <trkpt lat="48.50477" lon="7.48862">
        <ele>191.50767544592</ele>
        <time>2022-04-27T10:10:34.641Z</time>
      </trkpt>
      <trkpt lat="48.50662" lon="7.48819">
        <ele>191.59223436932</ele>
        <time>2022-04-27T10:10:36.565Z</time>
      </trkpt>
      <trkpt lat="48.50662" lon="7.48819">
        <ele>191.66023588773</ele>
        <time>2022-04-27T10:10:38.489Z</time>
      </trkpt>
      <trkpt lat="48.50761" lon="7.48796">
        <ele>191.70481342646</ele>
        <time>2022-04-27T10:10:40.429Z</time>
      </trkpt>
      <trkpt lat="48.50825" lon="7.48802">
        <ele>191.71524332606</ele>
        <time>2022-04-27T10:10:42.379Z</time>
      </trkpt>
      <trkpt lat="48.50919" lon="7.48833">
        <ele>191.68145851673</ele>
        <time>2022-04-27T10:10:44.344Z</time>
      </trkpt>
      <trkpt lat="48.50976" lon="7.48832">
        <ele>191.652412591</ele>
        <time>2022-04-27T10:10:46.318Z</time>
      </trkpt>
      <trkpt lat="48.51005" lon="7.48829">
        <ele>191.4487731266</ele>
        <time>2022-04-27T10:10:48.297Z</time>
      </trkpt>
      <trkpt lat="48.51005" lon="7.48829">
        <ele>191.32845924248</ele>
        <time>2022-04-27T10:10:50.276Z</time>
      </trkpt>
      <trkpt lat="48.5109" lon="7.48811">
        <ele>191.14160180506</ele>
        <time>2022-04-27T10:10:52.269Z</time>
      </trkpt>
      <trkpt lat="48.51169" lon="7.48788">
        <ele>190.93077044096</ele>
        <time>2022-04-27T10:10:54.275Z</time>
      </trkpt>
      <trkpt lat="48.51235" lon="7.48767">
        <ele>190.65373392131</ele>
        <time>2022-04-27T10:10:56.292Z</time>
      </trkpt>
      <trkpt lat="48.51299" lon="7.48742">
        <ele>190.52240565724</ele>
        <time>2022-04-27T10:10:58.319Z</time>
      </trkpt>
      <trkpt lat="48.5134" lon="7.48721">
        <ele>190.34800957007</ele>
        <time>2022-04-27T10:11:00.353Z</time>
      </trkpt>
      <trkpt lat="48.51448" lon="7.4867">
        <ele>190.18274190687</ele>
        <time>2022-04-27T10:11:02.405Z</time>
      </trkpt>
      <trkpt lat="48.51527" lon="7.48652">
        <ele>190.00979551426</ele>
        <time>2022-04-27T10:11:04.470Z</time>
      </trkpt>
      <trkpt lat="48.5158" lon="7.48651">
        <ele>189.8321666439</ele>
        <time>2022-04-27T10:11:06.543Z</time>
      </trkpt>
      <trkpt lat="48.51609" lon="7.48651">
        <ele>189.65897136254</ele>
        <time>2022-04-27T10:11:08.621Z</time>
      </trkpt>
      <trkpt lat="48.51642" lon="7.48654">
        <ele>189.49347967801</ele>
        <time>2022-04-27T10:11:10.704Z</time>
      </trkpt>
      <trkpt lat="48.51662" lon="7.48658">
        <ele>189.36610859789</ele>
        <time>2022-04-27T10:11:12.791Z</time>
      </trkpt>
      <trkpt lat="48.51675" lon="7.48664">
        <ele>189.20947255324</ele>
        <time>2022-04-27T10:11:14.880Z</time>
      </trkpt>
      <trkpt lat="48.51696" lon="7.48677">
        <ele>189.04428576301</ele>
        <time>2022-04-27T10:11:16.972Z</time>
      </trkpt>
      <trkpt lat="48.51711" lon="7.48683">
        <ele>188.87971450092</ele>
        <time>2022-04-27T10:11:19.067Z</time>
      </trkpt>
      <trkpt lat="48.51774" lon="7.48685">
        <ele>188.71523694803</ele>
        <time>2022-04-27T10:11:21.172Z</time>
      </trkpt>
      <trkpt lat="48.51887" lon="7.48686">
        <ele>188.48919532162</ele>
        <time>2022-04-27T10:11:23.295Z</time>
      </trkpt>
      <trkpt lat="48.51925" lon="7.48684">
        <ele>188.38546999237</ele>
        <time>2022-04-27T10:11:25.424Z</time>
      </trkpt>
      <trkpt lat="48.51925" lon="7.48684">
        <ele>188.21919065926</ele>
        <time>2022-04-27T10:11:27.553Z</time>
      </trkpt>
      <trkpt lat="48.52067" lon="7.48668">
        <ele>187.99571556403</ele>
        <time>2022-04-27T10:11:29.705Z</time>
      </trkpt>
      <trkpt lat="48.52071" lon="7.48661">
        <ele>187.82635372149</ele>
        <time>2022-04-27T10:11:31.858Z</time>
      </trkpt>
      <trkpt lat="48.52071" lon="7.48661">
        <ele>187.65550658799</ele>
        <time>2022-04-27T10:11:34.011Z</time>
      </trkpt>
      <trkpt lat="48.52109" lon="7.48607">
        <ele>187.53840985876</ele>
        <time>2022-04-27T10:11:36.172Z</time>
      </trkpt>
      <trkpt lat="48.52139" lon="7.48569">
        <ele>187.33560514616</ele>
        <time>2022-04-27T10:11:38.340Z</time>
      </trkpt>
      <trkpt lat="48.52139" lon="7.48569">
        <ele>187.15886209178</ele>
        <time>2022-04-27T10:11:40.508Z</time>
      </trkpt>
      <trkpt lat="48.52153" lon="7.48553">
        <ele>186.97836714971</ele>
        <time>2022-04-27T10:11:42.678Z</time>
      </trkpt>
      <trkpt lat="48.52248" lon="7.48443">
        <ele>186.71955945218</ele>
        <time>2022-04-27T10:11:44.868Z</time>
      </trkpt>
      <trkpt lat="48.52276" lon="7.48407">
        <ele>186.54791286377</ele>
        <time>2022-04-27T10:11:47.063Z</time>
      </trkpt>
      <trkpt lat="48.5235" lon="7.48297">
        <ele>186.23527739871</ele>
        <time>2022-04-27T10:11:49.275Z</time>
      </trkpt>
      <trkpt lat="48.52361" lon="7.48282">
        <ele>186.1340483937</ele>
        <time>2022-04-27T10:11:51.489Z</time>
      </trkpt>
      <trkpt lat="48.52365" lon="7.48282">
        <ele>185.9834265754</ele>
        <time>2022-04-27T10:11:53.704Z</time>
      </trkpt>
      <trkpt lat="48.52368" lon="7.48278">
        <ele>185.83092706421</ele>
        <time>2022-04-27T10:11:55.920Z</time>
      </trkpt>
      <trkpt lat="48.52381" lon="7.48273">
        <ele>185.68358452103</ele>
        <time>2022-04-27T10:11:58.138Z</time>
      </trkpt>
      <trkpt lat="48.52463" lon="7.48263">
        <ele>185.5440536776</ele>
        <time>2022-04-27T10:12:00.369Z</time>
      </trkpt>
      <trkpt lat="48.52474" lon="7.48123">
        <ele>185.41287204715</ele>
        <time>2022-04-27T10:12:02.615Z</time>
      </trkpt>
      <trkpt lat="48.52474" lon="7.48123">
        <ele>185.29057397543</ele>
        <time>2022-04-27T10:12:04.861Z</time>
      </trkpt>
      <trkpt lat="48.52486" lon="7.47961">
        <ele>185.14395702315</ele>
        <time>2022-04-27T10:12:07.124Z</time>
      </trkpt>
      <trkpt lat="48.52492" lon="7.47882">
        <ele>185.148803889</ele>
        <time>2022-04-27T10:12:09.396Z</time>
      </trkpt>
      <trkpt lat="48.525" lon="7.47841">
        <ele>185.09328228444</ele>
        <time>2022-04-27T10:12:11.672Z</time>
      </trkpt>
      <trkpt lat="48.525" lon="7.47841">
        <ele>185.01034787515</ele>
        <time>2022-04-27T10:12:13.948Z</time>
      </trkpt>
      <trkpt lat="48.52579" lon="7.47672">
        <ele>184.98043975814</ele>
        <time>2022-04-27T10:12:16.246Z</time>
      </trkpt>
      <trkpt lat="48.5259" lon="7.47661">
        <ele>184.90649003337</ele>
        <time>2022-04-27T10:12:18.547Z</time>
      </trkpt>
      <trkpt lat="48.52659" lon="7.4752">
        <ele>184.63087548307</ele>
        <time>2022-04-27T10:12:20.866Z</time>
      </trkpt>
      <trkpt lat="48.52659" lon="7.4752">
        <ele>184.60850285478</ele>
        <time>2022-04-27T10:12:23.185Z</time>
      </trkpt>
      <trkpt lat="48.5275" lon="7.47321">
        <ele>184.51696112446</ele>
        <time>2022-04-27T10:12:25.530Z</time>
      </trkpt>
      <trkpt lat="48.52763" lon="7.473">
        <ele>184.51255373622</ele>
        <time>2022-04-27T10:12:27.878Z</time>
      </trkpt>
      <trkpt lat="48.52872" lon="7.47061">
        <ele>184.68314387608</ele>
        <time>2022-04-27T10:12:30.257Z</time>
      </trkpt>
      <trkpt lat="48.52888" lon="7.47059">
        <ele>184.77226947906</ele>
        <time>2022-04-27T10:12:32.638Z</time>
      </trkpt>
      <trkpt lat="48.52901" lon="7.4704">
        <ele>184.91446900946</ele>
        <time>2022-04-27T10:12:35.022Z</time>
      </trkpt>
      <trkpt lat="48.52901" lon="7.4704">
        <ele>185.06222425304</ele>
        <time>2022-04-27T10:12:37.406Z</time>
      </trkpt>
      <trkpt lat="48.52904" lon="7.47017">
        <ele>185.2426398835</ele>
        <time>2022-04-27T10:12:39.793Z</time>
      </trkpt>
      <trkpt lat="48.529" lon="7.46996">
        <ele>185.45100982996</ele>
        <time>2022-04-27T10:12:42.182Z</time>
      </trkpt>
      <trkpt lat="48.52912" lon="7.46961">
        <ele>185.71287015101</ele>
        <time>2022-04-27T10:12:44.575Z</time>
      </trkpt>
      <trkpt lat="48.52962" lon="7.46851">
        <ele>186.02686653633</ele>
        <time>2022-04-27T10:12:46.982Z</time>
      </trkpt>
      <trkpt lat="48.52962" lon="7.46851">
        <ele>186.29801156725</ele>
        <time>2022-04-27T10:12:49.389Z</time>
      </trkpt>
      <trkpt lat="48.5301" lon="7.46746">
        <ele>186.53261341086</ele>
        <time>2022-04-27T10:12:51.810Z</time>
      </trkpt>
      <trkpt lat="48.53113" lon="7.46519">
        <ele>187.01874136649</ele>
        <time>2022-04-27T10:12:54.260Z</time>
      </trkpt>
      <trkpt lat="48.53263" lon="7.46194">
        <ele>187.40436068679</ele>
        <time>2022-04-27T10:12:56.752Z</time>
      </trkpt>
      <trkpt lat="48.53269" lon="7.46185">
        <ele>187.72083429541</ele>
        <time>2022-04-27T10:12:59.246Z</time>
      </trkpt>
      <trkpt lat="48.53275" lon="7.4618">
        <ele>188.03959727248</ele>
        <time>2022-04-27T10:13:01.741Z</time>
      </trkpt>
      <trkpt lat="48.53318" lon="7.46155">
        <ele>188.37060923531</ele>
        <time>2022-04-27T10:13:04.243Z</time>
      </trkpt>
      <trkpt lat="48.53318" lon="7.46155">
        <ele>188.68788687148</ele>
        <time>2022-04-27T10:13:06.745Z</time>
      </trkpt>
      <trkpt lat="48.53362" lon="7.46126">
        <ele>188.9347021549</ele>
        <time>2022-04-27T10:13:09.255Z</time>
      </trkpt>
      <trkpt lat="48.53363" lon="7.46115">
        <ele>189.24902018857</ele>
        <time>2022-04-27T10:13:11.766Z</time>
      </trkpt>
      <trkpt lat="48.53368" lon="7.46112">
        <ele>189.58563769938</ele>
        <time>2022-04-27T10:13:14.278Z</time>
      </trkpt>
      <trkpt lat="48.53386" lon="7.46101">
        <ele>189.99116034665</ele>
        <time>2022-04-27T10:13:16.793Z</time>
      </trkpt>
      <trkpt lat="48.53403" lon="7.46092">
        <ele>190.33709222271</ele>
        <time>2022-04-27T10:13:19.311Z</time>
      </trkpt>
      <trkpt lat="48.53559" lon="7.45991">
        <ele>190.5131869597</ele>
        <time>2022-04-27T10:13:21.856Z</time>
      </trkpt>
      <trkpt lat="48.53617" lon="7.45956">
        <ele>190.8725963016</ele>
        <time>2022-04-27T10:13:24.411Z</time>
      </trkpt>
      <trkpt lat="48.53625" lon="7.4595">
        <ele>191.12928999295</ele>
        <time>2022-04-27T10:13:26.967Z</time>
      </trkpt>
      <trkpt lat="48.53625" lon="7.4595">
        <ele>191.39377373957</ele>
        <time>2022-04-27T10:13:29.523Z</time>
      </trkpt>
      <trkpt lat="48.53672" lon="7.45919">
        <ele>191.68483148122</ele>
        <time>2022-04-27T10:13:32.088Z</time>
      </trkpt>
      <trkpt lat="48.53709" lon="7.45894">
        <ele>191.91406392979</ele>
        <time>2022-04-27T10:13:34.659Z</time>
      </trkpt>
      <trkpt lat="48.53738" lon="7.45877">
        <ele>192.11978733074</ele>
        <time>2022-04-27T10:13:37.235Z</time>
      </trkpt>
      <trkpt lat="48.53755" lon="7.45867">
        <ele>192.40534746202</ele>
        <time>2022-04-27T10:13:39.814Z</time>
      </trkpt>
      <trkpt lat="48.53755" lon="7.45867">
        <ele>192.64530052178</ele>
        <time>2022-04-27T10:13:42.393Z</time>
      </trkpt>
      <trkpt lat="48.53782" lon="7.4585">
        <ele>192.92157412534</ele>
        <time>2022-04-27T10:13:44.977Z</time>
      </trkpt>
      <trkpt lat="48.53782" lon="7.4585">
        <ele>193.15615310153</ele>
        <time>2022-04-27T10:13:47.561Z</time>
      </trkpt>
      <trkpt lat="48.53788" lon="7.45846">
        <ele>193.40766656266</ele>
        <time>2022-04-27T10:13:50.146Z</time>
      </trkpt>
      <trkpt lat="48.53801" lon="7.45832">
        <ele>193.64796768259</ele>
        <time>2022-04-27T10:13:52.733Z</time>
      </trkpt>
      <trkpt lat="48.5381" lon="7.45815">
        <ele>193.88299318415</ele>
        <time>2022-04-27T10:13:55.323Z</time>
      </trkpt>
      <trkpt lat="48.53818" lon="7.45791">
        <ele>194.12370580975</ele>
        <time>2022-04-27T10:13:57.915Z</time>
      </trkpt>
      <trkpt lat="48.53825" lon="7.45765">
        <ele>194.36204965537</ele>
        <time>2022-04-27T10:14:00.511Z</time>
      </trkpt>
      <trkpt lat="48.53826" lon="7.45758">
        <ele>194.5847821171</ele>
        <time>2022-04-27T10:14:03.107Z</time>
      </trkpt>
      <trkpt lat="48.5385" lon="7.4568">
        <ele>194.84303454922</ele>
        <time>2022-04-27T10:14:05.712Z</time>
      </trkpt>
      <trkpt lat="48.53857" lon="7.45643">
        <ele>195.04161599084</ele>
        <time>2022-04-27T10:14:08.321Z</time>
      </trkpt>
      <trkpt lat="48.53858" lon="7.45626">
        <ele>195.25681839927</ele>
        <time>2022-04-27T10:14:10.932Z</time>
      </trkpt>
      <trkpt lat="48.53858" lon="7.45611">
        <ele>195.49112953631</ele>
        <time>2022-04-27T10:14:13.545Z</time>
      </trkpt>
      <trkpt lat="48.53852" lon="7.45576">
        <ele>195.67914450517</ele>
        <time>2022-04-27T10:14:16.162Z</time>
      </trkpt>
      <trkpt lat="48.53852" lon="7.45543">
        <ele>195.89091023094</ele>
        <time>2022-04-27T10:14:18.782Z</time>
      </trkpt>
      <trkpt lat="48.53852" lon="7.45486">
        <ele>196.18525885528</ele>
        <time>2022-04-27T10:14:21.408Z</time>
      </trkpt>
      <trkpt lat="48.53851" lon="7.45453">
        <ele>196.35831839813</ele>
        <time>2022-04-27T10:14:24.038Z</time>
      </trkpt>
      <trkpt lat="48.53852" lon="7.45391">
        <ele>196.41660695003</ele>
        <time>2022-04-27T10:14:26.674Z</time>
      </trkpt>
      <trkpt lat="48.53852" lon="7.45368">
        <ele>196.58040282836</ele>
        <time>2022-04-27T10:14:29.313Z</time>
      </trkpt>
      <trkpt lat="48.53852" lon="7.45368">
        <ele>196.72081530359</ele>
        <time>2022-04-27T10:14:31.952Z</time>
      </trkpt>
      <trkpt lat="48.53854" lon="7.45315">
        <ele>196.9743806233</ele>
        <time>2022-04-27T10:14:34.596Z</time>
      </trkpt>
      <trkpt lat="48.53866" lon="7.45282">
        <ele>197.14721568951</ele>
        <time>2022-04-27T10:14:37.245Z</time>
      </trkpt>
      <trkpt lat="48.53901" lon="7.45235">
        <ele>197.13475965112</ele>
        <time>2022-04-27T10:14:39.901Z</time>
      </trkpt>
      <trkpt lat="48.53911" lon="7.4522">
        <ele>197.19219578004</ele>
        <time>2022-04-27T10:14:42.559Z</time>
      </trkpt>
      <trkpt lat="48.53916" lon="7.45207">
        <ele>197.27682398547</ele>
        <time>2022-04-27T10:14:45.219Z</time>
      </trkpt>
      <trkpt lat="48.53916" lon="7.45207">
        <ele>197.33236668288</ele>
        <time>2022-04-27T10:14:47.879Z</time>
      </trkpt>
      <trkpt lat="48.53919" lon="7.4519">
        <ele>197.40492815517</ele>
        <time>2022-04-27T10:14:50.541Z</time>
      </trkpt>
      <trkpt lat="48.53923" lon="7.45118">
        <ele>197.49521936565</ele>
        <time>2022-04-27T10:14:53.210Z</time>
      </trkpt>
      <trkpt lat="48.53923" lon="7.45112">
        <ele>197.51099794339</ele>
        <time>2022-04-27T10:14:55.880Z</time>
      </trkpt>
      <trkpt lat="48.53924" lon="7.45055">
        <ele>197.46023515267</ele>
        <time>2022-04-27T10:14:58.556Z</time>
      </trkpt>
      <trkpt lat="48.53924" lon="7.45055">
        <ele>197.44154114503</ele>
        <time>2022-04-27T10:15:01.232Z</time>
      </trkpt>
      <trkpt lat="48.53923" lon="7.44995">
        <ele>197.33982816111</ele>
        <time>2022-04-27T10:15:03.914Z</time>
      </trkpt>
      <trkpt lat="48.53923" lon="7.44936">
        <ele>197.39419026584</ele>
        <time>2022-04-27T10:15:06.603Z</time>
      </trkpt>
      <trkpt lat="48.53925" lon="7.44916">
        <ele>197.31620842781</ele>
        <time>2022-04-27T10:15:09.294Z</time>
      </trkpt>
      <trkpt lat="48.53927" lon="7.44767">
        <ele>197.26004364456</ele>
        <time>2022-04-27T10:15:12.001Z</time>
      </trkpt>
      <trkpt lat="48.53928" lon="7.44727">
        <ele>197.18799966253</ele>
        <time>2022-04-27T10:15:14.712Z</time>
      </trkpt>
      <trkpt lat="48.53928" lon="7.44727">
        <ele>197.10706810754</ele>
        <time>2022-04-27T10:15:17.423Z</time>
      </trkpt>
      <trkpt lat="48.53928" lon="7.44654">
        <ele>197.02328905133</ele>
        <time>2022-04-27T10:15:20.142Z</time>
      </trkpt>
      <trkpt lat="48.53929" lon="7.44595">
        <ele>196.97958081286</ele>
        <time>2022-04-27T10:15:22.867Z</time>
      </trkpt>
      <trkpt lat="48.5392" lon="7.44593">
        <ele>196.70276834748</ele>
        <time>2022-04-27T10:15:25.594Z</time>
      </trkpt>
      <trkpt lat="48.53841" lon="7.44511">
        <ele>196.49201148509</ele>
        <time>2022-04-27T10:15:28.336Z</time>
      </trkpt>
      <trkpt lat="48.53832" lon="7.44509">
        <ele>196.40032732941</ele>
        <time>2022-04-27T10:15:31.079Z</time>
      </trkpt>
      <trkpt lat="48.53827" lon="7.44495">
        <ele>196.31332747186</ele>
        <time>2022-04-27T10:15:33.824Z</time>
      </trkpt>
      <trkpt lat="48.53821" lon="7.44469">
        <ele>196.25118372865</ele>
        <time>2022-04-27T10:15:36.572Z</time>
      </trkpt>
      <trkpt lat="48.53819" lon="7.44456">
        <ele>196.21170016876</ele>
        <time>2022-04-27T10:15:39.322Z</time>
      </trkpt>
      <trkpt lat="48.53804" lon="7.44388">
        <ele>196.23569965435</ele>
        <time>2022-04-27T10:15:42.079Z</time>
      </trkpt>
      <trkpt lat="48.53799" lon="7.44362">
        <ele>196.21911773069</ele>
        <time>2022-04-27T10:15:44.839Z</time>
      </trkpt>
      <trkpt lat="48.5379" lon="7.44221">
        <ele>196.42576017702</ele>
        <time>2022-04-27T10:15:47.614Z</time>
      </trkpt>
      <trkpt lat="48.53784" lon="7.4416">
        <ele>196.47466289757</ele>
        <time>2022-04-27T10:15:50.396Z</time>
      </trkpt>
      <trkpt lat="48.53772" lon="7.4404">
        <ele>196.26232412932</ele>
        <time>2022-04-27T10:15:53.190Z</time>
      </trkpt>
      <trkpt lat="48.5376" lon="7.43936">
        <ele>196.36816649837</ele>
        <time>2022-04-27T10:15:55.996Z</time>
      </trkpt>
      <trkpt lat="48.5376" lon="7.43913">
        <ele>196.41012712689</ele>
        <time>2022-04-27T10:15:58.804Z</time>
      </trkpt>
      <trkpt lat="48.53753" lon="7.43905">
        <ele>196.45076850948</ele>
        <time>2022-04-27T10:16:01.613Z</time>
      </trkpt>
      <trkpt lat="48.53764" lon="7.43868">
        <ele>196.55995132538</ele>
        <time>2022-04-27T10:16:04.427Z</time>
      </trkpt>
      <trkpt lat="48.53777" lon="7.43855">
        <ele>196.66107835419</ele>
        <time>2022-04-27T10:16:07.243Z</time>
      </trkpt>
      <trkpt lat="48.5379" lon="7.43844">
        <ele>196.74263163593</ele>
        <time>2022-04-27T10:16:10.062Z</time>
      </trkpt>
      <trkpt lat="48.53809" lon="7.43839">
        <ele>196.79696006594</ele>
        <time>2022-04-27T10:16:12.884Z</time>
      </trkpt>
      <trkpt lat="48.53828" lon="7.43839">
        <ele>196.87556978614</ele>
        <time>2022-04-27T10:16:15.709Z</time>
      </trkpt>
      <trkpt lat="48.53827" lon="7.43831">
        <ele>196.96911152461</ele>
        <time>2022-04-27T10:16:18.535Z</time>
      </trkpt>
      <trkpt lat="48.53824" lon="7.43821">
        <ele>197.0672877489</ele>
        <time>2022-04-27T10:16:21.362Z</time>
      </trkpt>
      <trkpt lat="48.53816" lon="7.43815">
        <ele>197.15118734006</ele>
        <time>2022-04-27T10:16:24.190Z</time>
      </trkpt>
      <trkpt lat="48.53808" lon="7.4381">
        <ele>197.22996471703</ele>
        <time>2022-04-27T10:16:27.020Z</time>
      </trkpt>
      <trkpt lat="48.53809" lon="7.43792">
        <ele>197.32789653227</ele>
        <time>2022-04-27T10:16:29.852Z</time>
      </trkpt>
      <trkpt lat="48.53788" lon="7.43764">
        <ele>197.40084635856</ele>
        <time>2022-04-27T10:16:32.688Z</time>
      </trkpt>
      <trkpt lat="48.53746" lon="7.43711">
        <ele>197.37515093677</ele>
        <time>2022-04-27T10:16:35.533Z</time>
      </trkpt>
      <trkpt lat="48.5373" lon="7.43707">
        <ele>197.45190122864</ele>
        <time>2022-04-27T10:16:38.381Z</time>
      </trkpt>
      <trkpt lat="48.53723" lon="7.4371">
        <ele>197.48528763581</ele>
        <time>2022-04-27T10:16:41.230Z</time>
      </trkpt>
      <trkpt lat="48.53719" lon="7.43725">
        <ele>197.45627408318</ele>
        <time>2022-04-27T10:16:44.080Z</time>
      </trkpt>
      <trkpt lat="48.53722" lon="7.43741">
        <ele>197.44678981559</ele>
        <time>2022-04-27T10:16:46.932Z</time>
      </trkpt>
      <trkpt lat="48.53734" lon="7.43749">
        <ele>197.46066539274</ele>
        <time>2022-04-27T10:16:49.786Z</time>
      </trkpt>
      <trkpt lat="48.53742" lon="7.43745">
        <ele>197.47675763192</ele>
        <time>2022-04-27T10:16:52.642Z</time>
      </trkpt>
      <trkpt lat="48.5375" lon="7.43738">
        <ele>197.4602660915</ele>
        <time>2022-04-27T10:16:55.499Z</time>
      </trkpt>
      <trkpt lat="48.53754" lon="7.43731">
        <ele>197.42865974445</ele>
        <time>2022-04-27T10:16:58.357Z</time>
      </trkpt>
      <trkpt lat="48.53763" lon="7.43708">
        <ele>197.38630320981</ele>
        <time>2022-04-27T10:17:01.218Z</time>
      </trkpt>
      <trkpt lat="48.53768" lon="7.43671">
        <ele>197.37561926175</ele>
        <time>2022-04-27T10:17:04.083Z</time>
      </trkpt>
      <trkpt lat="48.53766" lon="7.43633">
        <ele>197.45897347915</ele>
        <time>2022-04-27T10:17:06.952Z</time>
      </trkpt>
      <trkpt lat="48.53766" lon="7.43633">
        <ele>197.42733978247</ele>
        <time>2022-04-27T10:17:09.821Z</time>
      </trkpt>
      <trkpt lat="48.53764" lon="7.43622">
        <ele>197.37693899271</ele>
        <time>2022-04-27T10:17:12.691Z</time>
      </trkpt>
      <trkpt lat="48.53762" lon="7.43606">
        <ele>197.33611685361</ele>
        <time>2022-04-27T10:17:15.563Z</time>
      </trkpt>
      <trkpt lat="48.53761" lon="7.43589">
        <ele>197.27477398838</ele>
        <time>2022-04-27T10:17:18.437Z</time>
      </trkpt>
      <trkpt lat="48.53759" lon="7.43579">
        <ele>197.24302798753</ele>
        <time>2022-04-27T10:17:21.312Z</time>
      </trkpt>
      <trkpt lat="48.53743" lon="7.43522">
        <ele>197.18341862353</ele>
        <time>2022-04-27T10:17:24.193Z</time>
      </trkpt>
      <trkpt lat="48.53735" lon="7.43522">
        <ele>197.15881115941</ele>
        <time>2022-04-27T10:17:27.076Z</time>
      </trkpt>
      <trkpt lat="48.53727" lon="7.43495">
        <ele>197.10392663144</ele>
        <time>2022-04-27T10:17:29.962Z</time>
      </trkpt>
      <trkpt lat="48.53728" lon="7.43473">
        <ele>197.12509581201</ele>
        <time>2022-04-27T10:17:32.850Z</time>
      </trkpt>
      <trkpt lat="48.53705" lon="7.43426">
        <ele>197.15074325223</ele>
        <time>2022-04-27T10:17:35.744Z</time>
      </trkpt>
      <trkpt lat="48.53678" lon="7.43375">
        <ele>197.22170081053</ele>
        <time>2022-04-27T10:17:38.645Z</time>
      </trkpt>
      <trkpt lat="48.53666" lon="7.43354">
        <ele>197.29259795727</ele>
        <time>2022-04-27T10:17:41.549Z</time>
      </trkpt>
      <trkpt lat="48.53646" lon="7.43323">
        <ele>197.39713559032</ele>
        <time>2022-04-27T10:17:44.458Z</time>
      </trkpt>
      <trkpt lat="48.53646" lon="7.43323">
        <ele>197.52458904901</ele>
        <time>2022-04-27T10:17:47.367Z</time>
      </trkpt>
      <trkpt lat="48.53611" lon="7.4328">
        <ele>197.68824662538</ele>
        <time>2022-04-27T10:17:50.283Z</time>
      </trkpt>
      <trkpt lat="48.53586" lon="7.4325">
        <ele>197.89820691248</ele>
        <time>2022-04-27T10:17:53.204Z</time>
      </trkpt>
      <trkpt lat="48.53582" lon="7.4324">
        <ele>198.10284392204</ele>
        <time>2022-04-27T10:17:56.126Z</time>
      </trkpt>
      <trkpt lat="48.53566" lon="7.43154">
        <ele>198.37507460186</ele>
        <time>2022-04-27T10:17:59.058Z</time>
      </trkpt>
      <trkpt lat="48.53563" lon="7.43147">
        <ele>198.6057345315</ele>
        <time>2022-04-27T10:18:01.991Z</time>
      </trkpt>
      <trkpt lat="48.5356" lon="7.43141">
        <ele>198.85207910239</ele>
        <time>2022-04-27T10:18:04.925Z</time>
      </trkpt>
      <trkpt lat="48.53544" lon="7.4313">
        <ele>199.13352577399</ele>
        <time>2022-04-27T10:18:07.861Z</time>
      </trkpt>
      <trkpt lat="48.53544" lon="7.4313">
        <ele>199.38084170577</ele>
        <time>2022-04-27T10:18:10.797Z</time>
      </trkpt>
      <trkpt lat="48.53521" lon="7.43096">
        <ele>199.6703785739</ele>
        <time>2022-04-27T10:18:13.739Z</time>
      </trkpt>
      <trkpt lat="48.53521" lon="7.43096">
        <ele>199.91917613069</ele>
        <time>2022-04-27T10:18:16.681Z</time>
      </trkpt>
      <trkpt lat="48.53509" lon="7.43085">
        <ele>200.16437782303</ele>
        <time>2022-04-27T10:18:19.625Z</time>
      </trkpt>
      <trkpt lat="48.53495" lon="7.43075">
        <ele>200.40719109764</ele>
        <time>2022-04-27T10:18:22.571Z</time>
      </trkpt>
      <trkpt lat="48.53488" lon="7.43065">
        <ele>200.65664496473</ele>
        <time>2022-04-27T10:18:25.519Z</time>
      </trkpt>
      <trkpt lat="48.53485" lon="7.43053">
        <ele>200.89887187283</ele>
        <time>2022-04-27T10:18:28.468Z</time>
      </trkpt>
      <trkpt lat="48.53485" lon="7.43038">
        <ele>201.13335532</ele>
        <time>2022-04-27T10:18:31.419Z</time>
      </trkpt>
      <trkpt lat="48.53487" lon="7.43026">
        <ele>201.34625478959</ele>
        <time>2022-04-27T10:18:34.371Z</time>
      </trkpt>
      <trkpt lat="48.53489" lon="7.43021">
        <ele>201.51517875744</ele>
        <time>2022-04-27T10:18:37.324Z</time>
      </trkpt>
      <trkpt lat="48.53506" lon="7.4296">
        <ele>201.62536496132</ele>
        <time>2022-04-27T10:18:40.284Z</time>
      </trkpt>
      <trkpt lat="48.5351" lon="7.42936">
        <ele>201.71824493712</ele>
        <time>2022-04-27T10:18:43.246Z</time>
      </trkpt>
      <trkpt lat="48.53516" lon="7.42909">
        <ele>201.81139178098</ele>
        <time>2022-04-27T10:18:46.212Z</time>
      </trkpt>
      <trkpt lat="48.53531" lon="7.42865">
        <ele>201.87010899387</ele>
        <time>2022-04-27T10:18:49.183Z</time>
      </trkpt>
      <trkpt lat="48.53531" lon="7.42865">
        <ele>201.93094020438</ele>
        <time>2022-04-27T10:18:52.154Z</time>
      </trkpt>
      <trkpt lat="48.53549" lon="7.42792">
        <ele>202.05137139272</ele>
        <time>2022-04-27T10:18:55.133Z</time>
      </trkpt>
      <trkpt lat="48.53581" lon="7.426">
        <ele>202.00471374417</ele>
        <time>2022-04-27T10:18:58.133Z</time>
      </trkpt>
      <trkpt lat="48.53582" lon="7.42574">
        <ele>202.02321379508</ele>
        <time>2022-04-27T10:19:01.136Z</time>
      </trkpt>
      <trkpt lat="48.53582" lon="7.42574">
        <ele>201.9793745036</ele>
        <time>2022-04-27T10:19:04.139Z</time>
      </trkpt>
      <trkpt lat="48.53581" lon="7.42566">
        <ele>201.90882715465</ele>
        <time>2022-04-27T10:19:07.143Z</time>
      </trkpt>
      <trkpt lat="48.53575" lon="7.42557">
        <ele>201.81726627785</ele>
        <time>2022-04-27T10:19:10.148Z</time>
      </trkpt>
      <trkpt lat="48.53554" lon="7.42531">
        <ele>201.7220309119</ele>
        <time>2022-04-27T10:19:13.157Z</time>
      </trkpt>
      <trkpt lat="48.5354" lon="7.42516">
        <ele>201.53904442067</ele>
        <time>2022-04-27T10:19:16.169Z</time>
      </trkpt>
      <trkpt lat="48.5354" lon="7.42516">
        <ele>201.34498405226</ele>
        <time>2022-04-27T10:19:19.181Z</time>
      </trkpt>
      <trkpt lat="48.53507" lon="7.42479">
        <ele>201.04077283663</ele>
        <time>2022-04-27T10:19:22.200Z</time>
      </trkpt>
      <trkpt lat="48.53454" lon="7.42431">
        <ele>200.84895090683</ele>
        <time>2022-04-27T10:19:25.229Z</time>
      </trkpt>
      <trkpt lat="48.53434" lon="7.42405">
        <ele>200.55856688321</ele>
        <time>2022-04-27T10:19:28.262Z</time>
      </trkpt>
      <trkpt lat="48.53399" lon="7.42353">
        <ele>200.32758294959</ele>
        <time>2022-04-27T10:19:31.303Z</time>
      </trkpt>
      <trkpt lat="48.53385" lon="7.42328">
        <ele>200.08931087653</ele>
        <time>2022-04-27T10:19:34.347Z</time>
      </trkpt>
      <trkpt lat="48.53369" lon="7.4231">
        <ele>199.77154586574</ele>
        <time>2022-04-27T10:19:37.394Z</time>
      </trkpt>
      <trkpt lat="48.53346" lon="7.42292">
        <ele>199.35413194386</ele>
        <time>2022-04-27T10:19:40.446Z</time>
      </trkpt>
      <trkpt lat="48.53327" lon="7.42279">
        <ele>198.91706786718</ele>
        <time>2022-04-27T10:19:43.501Z</time>
      </trkpt>
      <trkpt lat="48.53324" lon="7.42277">
        <ele>198.51658229264</ele>
        <time>2022-04-27T10:19:46.556Z</time>
      </trkpt>
      <trkpt lat="48.53299" lon="7.42261">
        <ele>198.10425287658</ele>
        <time>2022-04-27T10:19:49.616Z</time>
      </trkpt>
      <trkpt lat="48.53287" lon="7.42247">
        <ele>197.69296966453</ele>
        <time>2022-04-27T10:19:52.678Z</time>
      </trkpt>
      <trkpt lat="48.53278" lon="7.42231">
        <ele>197.34016192303</ele>
        <time>2022-04-27T10:19:55.742Z</time>
      </trkpt>
      <trkpt lat="48.53271" lon="7.42207">
        <ele>197.05920543305</ele>
        <time>2022-04-27T10:19:58.809Z</time>
      </trkpt>
      <trkpt lat="48.53268" lon="7.42191">
        <ele>196.78690944494</ele>
        <time>2022-04-27T10:20:01.878Z</time>
      </trkpt>
      <trkpt lat="48.53271" lon="7.42155">
        <ele>196.52343434222</ele>
        <time>2022-04-27T10:20:04.951Z</time>
      </trkpt>
      <trkpt lat="48.53299" lon="7.41947">
        <ele>196.25731745681</ele>
        <time>2022-04-27T10:20:08.046Z</time>
      </trkpt>
      <trkpt lat="48.53298" lon="7.4193">
        <ele>196.13673087352</ele>
        <time>2022-04-27T10:20:11.143Z</time>
      </trkpt>
      <trkpt lat="48.53295" lon="7.41914">
        <ele>196.10514851042</ele>
        <time>2022-04-27T10:20:14.242Z</time>
      </trkpt>
      <trkpt lat="48.53288" lon="7.41898">
        <ele>196.1465278066</ele>
        <time>2022-04-27T10:20:17.343Z</time>
      </trkpt>
      <trkpt lat="48.53283" lon="7.41892">
        <ele>196.32655781394</ele>
        <time>2022-04-27T10:20:20.445Z</time>
      </trkpt>
      <trkpt lat="48.53268" lon="7.4188">
        <ele>196.63006439056</ele>
        <time>2022-04-27T10:20:23.550Z</time>
      </trkpt>
      <trkpt lat="48.53253" lon="7.41875">
        <ele>197.09726438146</ele>
        <time>2022-04-27T10:20:26.657Z</time>
      </trkpt>
      <trkpt lat="48.53042" lon="7.4186">
        <ele>198.03472468392</ele>
        <time>2022-04-27T10:20:29.798Z</time>
      </trkpt>
      <trkpt lat="48.53023" lon="7.41857">
        <ele>198.85218027868</ele>
        <time>2022-04-27T10:20:32.942Z</time>
      </trkpt>
      <trkpt lat="48.53002" lon="7.41849">
        <ele>199.86785896357</ele>
        <time>2022-04-27T10:20:36.090Z</time>
      </trkpt>
      <trkpt lat="48.52971" lon="7.41825">
        <ele>201.07454486488</ele>
        <time>2022-04-27T10:20:39.243Z</time>
      </trkpt>
      <trkpt lat="48.52956" lon="7.41806">
        <ele>202.43742417372</ele>
        <time>2022-04-27T10:20:42.399Z</time>
      </trkpt>
      <trkpt lat="48.52942" lon="7.41783">
        <ele>204.06517601105</ele>
        <time>2022-04-27T10:20:45.559Z</time>
      </trkpt>
      <trkpt lat="48.52899" lon="7.4169">
        <ele>206.1410506403</ele>
        <time>2022-04-27T10:20:48.731Z</time>
      </trkpt>
      <trkpt lat="48.52895" lon="7.41681">
        <ele>208.22117746951</ele>
        <time>2022-04-27T10:20:51.904Z</time>
      </trkpt>
      <trkpt lat="48.52895" lon="7.41681">
        <ele>210.51794390827</ele>
        <time>2022-04-27T10:20:55.077Z</time>
      </trkpt>
      <trkpt lat="48.52821" lon="7.41522">
        <ele>213.61618351482</ele>
        <time>2022-04-27T10:20:58.270Z</time>
      </trkpt>
      <trkpt lat="48.52816" lon="7.41508">
        <ele>216.41925314795</ele>
        <time>2022-04-27T10:21:01.465Z</time>
      </trkpt>
      <trkpt lat="48.52791" lon="7.41461">
        <ele>219.55738546355</ele>
        <time>2022-04-27T10:21:04.667Z</time>
      </trkpt>
      <trkpt lat="48.52785" lon="7.41451">
        <ele>222.81361271705</ele>
        <time>2022-04-27T10:21:07.870Z</time>
      </trkpt>
      <trkpt lat="48.52771" lon="7.41434">
        <ele>226.31974428234</ele>
        <time>2022-04-27T10:21:11.076Z</time>
      </trkpt>
      <trkpt lat="48.52756" lon="7.41419">
        <ele>230.04491965774</ele>
        <time>2022-04-27T10:21:14.285Z</time>
      </trkpt>
      <trkpt lat="48.52747" lon="7.41414">
        <ele>233.94236089871</ele>
        <time>2022-04-27T10:21:17.495Z</time>
      </trkpt>
      <trkpt lat="48.52747" lon="7.41414">
        <ele>238.02082446894</ele>
        <time>2022-04-27T10:21:20.705Z</time>
      </trkpt>
      <trkpt lat="48.52729" lon="7.41403">
        <ele>242.33074717793</ele>
        <time>2022-04-27T10:21:23.918Z</time>
      </trkpt>
      <trkpt lat="48.52701" lon="7.41395">
        <ele>246.80307536012</ele>
        <time>2022-04-27T10:21:27.136Z</time>
      </trkpt>
      <trkpt lat="48.52663" lon="7.41389">
        <ele>251.41369246413</ele>
        <time>2022-04-27T10:21:30.360Z</time>
      </trkpt>
      <trkpt lat="48.526" lon="7.41385">
        <ele>256.4870418071</ele>
        <time>2022-04-27T10:21:33.594Z</time>
      </trkpt>
      <trkpt lat="48.52565" lon="7.41378">
        <ele>261.53519123424</ele>
        <time>2022-04-27T10:21:36.834Z</time>
      </trkpt>
      <trkpt lat="48.52051" lon="7.41215">
        <ele>267.59316008942</ele>
        <time>2022-04-27T10:21:40.158Z</time>
      </trkpt>
      <trkpt lat="48.52051" lon="7.41215">
        <ele>272.4095952758</ele>
        <time>2022-04-27T10:21:43.482Z</time>
      </trkpt>
      <trkpt lat="48.52024" lon="7.41199">
        <ele>277.14328870213</ele>
        <time>2022-04-27T10:21:46.811Z</time>
      </trkpt>
      <trkpt lat="48.51983" lon="7.41159">
        <ele>282.15046079577</ele>
        <time>2022-04-27T10:21:50.147Z</time>
      </trkpt>
      <trkpt lat="48.51535" lon="7.4076">
        <ele>288.17326083095</ele>
        <time>2022-04-27T10:21:53.567Z</time>
      </trkpt>
      <trkpt lat="48.51535" lon="7.4076">
        <ele>292.45017199896</ele>
        <time>2022-04-27T10:21:56.987Z</time>
      </trkpt>
      <trkpt lat="48.51478" lon="7.40704">
        <ele>297.09176760935</ele>
        <time>2022-04-27T10:22:00.418Z</time>
      </trkpt>
      <trkpt lat="48.51344" lon="7.40532">
        <ele>301.13960755605</ele>
        <time>2022-04-27T10:22:03.877Z</time>
      </trkpt>
      <trkpt lat="48.51169" lon="7.40377">
        <ele>304.17829253774</ele>
        <time>2022-04-27T10:22:07.368Z</time>
      </trkpt>
      <trkpt lat="48.51129" lon="7.40336">
        <ele>307.16579192499</ele>
        <time>2022-04-27T10:22:10.867Z</time>
      </trkpt>
      <trkpt lat="48.51071" lon="7.40276">
        <ele>309.70740979289</ele>
        <time>2022-04-27T10:22:14.377Z</time>
      </trkpt>
      <trkpt lat="48.51071" lon="7.40276">
        <ele>311.92335832144</ele>
        <time>2022-04-27T10:22:17.887Z</time>
      </trkpt>
      <trkpt lat="48.50911" lon="7.40112">
        <ele>314.5165221787</ele>
        <time>2022-04-27T10:22:21.428Z</time>
      </trkpt>
      <trkpt lat="48.50867" lon="7.40042">
        <ele>316.16572437485</ele>
        <time>2022-04-27T10:22:24.980Z</time>
      </trkpt>
      <trkpt lat="48.50832" lon="7.39964">
        <ele>317.26894705937</ele>
        <time>2022-04-27T10:22:28.542Z</time>
      </trkpt>
      <trkpt lat="48.5077" lon="7.39807">
        <ele>317.92017413155</ele>
        <time>2022-04-27T10:22:32.123Z</time>
      </trkpt>
      <trkpt lat="48.5076" lon="7.39784">
        <ele>317.98616611628</ele>
        <time>2022-04-27T10:22:35.707Z</time>
      </trkpt>
      <trkpt lat="48.50715" lon="7.39708">
        <ele>317.52894436086</ele>
        <time>2022-04-27T10:22:39.302Z</time>
      </trkpt>
      <trkpt lat="48.50619" lon="7.39589">
        <ele>317.05083552766</ele>
        <time>2022-04-27T10:22:42.917Z</time>
      </trkpt>
      <trkpt lat="48.5058" lon="7.3953">
        <ele>315.92110727972</ele>
        <time>2022-04-27T10:22:46.541Z</time>
      </trkpt>
      <trkpt lat="48.5053" lon="7.39402">
        <ele>314.53981791443</ele>
        <time>2022-04-27T10:22:50.180Z</time>
      </trkpt>
      <trkpt lat="48.505" lon="7.39347">
        <ele>312.91283904266</ele>
        <time>2022-04-27T10:22:53.827Z</time>
      </trkpt>
      <trkpt lat="48.50469" lon="7.39304">
        <ele>311.11690726301</ele>
        <time>2022-04-27T10:22:57.481Z</time>
      </trkpt>
      <trkpt lat="48.50407" lon="7.39245">
        <ele>309.44700318046</ele>
        <time>2022-04-27T10:23:01.146Z</time>
      </trkpt>
      <trkpt lat="48.50314" lon="7.39182">
        <ele>307.6710024743</ele>
        <time>2022-04-27T10:23:04.828Z</time>
      </trkpt>
      <trkpt lat="48.50148" lon="7.39125">
        <ele>305.27183807404</ele>
        <time>2022-04-27T10:23:08.537Z</time>
      </trkpt>
      <trkpt lat="48.501" lon="7.39103">
        <ele>303.38333028581</ele>
        <time>2022-04-27T10:23:12.254Z</time>
      </trkpt>
      <trkpt lat="48.50087" lon="7.39099">
        <ele>301.96289905648</ele>
        <time>2022-04-27T10:23:15.973Z</time>
      </trkpt>
      <trkpt lat="48.50087" lon="7.39099">
        <ele>300.65890009329</ele>
        <time>2022-04-27T10:23:19.692Z</time>
      </trkpt>
      <trkpt lat="48.50077" lon="7.39097">
        <ele>299.55610125078</ele>
        <time>2022-04-27T10:23:23.413Z</time>
      </trkpt>
      <trkpt lat="48.50077" lon="7.39097">
        <ele>298.69788284162</ele>
        <time>2022-04-27T10:23:27.134Z</time>
      </trkpt>
      <trkpt lat="48.49956" lon="7.39141">
        <ele>298.28462316528</ele>
        <time>2022-04-27T10:23:30.875Z</time>
      </trkpt>
      <trkpt lat="48.49917" lon="7.39161">
        <ele>298.05826980331</ele>
        <time>2022-04-27T10:23:34.622Z</time>
      </trkpt>
      <trkpt lat="48.49852" lon="7.39208">
        <ele>298.14086168869</ele>
        <time>2022-04-27T10:23:38.381Z</time>
      </trkpt>
      <trkpt lat="48.49818" lon="7.39244">
        <ele>298.44583675381</ele>
        <time>2022-04-27T10:23:42.147Z</time>
      </trkpt>
      <trkpt lat="48.49777" lon="7.39281">
        <ele>298.93206345338</ele>
        <time>2022-04-27T10:23:45.920Z</time>
      </trkpt>
      <trkpt lat="48.49777" lon="7.39281">
        <ele>299.92826579595</ele>
        <time>2022-04-27T10:23:49.693Z</time>
      </trkpt>
      <trkpt lat="48.49757" lon="7.39303">
        <ele>301.18002404891</ele>
        <time>2022-04-27T10:23:53.470Z</time>
      </trkpt>
      <trkpt lat="48.49719" lon="7.39325">
        <ele>302.79234438034</ele>
        <time>2022-04-27T10:23:57.254Z</time>
      </trkpt>
      <trkpt lat="48.49484" lon="7.39425">
        <ele>305.60681165428</ele>
        <time>2022-04-27T10:24:01.077Z</time>
      </trkpt>
      <trkpt lat="48.49427" lon="7.39454">
        <ele>307.9515187087</ele>
        <time>2022-04-27T10:24:04.909Z</time>
      </trkpt>
      <trkpt lat="48.4935" lon="7.39515">
        <ele>310.7923752458</ele>
        <time>2022-04-27T10:24:08.755Z</time>
      </trkpt>
      <trkpt lat="48.49229" lon="7.3965">
        <ele>314.26874936805</ele>
        <time>2022-04-27T10:24:12.626Z</time>
      </trkpt>
      <trkpt lat="48.49218" lon="7.39668">
        <ele>317.30407899889</ele>
        <time>2022-04-27T10:24:16.499Z</time>
      </trkpt>
      <trkpt lat="48.49209" lon="7.39699">
        <ele>320.43615000261</ele>
        <time>2022-04-27T10:24:20.376Z</time>
      </trkpt>
      <trkpt lat="48.49194" lon="7.39789">
        <ele>323.86160314871</ele>
        <time>2022-04-27T10:24:24.263Z</time>
      </trkpt>
      <trkpt lat="48.49183" lon="7.39812">
        <ele>327.26249990944</ele>
        <time>2022-04-27T10:24:28.153Z</time>
      </trkpt>
      <trkpt lat="48.49173" lon="7.39823">
        <ele>330.65011275771</ele>
        <time>2022-04-27T10:24:32.045Z</time>
      </trkpt>
      <trkpt lat="48.49173" lon="7.39823">
        <ele>333.96143385939</ele>
        <time>2022-04-27T10:24:35.937Z</time>
      </trkpt>
      <trkpt lat="48.49146" lon="7.39826">
        <ele>337.34800862193</ele>
        <time>2022-04-27T10:24:39.833Z</time>
      </trkpt>
      <trkpt lat="48.49121" lon="7.39837">
        <ele>340.72937569908</ele>
        <time>2022-04-27T10:24:43.733Z</time>
      </trkpt>
      <trkpt lat="48.49029" lon="7.39898">
        <ele>344.64699359434</ele>
        <time>2022-04-27T10:24:47.649Z</time>
      </trkpt>
      <trkpt lat="48.49024" lon="7.39901">
        <ele>347.77056906299</ele>
        <time>2022-04-27T10:24:51.566Z</time>
      </trkpt>
      <trkpt lat="48.48983" lon="7.39926">
        <ele>350.96103322356</ele>
        <time>2022-04-27T10:24:55.490Z</time>
      </trkpt>
      <trkpt lat="48.48971" lon="7.39939">
        <ele>353.84768992522</ele>
        <time>2022-04-27T10:24:59.416Z</time>
      </trkpt>
      <trkpt lat="48.48965" lon="7.3995">
        <ele>356.57027169557</ele>
        <time>2022-04-27T10:25:03.344Z</time>
      </trkpt>
      <trkpt lat="48.48954" lon="7.3994">
        <ele>359.06620720737</ele>
        <time>2022-04-27T10:25:07.274Z</time>
      </trkpt>
      <trkpt lat="48.48926" lon="7.39893">
        <ele>361.46457425079</ele>
        <time>2022-04-27T10:25:11.211Z</time>
      </trkpt>
      <trkpt lat="48.48919" lon="7.39887">
        <ele>363.5832258983</ele>
        <time>2022-04-27T10:25:15.149Z</time>
      </trkpt>
      <trkpt lat="48.48908" lon="7.39887">
        <ele>365.50081567482</ele>
        <time>2022-04-27T10:25:19.089Z</time>
      </trkpt>
      <trkpt lat="48.48907" lon="7.3991">
        <ele>367.13003543316</ele>
        <time>2022-04-27T10:25:23.031Z</time>
      </trkpt>
      <trkpt lat="48.48905" lon="7.39921">
        <ele>368.61064290944</ele>
        <time>2022-04-27T10:25:26.974Z</time>
      </trkpt>
      <trkpt lat="48.48893" lon="7.39956">
        <ele>369.93781045208</ele>
        <time>2022-04-27T10:25:30.922Z</time>
      </trkpt>
      <trkpt lat="48.48887" lon="7.39966">
        <ele>371.002048841</ele>
        <time>2022-04-27T10:25:34.871Z</time>
      </trkpt>
      <trkpt lat="48.48876" lon="7.39979">
        <ele>371.92120007582</ele>
        <time>2022-04-27T10:25:38.822Z</time>
      </trkpt>
      <trkpt lat="48.48838" lon="7.40006">
        <ele>372.71887502906</ele>
        <time>2022-04-27T10:25:42.780Z</time>
      </trkpt>
      <trkpt lat="48.48798" lon="7.40033">
        <ele>373.28363669299</ele>
        <time>2022-04-27T10:25:46.745Z</time>
      </trkpt>
      <trkpt lat="48.48719" lon="7.4009">
        <ele>373.39182404447</ele>
        <time>2022-04-27T10:25:50.724Z</time>
      </trkpt>
      <trkpt lat="48.4869" lon="7.40107">
        <ele>373.54194389707</ele>
        <time>2022-04-27T10:25:54.708Z</time>
      </trkpt>
      <trkpt lat="48.4869" lon="7.40107">
        <ele>373.60302902318</ele>
        <time>2022-04-27T10:25:58.692Z</time>
      </trkpt>
      <trkpt lat="48.48657" lon="7.40117">
        <ele>373.47962186928</ele>
        <time>2022-04-27T10:26:02.681Z</time>
      </trkpt>
      <trkpt lat="48.48621" lon="7.40121">
        <ele>373.2634335015</ele>
        <time>2022-04-27T10:26:06.676Z</time>
      </trkpt>
      <trkpt lat="48.48579" lon="7.40122">
        <ele>373.08363265491</ele>
        <time>2022-04-27T10:26:10.678Z</time>
      </trkpt>
      <trkpt lat="48.48473" lon="7.40119">
        <ele>372.75256674323</ele>
        <time>2022-04-27T10:26:14.697Z</time>
      </trkpt>
      <trkpt lat="48.4844" lon="7.40123">
        <ele>372.26847915665</ele>
        <time>2022-04-27T10:26:18.721Z</time>
      </trkpt>
      <trkpt lat="48.48393" lon="7.40135">
        <ele>371.72624879408</ele>
        <time>2022-04-27T10:26:22.753Z</time>
      </trkpt>
      <trkpt lat="48.48316" lon="7.40155">
        <ele>371.06592217868</ele>
        <time>2022-04-27T10:26:26.797Z</time>
      </trkpt>
      <trkpt lat="48.48232" lon="7.40181">
        <ele>370.10519273105</ele>
        <time>2022-04-27T10:26:30.855Z</time>
      </trkpt>
      <trkpt lat="48.48232" lon="7.40181">
        <ele>369.30550446792</ele>
        <time>2022-04-27T10:26:34.913Z</time>
      </trkpt>
      <trkpt lat="48.48159" lon="7.40205">
        <ele>368.17489540824</ele>
        <time>2022-04-27T10:26:38.983Z</time>
      </trkpt>
      <trkpt lat="48.48125" lon="7.40224">
        <ele>367.12520611518</ele>
        <time>2022-04-27T10:26:43.059Z</time>
      </trkpt>
      <trkpt lat="48.48097" lon="7.40255">
        <ele>366.15200921669</ele>
        <time>2022-04-27T10:26:47.140Z</time>
      </trkpt>
      <trkpt lat="48.48063" lon="7.40317">
        <ele>365.23489490546</ele>
        <time>2022-04-27T10:26:51.230Z</time>
      </trkpt>
      <trkpt lat="48.48055" lon="7.40334">
        <ele>364.20205528574</ele>
        <time>2022-04-27T10:26:55.322Z</time>
      </trkpt>
      <trkpt lat="48.48055" lon="7.40334">
        <ele>363.1362502177</ele>
        <time>2022-04-27T10:26:59.414Z</time>
      </trkpt>
      <trkpt lat="48.48042" lon="7.40365">
        <ele>362.00469420915</ele>
        <time>2022-04-27T10:27:03.510Z</time>
      </trkpt>
      <trkpt lat="48.4802" lon="7.40402">
        <ele>360.86290322952</ele>
        <time>2022-04-27T10:27:07.611Z</time>
      </trkpt>
      <trkpt lat="48.47966" lon="7.40429">
        <ele>359.88701206731</ele>
        <time>2022-04-27T10:27:11.721Z</time>
      </trkpt>
      <trkpt lat="48.47723" lon="7.40507">
        <ele>356.88426668985</ele>
        <time>2022-04-27T10:27:15.871Z</time>
      </trkpt>
      <trkpt lat="48.47701" lon="7.40517">
        <ele>355.47730156971</ele>
        <time>2022-04-27T10:27:20.025Z</time>
      </trkpt>
      <trkpt lat="48.47599" lon="7.40586">
        <ele>354.05654156253</ele>
        <time>2022-04-27T10:27:24.197Z</time>
      </trkpt>
      <trkpt lat="48.47575" lon="7.40608">
        <ele>352.41010762176</ele>
        <time>2022-04-27T10:27:28.373Z</time>
      </trkpt>
      <trkpt lat="48.47565" lon="7.4062">
        <ele>350.73269282617</ele>
        <time>2022-04-27T10:27:32.551Z</time>
      </trkpt>
      <trkpt lat="48.47552" lon="7.40641">
        <ele>349.0729520106</ele>
        <time>2022-04-27T10:27:36.732Z</time>
      </trkpt>
      <trkpt lat="48.47492" lon="7.40745">
        <ele>347.59861678759</ele>
        <time>2022-04-27T10:27:40.928Z</time>
      </trkpt>
      <trkpt lat="48.47436" lon="7.40842">
        <ele>345.54834613356</ele>
        <time>2022-04-27T10:27:45.138Z</time>
      </trkpt>
      <trkpt lat="48.47375" lon="7.40944">
        <ele>343.27848889616</ele>
        <time>2022-04-27T10:27:49.362Z</time>
      </trkpt>
      <trkpt lat="48.4732" lon="7.4105">
        <ele>340.87928193337</ele>
        <time>2022-04-27T10:27:53.601Z</time>
      </trkpt>
      <trkpt lat="48.47312" lon="7.41064">
        <ele>338.79176025481</ele>
        <time>2022-04-27T10:27:57.842Z</time>
      </trkpt>
      <trkpt lat="48.47303" lon="7.41074">
        <ele>336.6631923655</ele>
        <time>2022-04-27T10:28:02.084Z</time>
      </trkpt>
      <trkpt lat="48.47256" lon="7.41033">
        <ele>334.26966021791</ele>
        <time>2022-04-27T10:28:06.335Z</time>
      </trkpt>
      <trkpt lat="48.47253" lon="7.41035">
        <ele>332.12303459616</ele>
        <time>2022-04-27T10:28:10.587Z</time>
      </trkpt>
      <trkpt lat="48.47245" lon="7.41034">
        <ele>329.9143327019</ele>
        <time>2022-04-27T10:28:14.840Z</time>
      </trkpt>
      <trkpt lat="48.47221" lon="7.41011">
        <ele>327.56059826408</ele>
        <time>2022-04-27T10:28:19.098Z</time>
      </trkpt>
      <trkpt lat="48.47216" lon="7.41013">
        <ele>325.32248662256</ele>
        <time>2022-04-27T10:28:23.356Z</time>
      </trkpt>
      <trkpt lat="48.47185" lon="7.41015">
        <ele>322.9933092127</ele>
        <time>2022-04-27T10:28:27.619Z</time>
      </trkpt>
      <trkpt lat="48.47175" lon="7.41018">
        <ele>320.70018761695</ele>
        <time>2022-04-27T10:28:31.884Z</time>
      </trkpt>
      <trkpt lat="48.47175" lon="7.4101">
        <ele>318.45056694699</ele>
        <time>2022-04-27T10:28:36.150Z</time>
      </trkpt>
      <trkpt lat="48.47169" lon="7.40976">
        <ele>316.14811297754</ele>
        <time>2022-04-27T10:28:40.419Z</time>
      </trkpt>
      <trkpt lat="48.47164" lon="7.40963">
        <ele>313.86401737987</ele>
        <time>2022-04-27T10:28:44.690Z</time>
      </trkpt>
      <trkpt lat="48.47154" lon="7.40954">
        <ele>311.52499783388</ele>
        <time>2022-04-27T10:28:48.963Z</time>
      </trkpt>
      <trkpt lat="48.47156" lon="7.4096">
        <ele>309.27784998188</ele>
        <time>2022-04-27T10:28:53.237Z</time>
      </trkpt>
      <trkpt lat="48.47106" lon="7.40995">
        <ele>306.65162812697</ele>
        <time>2022-04-27T10:28:57.520Z</time>
      </trkpt>
      <trkpt lat="48.47084" lon="7.41021">
        <ele>304.39752439063</ele>
        <time>2022-04-27T10:29:01.807Z</time>
      </trkpt>
      <trkpt lat="48.47067" lon="7.41039">
        <ele>302.12198180108</ele>
        <time>2022-04-27T10:29:06.097Z</time>
      </trkpt>
      <trkpt lat="48.4706" lon="7.41057">
        <ele>299.98137151431</ele>
        <time>2022-04-27T10:29:10.390Z</time>
      </trkpt>
      <trkpt lat="48.47041" lon="7.41086">
        <ele>297.68039439761</ele>
        <time>2022-04-27T10:29:14.687Z</time>
      </trkpt>
      <trkpt lat="48.47021" lon="7.41091">
        <ele>295.40695812079</ele>
        <time>2022-04-27T10:29:18.987Z</time>
      </trkpt>
      <trkpt lat="48.47009" lon="7.41028">
        <ele>293.15996490396</ele>
        <time>2022-04-27T10:29:23.294Z</time>
      </trkpt>
      <trkpt lat="48.47011" lon="7.41017">
        <ele>291.42862372986</ele>
        <time>2022-04-27T10:29:27.602Z</time>
      </trkpt>
      <trkpt lat="48.47007" lon="7.41009">
        <ele>289.71591083891</ele>
        <time>2022-04-27T10:29:31.912Z</time>
      </trkpt>
      <trkpt lat="48.47002" lon="7.40987">
        <ele>288.16368747749</ele>
        <time>2022-04-27T10:29:36.224Z</time>
      </trkpt>
      <trkpt lat="48.4699" lon="7.40961">
        <ele>286.69630559084</ele>
        <time>2022-04-27T10:29:40.539Z</time>
      </trkpt>
      <trkpt lat="48.46973" lon="7.40945">
        <ele>285.26845126304</ele>
        <time>2022-04-27T10:29:44.858Z</time>
      </trkpt>
      <trkpt lat="48.46967" lon="7.40942">
        <ele>284.1350690207</ele>
        <time>2022-04-27T10:29:49.177Z</time>
      </trkpt>
      <trkpt lat="48.46959" lon="7.40943">
        <ele>283.13218208856</ele>
        <time>2022-04-27T10:29:53.498Z</time>
      </trkpt>
      <trkpt lat="48.4695" lon="7.40947">
        <ele>282.2998885352</ele>
        <time>2022-04-27T10:29:57.820Z</time>
      </trkpt>
      <trkpt lat="48.46939" lon="7.40958">
        <ele>281.68552680879</ele>
        <time>2022-04-27T10:30:02.144Z</time>
      </trkpt>
      <trkpt lat="48.46936" lon="7.40966">
        <ele>281.32324116271</ele>
        <time>2022-04-27T10:30:06.469Z</time>
      </trkpt>
      <trkpt lat="48.469" lon="7.41115">
        <ele>280.98258633929</ele>
        <time>2022-04-27T10:30:10.811Z</time>
      </trkpt>
      <trkpt lat="48.46897" lon="7.4111">
        <ele>281.05213707822</ele>
        <time>2022-04-27T10:30:15.154Z</time>
      </trkpt>
      <trkpt lat="48.46875" lon="7.4104">
        <ele>281.43216527572</ele>
        <time>2022-04-27T10:30:19.505Z</time>
      </trkpt>
      <trkpt lat="48.46866" lon="7.41013">
        <ele>281.928656173</ele>
        <time>2022-04-27T10:30:23.859Z</time>
      </trkpt>
      <trkpt lat="48.46863" lon="7.41005">
        <ele>282.58901381242</ele>
        <time>2022-04-27T10:30:28.214Z</time>
      </trkpt>
      <trkpt lat="48.46863" lon="7.41005">
        <ele>283.43392833502</ele>
        <time>2022-04-27T10:30:32.569Z</time>
      </trkpt>
      <trkpt lat="48.46859" lon="7.40984">
        <ele>284.46342899034</ele>
        <time>2022-04-27T10:30:36.927Z</time>
      </trkpt>
      <trkpt lat="48.46853" lon="7.4091">
        <ele>285.7911158643</ele>
        <time>2022-04-27T10:30:41.293Z</time>
      </trkpt>
      <trkpt lat="48.46849" lon="7.40892">
        <ele>287.19342814518</ele>
        <time>2022-04-27T10:30:45.661Z</time>
      </trkpt>
      <trkpt lat="48.46827" lon="7.40806">
        <ele>289.15854446266</ele>
        <time>2022-04-27T10:30:50.039Z</time>
      </trkpt>
      <trkpt lat="48.46816" lon="7.40744">
        <ele>290.86867846601</ele>
        <time>2022-04-27T10:30:54.423Z</time>
      </trkpt>
      <trkpt lat="48.46811" lon="7.40723">
        <ele>292.52947258375</ele>
        <time>2022-04-27T10:30:58.810Z</time>
      </trkpt>
      <trkpt lat="48.46797" lon="7.40691">
        <ele>294.28593077158</ele>
        <time>2022-04-27T10:31:03.201Z</time>
      </trkpt>
      <trkpt lat="48.46777" lon="7.40659">
        <ele>296.11373304042</ele>
        <time>2022-04-27T10:31:07.596Z</time>
      </trkpt>
      <trkpt lat="48.46757" lon="7.40641">
        <ele>298.0468758985</ele>
        <time>2022-04-27T10:31:11.995Z</time>
      </trkpt>
      <trkpt lat="48.46727" lon="7.40613">
        <ele>300.18517614894</ele>
        <time>2022-04-27T10:31:16.400Z</time>
      </trkpt>
      <trkpt lat="48.4672" lon="7.40602">
        <ele>302.12618747838</ele>
        <time>2022-04-27T10:31:20.807Z</time>
      </trkpt>
      <trkpt lat="48.46714" lon="7.40613">
        <ele>304.03159525319</ele>
        <time>2022-04-27T10:31:25.215Z</time>
      </trkpt>
      <trkpt lat="48.46717" lon="7.40623">
        <ele>305.79609261883</ele>
        <time>2022-04-27T10:31:29.624Z</time>
      </trkpt>
      <trkpt lat="48.46737" lon="7.40661">
        <ele>307.56102279876</ele>
        <time>2022-04-27T10:31:34.038Z</time>
      </trkpt>
      <trkpt lat="48.46737" lon="7.40661">
        <ele>309.27231644402</ele>
        <time>2022-04-27T10:31:38.452Z</time>
      </trkpt>
      <trkpt lat="48.46717" lon="7.40623">
        <ele>305.79609261883</ele>
        <time>2022-04-27T10:31:42.871Z</time>
      </trkpt>
      <trkpt lat="48.46714" lon="7.40613">
        <ele>304.03159525319</ele>
        <time>2022-04-27T10:31:47.292Z</time>
      </trkpt>
      <trkpt lat="48.4672" lon="7.40602">
        <ele>314.0539621243</ele>
        <time>2022-04-27T10:31:51.714Z</time>
      </trkpt>
      <trkpt lat="48.46714" lon="7.40582">
        <ele>315.72513020526</ele>
        <time>2022-04-27T10:31:56.138Z</time>
      </trkpt>
      <trkpt lat="48.46711" lon="7.40555">
        <ele>317.45549657864</ele>
        <time>2022-04-27T10:32:00.565Z</time>
      </trkpt>
      <trkpt lat="48.4671" lon="7.40524">
        <ele>318.91243112656</ele>
        <time>2022-04-27T10:32:04.996Z</time>
      </trkpt>
      <trkpt lat="48.46706" lon="7.40487">
        <ele>320.21910222892</ele>
        <time>2022-04-27T10:32:09.431Z</time>
      </trkpt>
      <trkpt lat="48.46706" lon="7.40487">
        <ele>321.57589751646</ele>
        <time>2022-04-27T10:32:13.866Z</time>
      </trkpt>
      <trkpt lat="48.46684" lon="7.40305">
        <ele>322.72905644561</ele>
        <time>2022-04-27T10:32:18.320Z</time>
      </trkpt>
      <trkpt lat="48.46669" lon="7.40212">
        <ele>324.47148328274</ele>
        <time>2022-04-27T10:32:22.784Z</time>
      </trkpt>
      <trkpt lat="48.46641" lon="7.40087">
        <ele>325.85008007855</ele>
        <time>2022-04-27T10:32:27.262Z</time>
      </trkpt>
      <trkpt lat="48.46632" lon="7.40052">
        <ele>327.11628002286</ele>
        <time>2022-04-27T10:32:31.745Z</time>
      </trkpt>
      <trkpt lat="48.46604" lon="7.39979">
        <ele>328.48450584782</ele>
        <time>2022-04-27T10:32:36.237Z</time>
      </trkpt>
      <trkpt lat="48.4659" lon="7.39896">
        <ele>329.74145142729</ele>
        <time>2022-04-27T10:32:40.738Z</time>
      </trkpt>
      <trkpt lat="48.46562" lon="7.39697">
        <ele>330.83967911497</ele>
        <time>2022-04-27T10:32:45.260Z</time>
      </trkpt>
      <trkpt lat="48.46541" lon="7.39572">
        <ele>331.76936682551</ele>
        <time>2022-04-27T10:32:49.796Z</time>
      </trkpt>
      <trkpt lat="48.46529" lon="7.39528">
        <ele>332.86924557495</ele>
        <time>2022-04-27T10:32:54.337Z</time>
      </trkpt>
      <trkpt lat="48.465" lon="7.39464">
        <ele>333.57367316354</ele>
        <time>2022-04-27T10:32:58.886Z</time>
      </trkpt>
      <trkpt lat="48.46439" lon="7.39362">
        <ele>334.0738975894</ele>
        <time>2022-04-27T10:33:03.450Z</time>
      </trkpt>
      <trkpt lat="48.46415" lon="7.39339">
        <ele>334.98738744243</ele>
        <time>2022-04-27T10:33:08.018Z</time>
      </trkpt>
      <trkpt lat="48.46291" lon="7.39267">
        <ele>335.9428965231</ele>
        <time>2022-04-27T10:33:12.608Z</time>
      </trkpt>
      <trkpt lat="48.46273" lon="7.39253">
        <ele>336.55119898699</ele>
        <time>2022-04-27T10:33:17.201Z</time>
      </trkpt>
      <trkpt lat="48.46262" lon="7.39239">
        <ele>337.28523260434</ele>
        <time>2022-04-27T10:33:21.796Z</time>
      </trkpt>
      <trkpt lat="48.46262" lon="7.39239">
        <ele>338.08052786718</ele>
        <time>2022-04-27T10:33:26.391Z</time>
      </trkpt>
      <trkpt lat="48.46255" lon="7.39225">
        <ele>338.86903488082</ele>
        <time>2022-04-27T10:33:30.988Z</time>
      </trkpt>
      <trkpt lat="48.46243" lon="7.39197">
        <ele>339.7405110741</ele>
        <time>2022-04-27T10:33:35.589Z</time>
      </trkpt>
      <trkpt lat="48.46229" lon="7.39175">
        <ele>340.72212175772</ele>
        <time>2022-04-27T10:33:40.193Z</time>
      </trkpt>
      <trkpt lat="48.46213" lon="7.39154">
        <ele>341.78585175089</ele>
        <time>2022-04-27T10:33:44.800Z</time>
      </trkpt>
      <trkpt lat="48.46181" lon="7.39118">
        <ele>343.10310087003</ele>
        <time>2022-04-27T10:33:49.414Z</time>
      </trkpt>
      <trkpt lat="48.46181" lon="7.39118">
        <ele>344.16475113116</ele>
        <time>2022-04-27T10:33:54.028Z</time>
      </trkpt>
      <trkpt lat="48.46137" lon="7.39067">
        <ele>345.31371425494</ele>
        <time>2022-04-27T10:33:58.651Z</time>
      </trkpt>
      <trkpt lat="48.4603" lon="7.38952">
        <ele>346.79813481222</ele>
        <time>2022-04-27T10:34:03.295Z</time>
      </trkpt>
      <trkpt lat="48.45995" lon="7.38909">
        <ele>347.90714957069</ele>
        <time>2022-04-27T10:34:07.946Z</time>
      </trkpt>
      <trkpt lat="48.45946" lon="7.38837">
        <ele>349.47393190267</ele>
        <time>2022-04-27T10:34:12.608Z</time>
      </trkpt>
      <trkpt lat="48.45957" lon="7.38813">
        <ele>350.52575265009</ele>
        <time>2022-04-27T10:34:17.273Z</time>
      </trkpt>
      <trkpt lat="48.45973" lon="7.38776">
        <ele>351.9029107236</ele>
        <time>2022-04-27T10:34:21.943Z</time>
      </trkpt>
      <trkpt lat="48.45981" lon="7.38747">
        <ele>353.24680528095</ele>
        <time>2022-04-27T10:34:26.616Z</time>
      </trkpt>
      <trkpt lat="48.45981" lon="7.38747">
        <ele>354.67160327703</ele>
        <time>2022-04-27T10:34:31.289Z</time>
      </trkpt>
      <trkpt lat="48.4598" lon="7.38732">
        <ele>356.09392247215</ele>
        <time>2022-04-27T10:34:35.964Z</time>
      </trkpt>
      <trkpt lat="48.45938" lon="7.38598">
        <ele>358.18856729051</ele>
        <time>2022-04-27T10:34:40.654Z</time>
      </trkpt>
      <trkpt lat="48.45928" lon="7.38561">
        <ele>359.81559098046</ele>
        <time>2022-04-27T10:34:45.349Z</time>
      </trkpt>
      <trkpt lat="48.45921" lon="7.38525">
        <ele>361.536860252</ele>
        <time>2022-04-27T10:34:50.048Z</time>
      </trkpt>
      <trkpt lat="48.45911" lon="7.38406">
        <ele>363.34911011848</ele>
        <time>2022-04-27T10:34:54.760Z</time>
      </trkpt>
      <trkpt lat="48.45905" lon="7.38317">
        <ele>364.80320380367</ele>
        <time>2022-04-27T10:34:59.481Z</time>
      </trkpt>
      <trkpt lat="48.45911" lon="7.38243">
        <ele>366.25262263406</ele>
        <time>2022-04-27T10:35:04.210Z</time>
      </trkpt>
      <trkpt lat="48.45921" lon="7.38194">
        <ele>367.73157562542</ele>
        <time>2022-04-27T10:35:08.944Z</time>
      </trkpt>
      <trkpt lat="48.45921" lon="7.38164">
        <ele>369.09874845033</ele>
        <time>2022-04-27T10:35:13.682Z</time>
      </trkpt>
      <trkpt lat="48.45916" lon="7.38095">
        <ele>370.77088215955</ele>
        <time>2022-04-27T10:35:18.427Z</time>
      </trkpt>
      <trkpt lat="48.45899" lon="7.37977">
        <ele>372.00339548547</ele>
        <time>2022-04-27T10:35:23.185Z</time>
      </trkpt>
      <trkpt lat="48.45891" lon="7.3794">
        <ele>373.20163092606</ele>
        <time>2022-04-27T10:35:27.947Z</time>
      </trkpt>
      <trkpt lat="48.45883" lon="7.37914">
        <ele>374.5112185715</ele>
        <time>2022-04-27T10:35:32.712Z</time>
      </trkpt>
      <trkpt lat="48.45871" lon="7.3789">
        <ele>375.77869266515</ele>
        <time>2022-04-27T10:35:37.480Z</time>
      </trkpt>
      <trkpt lat="48.45854" lon="7.37867">
        <ele>376.95793912598</ele>
        <time>2022-04-27T10:35:42.252Z</time>
      </trkpt>
      <trkpt lat="48.45781" lon="7.37778">
        <ele>378.14095644094</ele>
        <time>2022-04-27T10:35:47.039Z</time>
      </trkpt>
      <trkpt lat="48.45768" lon="7.37757">
        <ele>379.27979865726</ele>
        <time>2022-04-27T10:35:51.829Z</time>
      </trkpt>
      <trkpt lat="48.45761" lon="7.37738">
        <ele>380.42822855099</ele>
        <time>2022-04-27T10:35:56.621Z</time>
      </trkpt>
      <trkpt lat="48.45756" lon="7.37719">
        <ele>381.55917205368</ele>
        <time>2022-04-27T10:36:01.416Z</time>
      </trkpt>
      <trkpt lat="48.45751" lon="7.37684">
        <ele>382.71195350321</ele>
        <time>2022-04-27T10:36:06.214Z</time>
      </trkpt>
      <trkpt lat="48.45751" lon="7.37684">
        <ele>383.86923178599</ele>
        <time>2022-04-27T10:36:11.012Z</time>
      </trkpt>
      <trkpt lat="48.45744" lon="7.37633">
        <ele>385.06852425613</ele>
        <time>2022-04-27T10:36:15.816Z</time>
      </trkpt>
      <trkpt lat="48.45711" lon="7.37489">
        <ele>386.5711881919</ele>
        <time>2022-04-27T10:36:20.636Z</time>
      </trkpt>
      <trkpt lat="48.45695" lon="7.37437">
        <ele>388.22760160321</ele>
        <time>2022-04-27T10:36:25.462Z</time>
      </trkpt>
      <trkpt lat="48.45668" lon="7.3738">
        <ele>389.82082645835</ele>
        <time>2022-04-27T10:36:30.296Z</time>
      </trkpt>
      <trkpt lat="48.45621" lon="7.37296">
        <ele>391.19278420254</ele>
        <time>2022-04-27T10:36:35.141Z</time>
      </trkpt>
      <trkpt lat="48.45616" lon="7.37279">
        <ele>392.94263915829</ele>
        <time>2022-04-27T10:36:39.988Z</time>
      </trkpt>
      <trkpt lat="48.45612" lon="7.37252">
        <ele>394.75263951177</ele>
        <time>2022-04-27T10:36:44.838Z</time>
      </trkpt>
      <trkpt lat="48.45608" lon="7.37198">
        <ele>396.66187077401</ele>
        <time>2022-04-27T10:36:49.694Z</time>
      </trkpt>
      <trkpt lat="48.45604" lon="7.37165">
        <ele>398.91733151951</ele>
        <time>2022-04-27T10:36:54.554Z</time>
      </trkpt>
      <trkpt lat="48.4559" lon="7.3711">
        <ele>401.515738642</ele>
        <time>2022-04-27T10:36:59.420Z</time>
      </trkpt>
      <trkpt lat="48.4559" lon="7.3711">
        <ele>404.03945055513</ele>
        <time>2022-04-27T10:37:04.286Z</time>
      </trkpt>
      <trkpt lat="48.45543" lon="7.36929">
        <ele>407.14212819356</ele>
        <time>2022-04-27T10:37:09.173Z</time>
      </trkpt>
      <trkpt lat="48.45534" lon="7.36911">
        <ele>410.02505264788</ele>
        <time>2022-04-27T10:37:14.062Z</time>
      </trkpt>
      <trkpt lat="48.45522" lon="7.36894">
        <ele>413.13317500781</ele>
        <time>2022-04-27T10:37:18.954Z</time>
      </trkpt>
      <trkpt lat="48.45486" lon="7.36859">
        <ele>416.62575372941</ele>
        <time>2022-04-27T10:37:23.853Z</time>
      </trkpt>
      <trkpt lat="48.45459" lon="7.36832">
        <ele>420.47421599357</ele>
        <time>2022-04-27T10:37:28.757Z</time>
      </trkpt>
      <trkpt lat="48.45446" lon="7.36809">
        <ele>424.2862686531</ele>
        <time>2022-04-27T10:37:33.664Z</time>
      </trkpt>
      <trkpt lat="48.45433" lon="7.36777">
        <ele>428.40392941567</ele>
        <time>2022-04-27T10:37:38.575Z</time>
      </trkpt>
      <trkpt lat="48.45369" lon="7.36619">
        <ele>432.92934339245</ele>
        <time>2022-04-27T10:37:43.506Z</time>
      </trkpt>
      <trkpt lat="48.45342" lon="7.36503">
        <ele>437.20056293454</ele>
        <time>2022-04-27T10:37:48.450Z</time>
      </trkpt>
      <trkpt lat="48.45283" lon="7.36284">
        <ele>442.3369539198</ele>
        <time>2022-04-27T10:37:53.419Z</time>
      </trkpt>
      <trkpt lat="48.45279" lon="7.36263">
        <ele>446.66190644049</ele>
        <time>2022-04-27T10:37:58.390Z</time>
      </trkpt>
      <trkpt lat="48.45275" lon="7.36233">
        <ele>451.06766832116</ele>
        <time>2022-04-27T10:38:03.364Z</time>
      </trkpt>
      <trkpt lat="48.45272" lon="7.3617">
        <ele>455.90106855578</ele>
        <time>2022-04-27T10:38:08.345Z</time>
      </trkpt>
      <trkpt lat="48.45266" lon="7.36144">
        <ele>460.56865879116</ele>
        <time>2022-04-27T10:38:13.329Z</time>
      </trkpt>
      <trkpt lat="48.45228" lon="7.36069">
        <ele>465.37006065826</ele>
        <time>2022-04-27T10:38:18.323Z</time>
      </trkpt>
      <trkpt lat="48.45221" lon="7.36044">
        <ele>469.88368204296</ele>
        <time>2022-04-27T10:38:23.320Z</time>
      </trkpt>
      <trkpt lat="48.45214" lon="7.36005">
        <ele>474.47550026978</ele>
        <time>2022-04-27T10:38:28.321Z</time>
      </trkpt>
      <trkpt lat="48.45209" lon="7.35949">
        <ele>479.20729255102</ele>
        <time>2022-04-27T10:38:33.328Z</time>
      </trkpt>
      <trkpt lat="48.45205" lon="7.35811">
        <ele>484.32533436369</ele>
        <time>2022-04-27T10:38:38.350Z</time>
      </trkpt>
      <trkpt lat="48.452" lon="7.35778">
        <ele>488.67563290911</ele>
        <time>2022-04-27T10:38:43.376Z</time>
      </trkpt>
      <trkpt lat="48.45186" lon="7.35712">
        <ele>492.94263855866</ele>
        <time>2022-04-27T10:38:48.409Z</time>
      </trkpt>
      <trkpt lat="48.45183" lon="7.3569">
        <ele>497.15035864885</ele>
        <time>2022-04-27T10:38:53.444Z</time>
      </trkpt>
      <trkpt lat="48.45182" lon="7.35556">
        <ele>501.92066588071</ele>
        <time>2022-04-27T10:38:58.494Z</time>
      </trkpt>
      <trkpt lat="48.45177" lon="7.35533">
        <ele>505.75597644603</ele>
        <time>2022-04-27T10:39:03.546Z</time>
      </trkpt>
      <trkpt lat="48.45171" lon="7.35518">
        <ele>509.41727113122</ele>
        <time>2022-04-27T10:39:08.600Z</time>
      </trkpt>
      <trkpt lat="48.45156" lon="7.35498">
        <ele>512.95977207969</ele>
        <time>2022-04-27T10:39:13.657Z</time>
      </trkpt>
      <trkpt lat="48.45104" lon="7.35439">
        <ele>516.6588692566</ele>
        <time>2022-04-27T10:39:18.725Z</time>
      </trkpt>
      <trkpt lat="48.45092" lon="7.35413">
        <ele>519.93672029304</ele>
        <time>2022-04-27T10:39:23.796Z</time>
      </trkpt>
      <trkpt lat="48.4508" lon="7.35366">
        <ele>523.10888280213</ele>
        <time>2022-04-27T10:39:28.873Z</time>
      </trkpt>
      <trkpt lat="48.45075" lon="7.35304">
        <ele>526.01321472305</ele>
        <time>2022-04-27T10:39:33.956Z</time>
      </trkpt>
      <trkpt lat="48.45066" lon="7.35239">
        <ele>528.62403799226</ele>
        <time>2022-04-27T10:39:39.046Z</time>
      </trkpt>
      <trkpt lat="48.45051" lon="7.35168">
        <ele>530.92586647996</ele>
        <time>2022-04-27T10:39:44.144Z</time>
      </trkpt>
      <trkpt lat="48.45033" lon="7.35102">
        <ele>533.71823321587</ele>
        <time>2022-04-27T10:39:49.250Z</time>
      </trkpt>
      <trkpt lat="48.45034" lon="7.35087">
        <ele>535.64402366755</ele>
        <time>2022-04-27T10:39:54.357Z</time>
      </trkpt>
      <trkpt lat="48.4504" lon="7.35075">
        <ele>537.3558650546</ele>
        <time>2022-04-27T10:39:59.466Z</time>
      </trkpt>
      <trkpt lat="48.45048" lon="7.35071">
        <ele>538.82036728793</ele>
        <time>2022-04-27T10:40:04.576Z</time>
      </trkpt>
      <trkpt lat="48.45057" lon="7.35071">
        <ele>540.14224275309</ele>
        <time>2022-04-27T10:40:09.688Z</time>
      </trkpt>
      <trkpt lat="48.45062" lon="7.35077">
        <ele>541.30806527076</ele>
        <time>2022-04-27T10:40:14.801Z</time>
      </trkpt>
      <trkpt lat="48.45067" lon="7.35083">
        <ele>542.36350264908</ele>
        <time>2022-04-27T10:40:19.915Z</time>
      </trkpt>
      <trkpt lat="48.45077" lon="7.35108">
        <ele>543.11739099274</ele>
        <time>2022-04-27T10:40:25.032Z</time>
      </trkpt>
      <trkpt lat="48.45086" lon="7.35122">
        <ele>544.05463873196</ele>
        <time>2022-04-27T10:40:30.151Z</time>
      </trkpt>
      <trkpt lat="48.45098" lon="7.35132">
        <ele>545.13546400744</ele>
        <time>2022-04-27T10:40:35.272Z</time>
      </trkpt>
      <trkpt lat="48.4516" lon="7.35157">
        <ele>546.93288932161</ele>
        <time>2022-04-27T10:40:40.403Z</time>
      </trkpt>
      <trkpt lat="48.45175" lon="7.35168">
        <ele>548.14644836476</ele>
        <time>2022-04-27T10:40:45.537Z</time>
      </trkpt>
      <trkpt lat="48.45185" lon="7.3519">
        <ele>549.29472702251</ele>
        <time>2022-04-27T10:40:50.674Z</time>
      </trkpt>
      <trkpt lat="48.45196" lon="7.35226">
        <ele>550.35437857563</ele>
        <time>2022-04-27T10:40:55.815Z</time>
      </trkpt>
      <trkpt lat="48.45204" lon="7.35237">
        <ele>551.56745855415</ele>
        <time>2022-04-27T10:41:00.958Z</time>
      </trkpt>
      <trkpt lat="48.45212" lon="7.35243">
        <ele>552.90469905474</ele>
        <time>2022-04-27T10:41:06.102Z</time>
      </trkpt>
      <trkpt lat="48.45221" lon="7.35244">
        <ele>554.34926074284</ele>
        <time>2022-04-27T10:41:11.248Z</time>
      </trkpt>
      <trkpt lat="48.45228" lon="7.3524">
        <ele>555.94525186671</ele>
        <time>2022-04-27T10:41:16.395Z</time>
      </trkpt>
      <trkpt lat="48.45228" lon="7.3524">
        <ele>557.46353864146</ele>
        <time>2022-04-27T10:41:21.542Z</time>
      </trkpt>
      <trkpt lat="48.45231" lon="7.35235">
        <ele>559.17571316912</ele>
        <time>2022-04-27T10:41:26.690Z</time>
      </trkpt>
      <trkpt lat="48.45235" lon="7.3522">
        <ele>561.05994455441</ele>
        <time>2022-04-27T10:41:31.839Z</time>
      </trkpt>
      <trkpt lat="48.45234" lon="7.35207">
        <ele>562.95484324095</ele>
        <time>2022-04-27T10:41:36.990Z</time>
      </trkpt>
      <trkpt lat="48.45219" lon="7.35171">
        <ele>564.82731370995</ele>
        <time>2022-04-27T10:41:42.145Z</time>
      </trkpt>
      <trkpt lat="48.45209" lon="7.35115">
        <ele>566.96019782556</ele>
        <time>2022-04-27T10:41:47.307Z</time>
      </trkpt>
      <trkpt lat="48.45204" lon="7.35098">
        <ele>569.17842392655</ele>
        <time>2022-04-27T10:41:52.471Z</time>
      </trkpt>
      <trkpt lat="48.45185" lon="7.35057">
        <ele>571.55855465335</ele>
        <time>2022-04-27T10:41:57.640Z</time>
      </trkpt>
      <trkpt lat="48.45173" lon="7.34985">
        <ele>574.49555398651</ele>
        <time>2022-04-27T10:42:02.817Z</time>
      </trkpt>
      <trkpt lat="48.45163" lon="7.34898">
        <ele>577.46201785682</ele>
        <time>2022-04-27T10:42:08.003Z</time>
      </trkpt>
      <trkpt lat="48.45156" lon="7.34878">
        <ele>580.04509808986</ele>
        <time>2022-04-27T10:42:13.192Z</time>
      </trkpt>
      <trkpt lat="48.45145" lon="7.3486">
        <ele>582.55757434471</ele>
        <time>2022-04-27T10:42:18.383Z</time>
      </trkpt>
      <trkpt lat="48.45127" lon="7.34822">
        <ele>585.11528931464</ele>
        <time>2022-04-27T10:42:23.579Z</time>
      </trkpt>
      <trkpt lat="48.45122" lon="7.34805">
        <ele>587.67844474517</ele>
        <time>2022-04-27T10:42:28.777Z</time>
      </trkpt>
      <trkpt lat="48.45118" lon="7.34764">
        <ele>590.34981718362</ele>
        <time>2022-04-27T10:42:33.979Z</time>
      </trkpt>
      <trkpt lat="48.45118" lon="7.34719">
        <ele>593.10690479958</ele>
        <time>2022-04-27T10:42:39.186Z</time>
      </trkpt>
      <trkpt lat="48.45116" lon="7.34692">
        <ele>595.72691818386</ele>
        <time>2022-04-27T10:42:44.396Z</time>
      </trkpt>
      <trkpt lat="48.45092" lon="7.34615">
        <ele>598.67198993191</ele>
        <time>2022-04-27T10:42:49.615Z</time>
      </trkpt>
      <trkpt lat="48.45074" lon="7.34543">
        <ele>601.28613073186</ele>
        <time>2022-04-27T10:42:54.842Z</time>
      </trkpt>
      <trkpt lat="48.45066" lon="7.34504">
        <ele>603.85465795597</ele>
        <time>2022-04-27T10:43:00.074Z</time>
      </trkpt>
      <trkpt lat="48.45059" lon="7.34491">
        <ele>606.19706505034</ele>
        <time>2022-04-27T10:43:05.308Z</time>
      </trkpt>
      <trkpt lat="48.45046" lon="7.34479">
        <ele>608.45490996245</ele>
        <time>2022-04-27T10:43:10.544Z</time>
      </trkpt>
      <trkpt lat="48.45029" lon="7.34469">
        <ele>610.59892525324</ele>
        <time>2022-04-27T10:43:15.783Z</time>
      </trkpt>
      <trkpt lat="48.45014" lon="7.34464">
        <ele>612.63363321418</ele>
        <time>2022-04-27T10:43:21.024Z</time>
      </trkpt>
      <trkpt lat="48.45002" lon="7.34464">
        <ele>614.52441223756</ele>
        <time>2022-04-27T10:43:26.267Z</time>
      </trkpt>
      <trkpt lat="48.44989" lon="7.34468">
        <ele>616.40983344603</ele>
        <time>2022-04-27T10:43:31.512Z</time>
      </trkpt>
      <trkpt lat="48.44975" lon="7.34478">
        <ele>618.23572408458</ele>
        <time>2022-04-27T10:43:36.760Z</time>
      </trkpt>
      <trkpt lat="48.44965" lon="7.3449">
        <ele>619.86302936508</ele>
        <time>2022-04-27T10:43:42.010Z</time>
      </trkpt>
      <trkpt lat="48.44957" lon="7.3451">
        <ele>621.40393473499</ele>
        <time>2022-04-27T10:43:47.262Z</time>
      </trkpt>
      <trkpt lat="48.44935" lon="7.3458">
        <ele>623.1061452119</ele>
        <time>2022-04-27T10:43:52.523Z</time>
      </trkpt>
      <trkpt lat="48.4492" lon="7.34614">
        <ele>624.73900193825</ele>
        <time>2022-04-27T10:43:57.788Z</time>
      </trkpt>
      <trkpt lat="48.44907" lon="7.34636">
        <ele>626.27180873034</ele>
        <time>2022-04-27T10:44:03.056Z</time>
      </trkpt>
      <trkpt lat="48.44881" lon="7.34667">
        <ele>627.87733787705</ele>
        <time>2022-04-27T10:44:08.330Z</time>
      </trkpt>
      <trkpt lat="48.44857" lon="7.34685">
        <ele>629.48280098646</ele>
        <time>2022-04-27T10:44:13.608Z</time>
      </trkpt>
      <trkpt lat="48.44836" lon="7.34698">
        <ele>631.12621226922</ele>
        <time>2022-04-27T10:44:18.890Z</time>
      </trkpt>
      <trkpt lat="48.44819" lon="7.34703">
        <ele>632.75561961527</ele>
        <time>2022-04-27T10:44:24.174Z</time>
      </trkpt>
      <trkpt lat="48.44805" lon="7.34704">
        <ele>634.56446806902</ele>
        <time>2022-04-27T10:44:29.460Z</time>
      </trkpt>
      <trkpt lat="48.44792" lon="7.34696">
        <ele>636.49889200616</ele>
        <time>2022-04-27T10:44:34.749Z</time>
      </trkpt>
      <trkpt lat="48.44778" lon="7.34684">
        <ele>638.52683251702</ele>
        <time>2022-04-27T10:44:40.040Z</time>
      </trkpt>
      <trkpt lat="48.44685" lon="7.34547">
        <ele>640.83437649529</ele>
        <time>2022-04-27T10:44:45.352Z</time>
      </trkpt>
      <trkpt lat="48.44675" lon="7.34525">
        <ele>643.09559804484</ele>
        <time>2022-04-27T10:44:50.667Z</time>
      </trkpt>
      <trkpt lat="48.44664" lon="7.34495">
        <ele>645.45476514356</ele>
        <time>2022-04-27T10:44:55.986Z</time>
      </trkpt>
      <trkpt lat="48.44653" lon="7.34457">
        <ele>648.01611817502</ele>
        <time>2022-04-27T10:45:01.309Z</time>
      </trkpt>
      <trkpt lat="48.44632" lon="7.34382">
        <ele>650.78786930189</ele>
        <time>2022-04-27T10:45:06.641Z</time>
      </trkpt>
      <trkpt lat="48.44617" lon="7.34343">
        <ele>653.4379163659</ele>
        <time>2022-04-27T10:45:11.978Z</time>
      </trkpt>
      <trkpt lat="48.44609" lon="7.34322">
        <ele>656.10656472034</ele>
        <time>2022-04-27T10:45:17.317Z</time>
      </trkpt>
      <trkpt lat="48.44514" lon="7.3416">
        <ele>659.39852105859</ele>
        <time>2022-04-27T10:45:22.679Z</time>
      </trkpt>
      <trkpt lat="48.44466" lon="7.34088">
        <ele>662.40878519373</ele>
        <time>2022-04-27T10:45:28.052Z</time>
      </trkpt>
      <trkpt lat="48.44466" lon="7.34088">
        <ele>665.20206331759</ele>
        <time>2022-04-27T10:45:33.425Z</time>
      </trkpt>
      <trkpt lat="48.44434" lon="7.34037">
        <ele>668.32335941872</ele>
        <time>2022-04-27T10:45:38.805Z</time>
      </trkpt>
      <trkpt lat="48.444" lon="7.33969">
        <ele>671.44618340708</ele>
        <time>2022-04-27T10:45:44.194Z</time>
      </trkpt>
      <trkpt lat="48.44362" lon="7.3389">
        <ele>674.5141057788</ele>
        <time>2022-04-27T10:45:49.594Z</time>
      </trkpt>
      <trkpt lat="48.44356" lon="7.33868">
        <ele>677.41409622687</ele>
        <time>2022-04-27T10:45:54.996Z</time>
      </trkpt>
      <trkpt lat="48.44353" lon="7.33852">
        <ele>680.24002465574</ele>
        <time>2022-04-27T10:46:00.400Z</time>
      </trkpt>
      <trkpt lat="48.44351" lon="7.3383">
        <ele>683.10527690921</ele>
        <time>2022-04-27T10:46:05.807Z</time>
      </trkpt>
      <trkpt lat="48.44351" lon="7.3379">
        <ele>685.98093147134</ele>
        <time>2022-04-27T10:46:11.218Z</time>
      </trkpt>
      <trkpt lat="48.44346" lon="7.33774">
        <ele>688.6014376623</ele>
        <time>2022-04-27T10:46:16.631Z</time>
      </trkpt>
      <trkpt lat="48.4434" lon="7.33762">
        <ele>690.98941143347</ele>
        <time>2022-04-27T10:46:22.045Z</time>
      </trkpt>
      <trkpt lat="48.4433" lon="7.33756">
        <ele>693.26357104458</ele>
        <time>2022-04-27T10:46:27.461Z</time>
      </trkpt>
      <trkpt lat="48.44317" lon="7.33754">
        <ele>695.51168792901</ele>
        <time>2022-04-27T10:46:32.879Z</time>
      </trkpt>
      <trkpt lat="48.44299" lon="7.33759">
        <ele>697.62517371889</ele>
        <time>2022-04-27T10:46:38.300Z</time>
      </trkpt>
      <trkpt lat="48.44288" lon="7.33758">
        <ele>699.72462775484</ele>
        <time>2022-04-27T10:46:43.723Z</time>
      </trkpt>
      <trkpt lat="48.44257" lon="7.33741">
        <ele>701.98984200451</ele>
        <time>2022-04-27T10:46:49.151Z</time>
      </trkpt>
      <trkpt lat="48.44242" lon="7.33739">
        <ele>704.01331328198</ele>
        <time>2022-04-27T10:46:54.581Z</time>
      </trkpt>
      <trkpt lat="48.44192" lon="7.33734">
        <ele>706.1638654347</ele>
        <time>2022-04-27T10:47:00.020Z</time>
      </trkpt>
      <trkpt lat="48.4418" lon="7.33738">
        <ele>707.95655685142</ele>
        <time>2022-04-27T10:47:05.460Z</time>
      </trkpt>
      <trkpt lat="48.44169" lon="7.33746">
        <ele>709.61916915931</ele>
        <time>2022-04-27T10:47:10.902Z</time>
      </trkpt>
      <trkpt lat="48.44144" lon="7.33776">
        <ele>711.22201746724</ele>
        <time>2022-04-27T10:47:16.350Z</time>
      </trkpt>
      <trkpt lat="48.44132" lon="7.33785">
        <ele>712.84629052845</ele>
        <time>2022-04-27T10:47:21.800Z</time>
      </trkpt>
      <trkpt lat="48.44106" lon="7.33792">
        <ele>714.49369959819</ele>
        <time>2022-04-27T10:47:27.254Z</time>
      </trkpt>
      <trkpt lat="48.44086" lon="7.33802">
        <ele>716.10508626957</ele>
        <time>2022-04-27T10:47:32.711Z</time>
      </trkpt>
      <trkpt lat="48.44073" lon="7.33817">
        <ele>717.7013833238</ele>
        <time>2022-04-27T10:47:38.171Z</time>
      </trkpt>
      <trkpt lat="48.44046" lon="7.33866">
        <ele>719.30695241006</ele>
        <time>2022-04-27T10:47:43.638Z</time>
      </trkpt>
      <trkpt lat="48.44037" lon="7.33876">
        <ele>720.92492136926</ele>
        <time>2022-04-27T10:47:49.106Z</time>
      </trkpt>
      <trkpt lat="48.44019" lon="7.33892">
        <ele>722.60970341506</ele>
        <time>2022-04-27T10:47:54.578Z</time>
      </trkpt>
      <trkpt lat="48.4399" lon="7.33912">
        <ele>724.2957651089</ele>
        <time>2022-04-27T10:48:00.055Z</time>
      </trkpt>
      <trkpt lat="48.43931" lon="7.3394">
        <ele>726.12444669853</ele>
        <time>2022-04-27T10:48:05.542Z</time>
      </trkpt>
      <trkpt lat="48.43919" lon="7.33952">
        <ele>727.78976856961</ele>
        <time>2022-04-27T10:48:11.031Z</time>
      </trkpt>
      <trkpt lat="48.43873" lon="7.34018">
        <ele>729.63735253171</ele>
        <time>2022-04-27T10:48:16.530Z</time>
      </trkpt>
      <trkpt lat="48.43858" lon="7.34034">
        <ele>731.40987598154</ele>
        <time>2022-04-27T10:48:22.032Z</time>
      </trkpt>
      <trkpt lat="48.43841" lon="7.34047">
        <ele>733.16133594202</ele>
        <time>2022-04-27T10:48:27.537Z</time>
      </trkpt>
      <trkpt lat="48.43819" lon="7.34056">
        <ele>734.98621843221</ele>
        <time>2022-04-27T10:48:33.046Z</time>
      </trkpt>
      <trkpt lat="48.43796" lon="7.34062">
        <ele>736.96454519535</ele>
        <time>2022-04-27T10:48:38.559Z</time>
      </trkpt>
      <trkpt lat="48.43694" lon="7.34068">
        <ele>739.35074537856</ele>
        <time>2022-04-27T10:48:44.088Z</time>
      </trkpt>
      <trkpt lat="48.43664" lon="7.34066">
        <ele>741.29921875731</ele>
        <time>2022-04-27T10:48:49.622Z</time>
      </trkpt>
      <trkpt lat="48.43647" lon="7.34063">
        <ele>743.28667760183</ele>
        <time>2022-04-27T10:48:55.159Z</time>
      </trkpt>
      <trkpt lat="48.43637" lon="7.34055">
        <ele>745.35359585308</ele>
        <time>2022-04-27T10:49:00.697Z</time>
      </trkpt>
      <trkpt lat="48.43632" lon="7.34046">
        <ele>747.52385367921</ele>
        <time>2022-04-27T10:49:06.237Z</time>
      </trkpt>
      <trkpt lat="48.43631" lon="7.34034">
        <ele>749.78351091912</ele>
        <time>2022-04-27T10:49:11.778Z</time>
      </trkpt>
      <trkpt lat="48.43632" lon="7.34024">
        <ele>752.08005802546</ele>
        <time>2022-04-27T10:49:17.320Z</time>
      </trkpt>
      <trkpt lat="48.4364" lon="7.3401">
        <ele>754.50186300151</ele>
        <time>2022-04-27T10:49:22.864Z</time>
      </trkpt>
      <trkpt lat="48.43657" lon="7.34">
        <ele>756.88811326143</ele>
        <time>2022-04-27T10:49:28.411Z</time>
      </trkpt>
      <trkpt lat="48.43705" lon="7.33985">
        <ele>759.37778123195</ele>
        <time>2022-04-27T10:49:33.966Z</time>
      </trkpt>
      <trkpt lat="48.43722" lon="7.33978">
        <ele>761.86366689953</ele>
        <time>2022-04-27T10:49:39.524Z</time>
      </trkpt>
      <trkpt lat="48.43735" lon="7.33965">
        <ele>764.46830234241</ele>
        <time>2022-04-27T10:49:45.084Z</time>
      </trkpt>
      <trkpt lat="48.43756" lon="7.33933">
        <ele>767.29791266827</ele>
        <time>2022-04-27T10:49:50.649Z</time>
      </trkpt>
      <trkpt lat="48.43776" lon="7.33904">
        <ele>770.21501852148</ele>
        <time>2022-04-27T10:49:56.218Z</time>
      </trkpt>
      <trkpt lat="48.43819" lon="7.33846">
        <ele>772.9397401868</ele>
        <time>2022-04-27T10:50:01.797Z</time>
      </trkpt>
      <trkpt lat="48.4383" lon="7.33828">
        <ele>775.77156297632</ele>
        <time>2022-04-27T10:50:07.378Z</time>
      </trkpt>
      <trkpt lat="48.43845" lon="7.33791">
        <ele>778.7400266674</ele>
        <time>2022-04-27T10:50:12.964Z</time>
      </trkpt>
      <trkpt lat="48.43911" lon="7.33599">
        <ele>782.1073829123</ele>
        <time>2022-04-27T10:50:18.573Z</time>
      </trkpt>
      <trkpt lat="48.43917" lon="7.33571">
        <ele>784.93433156903</ele>
        <time>2022-04-27T10:50:24.185Z</time>
      </trkpt>
      <trkpt lat="48.43926" lon="7.33527">
        <ele>787.99822443952</ele>
        <time>2022-04-27T10:50:29.802Z</time>
      </trkpt>
      <trkpt lat="48.43931" lon="7.3351">
        <ele>790.86327677777</ele>
        <time>2022-04-27T10:50:35.421Z</time>
      </trkpt>
      <trkpt lat="48.44038" lon="7.33353">
        <ele>794.44275679419</ele>
        <time>2022-04-27T10:50:41.064Z</time>
      </trkpt>
      <trkpt lat="48.44089" lon="7.33291">
        <ele>797.35083173741</ele>
        <time>2022-04-27T10:50:46.717Z</time>
      </trkpt>
      <trkpt lat="48.44126" lon="7.33228">
        <ele>800.50199737383</ele>
        <time>2022-04-27T10:50:52.379Z</time>
      </trkpt>
      <trkpt lat="48.44144" lon="7.3321">
        <ele>803.19193464457</ele>
        <time>2022-04-27T10:50:58.045Z</time>
      </trkpt>
      <trkpt lat="48.44187" lon="7.33173">
        <ele>805.76043658508</ele>
        <time>2022-04-27T10:51:03.719Z</time>
      </trkpt>
      <trkpt lat="48.44201" lon="7.3315">
        <ele>808.48078471799</ele>
        <time>2022-04-27T10:51:09.396Z</time>
      </trkpt>
      <trkpt lat="48.44211" lon="7.33126">
        <ele>811.11775024704</ele>
        <time>2022-04-27T10:51:15.076Z</time>
      </trkpt>
      <trkpt lat="48.44231" lon="7.33043">
        <ele>813.78850538217</ele>
        <time>2022-04-27T10:51:20.765Z</time>
      </trkpt>
      <trkpt lat="48.44242" lon="7.33016">
        <ele>816.11274939405</ele>
        <time>2022-04-27T10:51:26.458Z</time>
      </trkpt>
      <trkpt lat="48.44289" lon="7.32922">
        <ele>818.66471571617</ele>
        <time>2022-04-27T10:51:32.163Z</time>
      </trkpt>
      <trkpt lat="48.44315" lon="7.32885">
        <ele>821.00921738116</ele>
        <time>2022-04-27T10:51:37.874Z</time>
      </trkpt>
      <trkpt lat="48.44338" lon="7.32865">
        <ele>823.0704386604</ele>
        <time>2022-04-27T10:51:43.589Z</time>
      </trkpt>
      <trkpt lat="48.4436" lon="7.32851">
        <ele>825.14032384118</ele>
        <time>2022-04-27T10:51:49.308Z</time>
      </trkpt>
      <trkpt lat="48.44396" lon="7.32844">
        <ele>827.22883065799</ele>
        <time>2022-04-27T10:51:55.033Z</time>
      </trkpt>
      <trkpt lat="48.44404" lon="7.3284">
        <ele>829.44521064789</ele>
        <time>2022-04-27T10:52:00.759Z</time>
      </trkpt>
      <trkpt lat="48.44411" lon="7.32834">
        <ele>831.68541122067</ele>
        <time>2022-04-27T10:52:06.486Z</time>
      </trkpt>
      <trkpt lat="48.44416" lon="7.32819">
        <ele>834.03843856755</ele>
        <time>2022-04-27T10:52:12.215Z</time>
      </trkpt>
      <trkpt lat="48.44417" lon="7.32804">
        <ele>836.41177998578</ele>
        <time>2022-04-27T10:52:17.946Z</time>
      </trkpt>
      <trkpt lat="48.44414" lon="7.3279">
        <ele>838.80917673395</ele>
        <time>2022-04-27T10:52:23.678Z</time>
      </trkpt>
      <trkpt lat="48.44407" lon="7.3278">
        <ele>841.25635981664</ele>
        <time>2022-04-27T10:52:29.412Z</time>
      </trkpt>
      <trkpt lat="48.44397" lon="7.32771">
        <ele>843.75311049019</ele>
        <time>2022-04-27T10:52:35.148Z</time>
      </trkpt>
      <trkpt lat="48.44358" lon="7.32756">
        <ele>846.36820343833</ele>
        <time>2022-04-27T10:52:40.890Z</time>
      </trkpt>
      <trkpt lat="48.44331" lon="7.32736">
        <ele>849.17892674916</ele>
        <time>2022-04-27T10:52:46.637Z</time>
      </trkpt>
      <trkpt lat="48.44311" lon="7.32709">
        <ele>852.20533166441</ele>
        <time>2022-04-27T10:52:52.389Z</time>
      </trkpt>
      <trkpt lat="48.44266" lon="7.32673">
        <ele>855.23914526646</ele>
        <time>2022-04-27T10:52:58.149Z</time>
      </trkpt>
      <trkpt lat="48.44197" lon="7.32637">
        <ele>858.11238672784</ele>
        <time>2022-04-27T10:53:03.920Z</time>
      </trkpt>
      <trkpt lat="48.44181" lon="7.32633">
        <ele>861.17085975285</ele>
        <time>2022-04-27T10:53:09.694Z</time>
      </trkpt>
      <trkpt lat="48.44151" lon="7.32629">
        <ele>864.43431022175</ele>
        <time>2022-04-27T10:53:15.473Z</time>
      </trkpt>
      <trkpt lat="48.44102" lon="7.3263">
        <ele>867.848193613</ele>
        <time>2022-04-27T10:53:21.260Z</time>
      </trkpt>
      <trkpt lat="48.43982" lon="7.32648">
        <ele>871.46185658663</ele>
        <time>2022-04-27T10:53:27.066Z</time>
      </trkpt>
      <trkpt lat="48.43919" lon="7.32642">
        <ele>875.065810152</ele>
        <time>2022-04-27T10:53:32.882Z</time>
      </trkpt>
      <trkpt lat="48.43803" lon="7.32614">
        <ele>878.83523949894</ele>
        <time>2022-04-27T10:53:38.717Z</time>
      </trkpt>
      <trkpt lat="48.43795" lon="7.3261">
        <ele>882.03945389843</ele>
        <time>2022-04-27T10:53:44.553Z</time>
      </trkpt>
      <trkpt lat="48.43795" lon="7.3261">
        <ele>885.23090387783</ele>
        <time>2022-04-27T10:53:50.389Z</time>
      </trkpt>
      <trkpt lat="48.43774" lon="7.32598">
        <ele>888.37260849506</ele>
        <time>2022-04-27T10:53:56.229Z</time>
      </trkpt>
      <trkpt lat="48.43638" lon="7.32468">
        <ele>892.07014307595</ele>
        <time>2022-04-27T10:54:02.095Z</time>
      </trkpt>
      <trkpt lat="48.4358" lon="7.32418">
        <ele>895.50314672343</ele>
        <time>2022-04-27T10:54:07.971Z</time>
      </trkpt>
      <trkpt lat="48.43565" lon="7.324">
        <ele>898.71341013247</ele>
        <time>2022-04-27T10:54:13.850Z</time>
      </trkpt>
      <trkpt lat="48.4356" lon="7.32384">
        <ele>901.73150248018</ele>
        <time>2022-04-27T10:54:19.731Z</time>
      </trkpt>
      <trkpt lat="48.4356" lon="7.32361">
        <ele>904.66668296065</ele>
        <time>2022-04-27T10:54:25.615Z</time>
      </trkpt>
      <trkpt lat="48.43565" lon="7.32336">
        <ele>907.48388258565</ele>
        <time>2022-04-27T10:54:31.501Z</time>
      </trkpt>
      <trkpt lat="48.43582" lon="7.32278">
        <ele>909.98143927006</ele>
        <time>2022-04-27T10:54:37.394Z</time>
      </trkpt>
      <trkpt lat="48.43585" lon="7.32267">
        <ele>912.51610315756</ele>
        <time>2022-04-27T10:54:43.288Z</time>
      </trkpt>
      <trkpt lat="48.43587" lon="7.32253">
        <ele>914.99242223493</ele>
        <time>2022-04-27T10:54:49.184Z</time>
      </trkpt>
      <trkpt lat="48.43587" lon="7.32228">
        <ele>917.36143983973</ele>
        <time>2022-04-27T10:54:55.083Z</time>
      </trkpt>
      <trkpt lat="48.43585" lon="7.32178">
        <ele>919.78345681274</ele>
        <time>2022-04-27T10:55:00.987Z</time>
      </trkpt>
      <trkpt lat="48.43578" lon="7.32136">
        <ele>922.11761061014</ele>
        <time>2022-04-27T10:55:06.896Z</time>
      </trkpt>
      <trkpt lat="48.43573" lon="7.32118">
        <ele>924.28777087434</ele>
        <time>2022-04-27T10:55:12.807Z</time>
      </trkpt>
      <trkpt lat="48.43554" lon="7.3209">
        <ele>926.44734405294</ele>
        <time>2022-04-27T10:55:18.722Z</time>
      </trkpt>
      <trkpt lat="48.43537" lon="7.32078">
        <ele>928.55738315025</ele>
        <time>2022-04-27T10:55:24.640Z</time>
      </trkpt>
      <trkpt lat="48.43523" lon="7.32074">
        <ele>930.61009020335</ele>
        <time>2022-04-27T10:55:30.560Z</time>
      </trkpt>
      <trkpt lat="48.43505" lon="7.32072">
        <ele>932.61966491781</ele>
        <time>2022-04-27T10:55:36.483Z</time>
      </trkpt>
      <trkpt lat="48.4348" lon="7.32072">
        <ele>934.56883196025</ele>
        <time>2022-04-27T10:55:42.410Z</time>
      </trkpt>
      <trkpt lat="48.43428" lon="7.32066">
        <ele>936.62045397982</ele>
        <time>2022-04-27T10:55:48.346Z</time>
      </trkpt>
      <trkpt lat="48.43416" lon="7.32057">
        <ele>938.47410170438</ele>
        <time>2022-04-27T10:55:54.284Z</time>
      </trkpt>
      <trkpt lat="48.43377" lon="7.32021">
        <ele>940.1116682621</ele>
        <time>2022-04-27T10:56:00.229Z</time>
      </trkpt>
      <trkpt lat="48.43292" lon="7.3192">
        <ele>942.12488701714</ele>
        <time>2022-04-27T10:56:06.191Z</time>
      </trkpt>
      <trkpt lat="48.43255" lon="7.31865">
        <ele>943.77271734487</ele>
        <time>2022-04-27T10:56:12.162Z</time>
      </trkpt>
      <trkpt lat="48.43241" lon="7.31851">
        <ele>945.41220831251</ele>
        <time>2022-04-27T10:56:18.135Z</time>
      </trkpt>
      <trkpt lat="48.43226" lon="7.31843">
        <ele>947.03614842375</ele>
        <time>2022-04-27T10:56:24.111Z</time>
      </trkpt>
      <trkpt lat="48.43182" lon="7.31827">
        <ele>948.7184488797</ele>
        <time>2022-04-27T10:56:30.094Z</time>
      </trkpt>
      <trkpt lat="48.43107" lon="7.31818">
        <ele>950.28885767777</ele>
        <time>2022-04-27T10:56:36.089Z</time>
      </trkpt>
      <trkpt lat="48.43084" lon="7.31809">
        <ele>951.60025366391</ele>
        <time>2022-04-27T10:56:42.088Z</time>
      </trkpt>
      <trkpt lat="48.43056" lon="7.31794">
        <ele>952.96022094413</ele>
        <time>2022-04-27T10:56:48.092Z</time>
      </trkpt>
      <trkpt lat="48.43001" lon="7.31755">
        <ele>954.39781244745</ele>
        <time>2022-04-27T10:56:54.106Z</time>
      </trkpt>
      <trkpt lat="48.42955" lon="7.31709">
        <ele>955.74703719316</ele>
        <time>2022-04-27T10:57:00.128Z</time>
      </trkpt>
      <trkpt lat="48.4291" lon="7.31655">
        <ele>956.47309115799</ele>
        <time>2022-04-27T10:57:06.160Z</time>
      </trkpt>
      <trkpt lat="48.42889" lon="7.31627">
        <ele>957.05761224953</ele>
        <time>2022-04-27T10:57:12.196Z</time>
      </trkpt>
      <trkpt lat="48.42872" lon="7.31601">
        <ele>957.41138575751</ele>
        <time>2022-04-27T10:57:18.236Z</time>
      </trkpt>
      <trkpt lat="48.42853" lon="7.31614">
        <ele>957.62350659198</ele>
        <time>2022-04-27T10:57:24.279Z</time>
      </trkpt>
      <trkpt lat="48.42839" lon="7.3163">
        <ele>957.56605707629</ele>
        <time>2022-04-27T10:57:30.325Z</time>
      </trkpt>
      <trkpt lat="48.42835" lon="7.31632">
        <ele>957.2189526492</ele>
        <time>2022-04-27T10:57:36.372Z</time>
      </trkpt>
      <trkpt lat="48.42834" lon="7.3165">
        <ele>956.7139339309</ele>
        <time>2022-04-27T10:57:42.421Z</time>
      </trkpt>
      <trkpt lat="48.42832" lon="7.31665">
        <ele>955.96982623202</ele>
        <time>2022-04-27T10:57:48.471Z</time>
      </trkpt>
      <trkpt lat="48.42809" lon="7.31785">
        <ele>954.59896744282</ele>
        <time>2022-04-27T10:57:54.535Z</time>
      </trkpt>
      <trkpt lat="48.42778" lon="7.32054">
        <ele>952.66636606826</ele>
        <time>2022-04-27T10:58:00.628Z</time>
      </trkpt>
      <trkpt lat="48.42769" lon="7.32083">
        <ele>951.23652269269</ele>
        <time>2022-04-27T10:58:06.724Z</time>
      </trkpt>
      <trkpt lat="48.42758" lon="7.32111">
        <ele>949.55151158443</ele>
        <time>2022-04-27T10:58:12.824Z</time>
      </trkpt>
      <trkpt lat="48.42758" lon="7.32111">
        <ele>947.91474856773</ele>
        <time>2022-04-27T10:58:18.924Z</time>
      </trkpt>
      <trkpt lat="48.42748" lon="7.32137">
        <ele>946.05454760603</ele>
        <time>2022-04-27T10:58:25.027Z</time>
      </trkpt>
      <trkpt lat="48.42727" lon="7.32168">
        <ele>944.13031421381</ele>
        <time>2022-04-27T10:58:31.135Z</time>
      </trkpt>
      <trkpt lat="48.42727" lon="7.32168">
        <ele>942.22525011981</ele>
        <time>2022-04-27T10:58:37.243Z</time>
      </trkpt>
      <trkpt lat="48.42716" lon="7.32183">
        <ele>940.24201032161</ele>
        <time>2022-04-27T10:58:43.353Z</time>
      </trkpt>
      <trkpt lat="48.42641" lon="7.32259">
        <ele>938.10631441487</ele>
        <time>2022-04-27T10:58:49.477Z</time>
      </trkpt>
      <trkpt lat="48.42609" lon="7.32287">
        <ele>936.04315364014</ele>
        <time>2022-04-27T10:58:55.607Z</time>
      </trkpt>
      <trkpt lat="48.42532" lon="7.32344">
        <ele>933.67046459863</ele>
        <time>2022-04-27T10:59:01.751Z</time>
      </trkpt>
      <trkpt lat="48.42504" lon="7.32378">
        <ele>931.56347688171</ele>
        <time>2022-04-27T10:59:07.901Z</time>
      </trkpt>
      <trkpt lat="48.42481" lon="7.32415">
        <ele>929.56539257565</ele>
        <time>2022-04-27T10:59:14.056Z</time>
      </trkpt>
      <trkpt lat="48.42431" lon="7.32508">
        <ele>927.86127869829</ele>
        <time>2022-04-27T10:59:20.224Z</time>
      </trkpt>
      <trkpt lat="48.42373" lon="7.32597">
        <ele>925.65064415637</ele>
        <time>2022-04-27T10:59:26.405Z</time>
      </trkpt>
      <trkpt lat="48.42314" lon="7.32667">
        <ele>923.64291432395</ele>
        <time>2022-04-27T10:59:32.598Z</time>
      </trkpt>
      <trkpt lat="48.42296" lon="7.32683">
        <ele>921.89503520051</ele>
        <time>2022-04-27T10:59:38.795Z</time>
      </trkpt>
      <trkpt lat="48.42296" lon="7.32683">
        <ele>920.21625337224</ele>
        <time>2022-04-27T10:59:44.992Z</time>
      </trkpt>
      <trkpt lat="48.42234" lon="7.32731">
        <ele>918.44338372433</ele>
        <time>2022-04-27T10:59:51.200Z</time>
      </trkpt>
      <trkpt lat="48.42185" lon="7.32775">
        <ele>916.76112941703</ele>
        <time>2022-04-27T10:59:57.417Z</time>
      </trkpt>
      <trkpt lat="48.42152" lon="7.32823">
        <ele>915.18442656973</ele>
        <time>2022-04-27T11:00:03.641Z</time>
      </trkpt>
      <trkpt lat="48.42138" lon="7.32851">
        <ele>913.79092990979</ele>
        <time>2022-04-27T11:00:09.869Z</time>
      </trkpt>
      <trkpt lat="48.42129" lon="7.32879">
        <ele>912.5609858928</ele>
        <time>2022-04-27T11:00:16.100Z</time>
      </trkpt>
      <trkpt lat="48.42121" lon="7.32914">
        <ele>911.42324564535</ele>
        <time>2022-04-27T11:00:22.335Z</time>
      </trkpt>
      <trkpt lat="48.42116" lon="7.32965">
        <ele>910.44032335406</ele>
        <time>2022-04-27T11:00:28.576Z</time>
      </trkpt>
      <trkpt lat="48.42117" lon="7.32993">
        <ele>909.56721690496</ele>
        <time>2022-04-27T11:00:34.820Z</time>
      </trkpt>
      <trkpt lat="48.4212" lon="7.33027">
        <ele>908.75427188063</ele>
        <time>2022-04-27T11:00:41.068Z</time>
      </trkpt>
      <trkpt lat="48.42129" lon="7.3307">
        <ele>907.94959076962</ele>
        <time>2022-04-27T11:00:47.320Z</time>
      </trkpt>
      <trkpt lat="48.42191" lon="7.33341">
        <ele>907.40623957213</ele>
        <time>2022-04-27T11:00:53.603Z</time>
      </trkpt>
      <trkpt lat="48.42201" lon="7.33375">
        <ele>906.75484562226</ele>
        <time>2022-04-27T11:00:59.890Z</time>
      </trkpt>
      <trkpt lat="48.42265" lon="7.33514">
        <ele>906.20163223466</ele>
        <time>2022-04-27T11:01:06.195Z</time>
      </trkpt>
      <trkpt lat="48.42279" lon="7.33547">
        <ele>905.51288394003</ele>
        <time>2022-04-27T11:01:12.504Z</time>
      </trkpt>
      <trkpt lat="48.42312" lon="7.33614">
        <ele>904.74906272252</ele>
        <time>2022-04-27T11:01:18.822Z</time>
      </trkpt>
      <trkpt lat="48.42312" lon="7.33614">
        <ele>904.23677372753</ele>
        <time>2022-04-27T11:01:25.140Z</time>
      </trkpt>
      <trkpt lat="48.42343" lon="7.33673">
        <ele>903.71853280887</ele>
        <time>2022-04-27T11:01:31.466Z</time>
      </trkpt>
      <trkpt lat="48.42372" lon="7.33721">
        <ele>903.26161456725</ele>
        <time>2022-04-27T11:01:37.799Z</time>
      </trkpt>
      <trkpt lat="48.42395" lon="7.33768">
        <ele>902.66125885605</ele>
        <time>2022-04-27T11:01:44.138Z</time>
      </trkpt>
      <trkpt lat="48.42401" lon="7.33798">
        <ele>902.0737953286</ele>
        <time>2022-04-27T11:01:50.480Z</time>
      </trkpt>
      <trkpt lat="48.42407" lon="7.33845">
        <ele>901.43624069231</ele>
        <time>2022-04-27T11:01:56.827Z</time>
      </trkpt>
      <trkpt lat="48.42407" lon="7.33866">
        <ele>900.68764358156</ele>
        <time>2022-04-27T11:02:03.177Z</time>
      </trkpt>
      <trkpt lat="48.42394" lon="7.33952">
        <ele>899.76669941729</ele>
        <time>2022-04-27T11:02:09.536Z</time>
      </trkpt>
      <trkpt lat="48.4239" lon="7.33982">
        <ele>898.79059943413</ele>
        <time>2022-04-27T11:02:15.898Z</time>
      </trkpt>
      <trkpt lat="48.42396" lon="7.34123">
        <ele>897.82007322067</ele>
        <time>2022-04-27T11:02:22.275Z</time>
      </trkpt>
      <trkpt lat="48.42396" lon="7.34166">
        <ele>896.72452278889</ele>
        <time>2022-04-27T11:02:28.657Z</time>
      </trkpt>
      <trkpt lat="48.42391" lon="7.34208">
        <ele>895.42463053403</ele>
        <time>2022-04-27T11:02:35.043Z</time>
      </trkpt>
      <trkpt lat="48.42363" lon="7.34419">
        <ele>893.40606068851</ele>
        <time>2022-04-27T11:02:41.452Z</time>
      </trkpt>
      <trkpt lat="48.42363" lon="7.34419">
        <ele>891.95718406695</ele>
        <time>2022-04-27T11:02:47.861Z</time>
      </trkpt>
      <trkpt lat="48.42345" lon="7.3455">
        <ele>890.2311586311</ele>
        <time>2022-04-27T11:02:54.285Z</time>
      </trkpt>
      <trkpt lat="48.42342" lon="7.34582">
        <ele>888.49066124077</ele>
        <time>2022-04-27T11:03:00.712Z</time>
      </trkpt>
      <trkpt lat="48.42342" lon="7.34613">
        <ele>886.61251567022</ele>
        <time>2022-04-27T11:03:07.142Z</time>
      </trkpt>
      <trkpt lat="48.42345" lon="7.34652">
        <ele>884.66853151751</ele>
        <time>2022-04-27T11:03:13.577Z</time>
      </trkpt>
      <trkpt lat="48.42356" lon="7.34709">
        <ele>882.61556753351</ele>
        <time>2022-04-27T11:03:20.018Z</time>
      </trkpt>
      <trkpt lat="48.42356" lon="7.34731">
        <ele>880.45622320183</ele>
        <time>2022-04-27T11:03:26.461Z</time>
      </trkpt>
      <trkpt lat="48.42351" lon="7.34753">
        <ele>878.17975562581</ele>
        <time>2022-04-27T11:03:32.907Z</time>
      </trkpt>
      <trkpt lat="48.4234" lon="7.34774">
        <ele>875.77979995243</ele>
        <time>2022-04-27T11:03:39.356Z</time>
      </trkpt>
      <trkpt lat="48.42331" lon="7.34785">
        <ele>873.34607520395</ele>
        <time>2022-04-27T11:03:45.806Z</time>
      </trkpt>
      <trkpt lat="48.42317" lon="7.34793">
        <ele>870.8182025139</ele>
        <time>2022-04-27T11:03:52.259Z</time>
      </trkpt>
      <trkpt lat="48.42286" lon="7.34809">
        <ele>868.14107345553</ele>
        <time>2022-04-27T11:03:58.717Z</time>
      </trkpt>
      <trkpt lat="48.42257" lon="7.34829">
        <ele>865.26593571663</ele>
        <time>2022-04-27T11:04:05.180Z</time>
      </trkpt>
      <trkpt lat="48.42235" lon="7.34848">
        <ele>862.32748913883</ele>
        <time>2022-04-27T11:04:11.647Z</time>
      </trkpt>
      <trkpt lat="48.42169" lon="7.34936">
        <ele>859.34452761343</ele>
        <time>2022-04-27T11:04:18.128Z</time>
      </trkpt>
      <trkpt lat="48.42169" lon="7.34936">
        <ele>856.43510483921</ele>
        <time>2022-04-27T11:04:24.609Z</time>
      </trkpt>
      <trkpt lat="48.42125" lon="7.34997">
        <ele>853.00840225187</ele>
        <time>2022-04-27T11:04:31.100Z</time>
      </trkpt>
      <trkpt lat="48.421" lon="7.35016">
        <ele>849.77639918334</ele>
        <time>2022-04-27T11:04:37.596Z</time>
      </trkpt>
      <trkpt lat="48.42084" lon="7.35021">
        <ele>846.65306179163</ele>
        <time>2022-04-27T11:04:44.094Z</time>
      </trkpt>
      <trkpt lat="48.42052" lon="7.3502">
        <ele>843.51670424924</ele>
        <time>2022-04-27T11:04:50.597Z</time>
      </trkpt>
      <trkpt lat="48.41977" lon="7.35009">
        <ele>839.99380174516</ele>
        <time>2022-04-27T11:04:57.112Z</time>
      </trkpt>
      <trkpt lat="48.41897" lon="7.34979">
        <ele>836.75792504792</ele>
        <time>2022-04-27T11:05:03.640Z</time>
      </trkpt>
      <trkpt lat="48.41878" lon="7.34974">
        <ele>833.83500875469</ele>
        <time>2022-04-27T11:05:10.172Z</time>
      </trkpt>
      <trkpt lat="48.41856" lon="7.3497">
        <ele>830.96611007892</ele>
        <time>2022-04-27T11:05:16.707Z</time>
      </trkpt>
      <trkpt lat="48.41814" lon="7.34971">
        <ele>827.81494606446</ele>
        <time>2022-04-27T11:05:23.249Z</time>
      </trkpt>
      <trkpt lat="48.41745" lon="7.34978">
        <ele>824.5842205037</ele>
        <time>2022-04-27T11:05:29.802Z</time>
      </trkpt>
      <trkpt lat="48.41736" lon="7.34978">
        <ele>821.87569778284</ele>
        <time>2022-04-27T11:05:36.356Z</time>
      </trkpt>
      <trkpt lat="48.41709" lon="7.34972">
        <ele>819.16427874957</ele>
        <time>2022-04-27T11:05:42.915Z</time>
      </trkpt>
      <trkpt lat="48.41678" lon="7.34956">
        <ele>816.63724290103</ele>
        <time>2022-04-27T11:05:49.479Z</time>
      </trkpt>
      <trkpt lat="48.41676" lon="7.34955">
        <ele>814.30694402282</ele>
        <time>2022-04-27T11:05:56.043Z</time>
      </trkpt>
      <trkpt lat="48.41676" lon="7.34955">
        <ele>812.08132793178</ele>
        <time>2022-04-27T11:06:02.607Z</time>
      </trkpt>
      <trkpt lat="48.41653" lon="7.34939">
        <ele>809.93924220876</ele>
        <time>2022-04-27T11:06:09.175Z</time>
      </trkpt>
      <trkpt lat="48.41633" lon="7.34918">
        <ele>807.8277493627</ele>
        <time>2022-04-27T11:06:15.747Z</time>
      </trkpt>
      <trkpt lat="48.41625" lon="7.34906">
        <ele>805.83643573501</ele>
        <time>2022-04-27T11:06:22.321Z</time>
      </trkpt>
      <trkpt lat="48.41614" lon="7.34882">
        <ele>803.84683259672</ele>
        <time>2022-04-27T11:06:28.898Z</time>
      </trkpt>
      <trkpt lat="48.41603" lon="7.34853">
        <ele>801.97142232673</ele>
        <time>2022-04-27T11:06:35.479Z</time>
      </trkpt>
      <trkpt lat="48.41586" lon="7.34801">
        <ele>800.11455869853</ele>
        <time>2022-04-27T11:06:42.066Z</time>
      </trkpt>
      <trkpt lat="48.41577" lon="7.34784">
        <ele>798.40005740332</ele>
        <time>2022-04-27T11:06:48.655Z</time>
      </trkpt>
      <trkpt lat="48.41568" lon="7.34771">
        <ele>796.72366618604</ele>
        <time>2022-04-27T11:06:55.246Z</time>
      </trkpt>
      <trkpt lat="48.41555" lon="7.34763">
        <ele>795.07292578716</ele>
        <time>2022-04-27T11:07:01.840Z</time>
      </trkpt>
      <trkpt lat="48.41544" lon="7.34762">
        <ele>793.54550160119</ele>
        <time>2022-04-27T11:07:08.435Z</time>
      </trkpt>
      <trkpt lat="48.41527" lon="7.34768">
        <ele>792.01157567936</ele>
        <time>2022-04-27T11:07:15.033Z</time>
      </trkpt>
      <trkpt lat="48.41476" lon="7.34802">
        <ele>790.319120878</ele>
        <time>2022-04-27T11:07:21.640Z</time>
      </trkpt>
      <trkpt lat="48.41481" lon="7.34812">
        <ele>788.90739185961</ele>
        <time>2022-04-27T11:07:28.248Z</time>
      </trkpt>
      <trkpt lat="48.41439" lon="7.34861">
        <ele>785.7505458049</ele>
        <time>2022-04-27T11:07:34.865Z</time>
      </trkpt>
      <trkpt lat="48.41411" lon="7.3499">
        <ele>782.73507284027</ele>
        <time>2022-04-27T11:07:41.496Z</time>
      </trkpt>
      <trkpt lat="48.41422" lon="7.35075">
        <ele>779.7205404731</ele>
        <time>2022-04-27T11:07:48.137Z</time>
      </trkpt>
      <trkpt lat="48.41553" lon="7.35097">
        <ele>776.73925056073</ele>
        <time>2022-04-27T11:07:54.799Z</time>
      </trkpt>
      <trkpt lat="48.41556" lon="7.35086">
        <ele>773.94381384128</ele>
        <time>2022-04-27T11:08:01.462Z</time>
      </trkpt>
      <trkpt lat="48.4156" lon="7.35088">
        <ele>772.47944688275</ele>
        <time>2022-04-27T11:08:08.126Z</time>
      </trkpt>
      <trkpt lat="48.41678" lon="7.35197">
        <ele>770.63972499925</ele>
        <time>2022-04-27T11:08:14.812Z</time>
      </trkpt>
      <trkpt lat="48.41691" lon="7.35212">
        <ele>769.0658669771</ele>
        <time>2022-04-27T11:08:21.500Z</time>
      </trkpt>
      <trkpt lat="48.41755" lon="7.35302">
        <ele>767.3226176264</ele>
        <time>2022-04-27T11:08:28.202Z</time>
      </trkpt>
      <trkpt lat="48.41763" lon="7.35319">
        <ele>765.85056170835</ele>
        <time>2022-04-27T11:08:34.907Z</time>
      </trkpt>
      <trkpt lat="48.41767" lon="7.35336">
        <ele>764.36133044625</ele>
        <time>2022-04-27T11:08:41.614Z</time>
      </trkpt>
      <trkpt lat="48.4177" lon="7.35419">
        <ele>762.53333364077</ele>
        <time>2022-04-27T11:08:48.329Z</time>
      </trkpt>
      <trkpt lat="48.41772" lon="7.35445">
        <ele>761.08473837613</ele>
        <time>2022-04-27T11:08:55.047Z</time>
      </trkpt>
      <trkpt lat="48.41778" lon="7.35472">
        <ele>759.73302956972</ele>
        <time>2022-04-27T11:09:01.768Z</time>
      </trkpt>
      <trkpt lat="48.41806" lon="7.35575">
        <ele>758.25557605185</ele>
        <time>2022-04-27T11:09:08.501Z</time>
      </trkpt>
      <trkpt lat="48.41815" lon="7.35603">
        <ele>756.98750144997</ele>
        <time>2022-04-27T11:09:15.238Z</time>
      </trkpt>
      <trkpt lat="48.41828" lon="7.3563">
        <ele>755.81088244796</ele>
        <time>2022-04-27T11:09:21.978Z</time>
      </trkpt>
      <trkpt lat="48.41849" lon="7.35658">
        <ele>754.51069793256</ele>
        <time>2022-04-27T11:09:28.722Z</time>
      </trkpt>
      <trkpt lat="48.4187" lon="7.3568">
        <ele>753.25152501855</ele>
        <time>2022-04-27T11:09:35.471Z</time>
      </trkpt>
      <trkpt lat="48.41896" lon="7.35695">
        <ele>752.13282367632</ele>
        <time>2022-04-27T11:09:42.224Z</time>
      </trkpt>
      <trkpt lat="48.41915" lon="7.357">
        <ele>751.11151729012</ele>
        <time>2022-04-27T11:09:48.980Z</time>
      </trkpt>
      <trkpt lat="48.41933" lon="7.35697">
        <ele>750.14677808392</ele>
        <time>2022-04-27T11:09:55.739Z</time>
      </trkpt>
      <trkpt lat="48.41949" lon="7.35691">
        <ele>749.27720575593</ele>
        <time>2022-04-27T11:10:02.501Z</time>
      </trkpt>
      <trkpt lat="48.41988" lon="7.35664">
        <ele>748.74841698946</ele>
        <time>2022-04-27T11:10:09.270Z</time>
      </trkpt>
      <trkpt lat="48.41998" lon="7.35664">
        <ele>747.91311088306</ele>
        <time>2022-04-27T11:10:16.040Z</time>
      </trkpt>
      <trkpt lat="48.42004" lon="7.35669">
        <ele>747.10939286684</ele>
        <time>2022-04-27T11:10:22.811Z</time>
      </trkpt>
      <trkpt lat="48.42012" lon="7.35678">
        <ele>746.27624822661</ele>
        <time>2022-04-27T11:10:29.584Z</time>
      </trkpt>
      <trkpt lat="48.42015" lon="7.35692">
        <ele>745.32677964887</ele>
        <time>2022-04-27T11:10:36.358Z</time>
      </trkpt>
      <trkpt lat="48.42016" lon="7.35708">
        <ele>744.36837028304</ele>
        <time>2022-04-27T11:10:43.134Z</time>
      </trkpt>
      <trkpt lat="48.42014" lon="7.35729">
        <ele>743.26330330568</ele>
        <time>2022-04-27T11:10:49.912Z</time>
      </trkpt>
      <trkpt lat="48.42007" lon="7.35755">
        <ele>742.05325220902</ele>
        <time>2022-04-27T11:10:56.693Z</time>
      </trkpt>
      <trkpt lat="48.42004" lon="7.3576">
        <ele>740.8214638369</ele>
        <time>2022-04-27T11:11:03.475Z</time>
      </trkpt>
      <trkpt lat="48.41993" lon="7.3578">
        <ele>739.4444241832</ele>
        <time>2022-04-27T11:11:10.260Z</time>
      </trkpt>
      <trkpt lat="48.41922" lon="7.35874">
        <ele>737.72711110555</ele>
        <time>2022-04-27T11:11:17.060Z</time>
      </trkpt>
      <trkpt lat="48.41864" lon="7.35957">
        <ele>736.01112569473</ele>
        <time>2022-04-27T11:11:23.873Z</time>
      </trkpt>
      <trkpt lat="48.41851" lon="7.3598">
        <ele>734.42190681888</ele>
        <time>2022-04-27T11:11:30.689Z</time>
      </trkpt>
      <trkpt lat="48.41844" lon="7.35999">
        <ele>732.90474761858</ele>
        <time>2022-04-27T11:11:37.507Z</time>
      </trkpt>
      <trkpt lat="48.41841" lon="7.3602">
        <ele>731.35716958959</ele>
        <time>2022-04-27T11:11:44.328Z</time>
      </trkpt>
      <trkpt lat="48.41841" lon="7.3602">
        <ele>729.91643336434</ele>
        <time>2022-04-27T11:11:51.149Z</time>
      </trkpt>
      <trkpt lat="48.41837" lon="7.36061">
        <ele>728.26648003998</ele>
        <time>2022-04-27T11:11:57.974Z</time>
      </trkpt>
      <trkpt lat="48.41838" lon="7.36082">
        <ele>726.72654162316</ele>
        <time>2022-04-27T11:12:04.801Z</time>
      </trkpt>
      <trkpt lat="48.41842" lon="7.36102">
        <ele>725.2366314895</ele>
        <time>2022-04-27T11:12:11.631Z</time>
      </trkpt>
      <trkpt lat="48.41846" lon="7.36117">
        <ele>723.77104103619</ele>
        <time>2022-04-27T11:12:18.462Z</time>
      </trkpt>
      <trkpt lat="48.41855" lon="7.36134">
        <ele>722.34909495235</ele>
        <time>2022-04-27T11:12:25.296Z</time>
      </trkpt>
      <trkpt lat="48.41907" lon="7.36202">
        <ele>721.05748051445</ele>
        <time>2022-04-27T11:12:32.141Z</time>
      </trkpt>
      <trkpt lat="48.41937" lon="7.36248">
        <ele>719.7776070925</ele>
        <time>2022-04-27T11:12:38.992Z</time>
      </trkpt>
      <trkpt lat="48.41988" lon="7.36344">
        <ele>718.51496541588</ele>
        <time>2022-04-27T11:12:45.856Z</time>
      </trkpt>
      <trkpt lat="48.42005" lon="7.36368">
        <ele>717.11692398082</ele>
        <time>2022-04-27T11:12:52.724Z</time>
      </trkpt>
      <trkpt lat="48.42025" lon="7.36384">
        <ele>715.86982324549</ele>
        <time>2022-04-27T11:12:59.596Z</time>
      </trkpt>
      <trkpt lat="48.42033" lon="7.36387">
        <ele>714.66551572451</ele>
        <time>2022-04-27T11:13:06.469Z</time>
      </trkpt>
      <trkpt lat="48.42033" lon="7.36387">
        <ele>713.51696376029</ele>
        <time>2022-04-27T11:13:13.342Z</time>
      </trkpt>
      <trkpt lat="48.42058" lon="7.36392">
        <ele>712.29116766546</ele>
        <time>2022-04-27T11:13:20.219Z</time>
      </trkpt>
      <trkpt lat="48.4208" lon="7.36389">
        <ele>711.25805984375</ele>
        <time>2022-04-27T11:13:27.100Z</time>
      </trkpt>
      <trkpt lat="48.42108" lon="7.36381">
        <ele>710.28524987608</ele>
        <time>2022-04-27T11:13:33.985Z</time>
      </trkpt>
      <trkpt lat="48.42126" lon="7.36384">
        <ele>709.3872089387</ele>
        <time>2022-04-27T11:13:40.873Z</time>
      </trkpt>
      <trkpt lat="48.42142" lon="7.36399">
        <ele>708.39657412047</ele>
        <time>2022-04-27T11:13:47.764Z</time>
      </trkpt>
      <trkpt lat="48.42148" lon="7.36429">
        <ele>707.20877465521</ele>
        <time>2022-04-27T11:13:54.659Z</time>
      </trkpt>
      <trkpt lat="48.42157" lon="7.36497">
        <ele>705.81271571864</ele>
        <time>2022-04-27T11:14:01.561Z</time>
      </trkpt>
      <trkpt lat="48.42165" lon="7.36539">
        <ele>704.68234652584</ele>
        <time>2022-04-27T11:14:08.468Z</time>
      </trkpt>
      <trkpt lat="48.42179" lon="7.36572">
        <ele>703.68987184414</ele>
        <time>2022-04-27T11:14:15.379Z</time>
      </trkpt>
      <trkpt lat="48.42202" lon="7.36618">
        <ele>702.80942423567</ele>
        <time>2022-04-27T11:14:22.296Z</time>
      </trkpt>
      <trkpt lat="48.42256" lon="7.36711">
        <ele>701.86986481417</ele>
        <time>2022-04-27T11:14:29.226Z</time>
      </trkpt>
      <trkpt lat="48.42339" lon="7.36848">
        <ele>701.19088756858</ele>
        <time>2022-04-27T11:14:36.176Z</time>
      </trkpt>
      <trkpt lat="48.42339" lon="7.36848">
        <ele>700.55552335418</ele>
        <time>2022-04-27T11:14:43.126Z</time>
      </trkpt>
      <trkpt lat="48.42348" lon="7.36862">
        <ele>700.02519059076</ele>
        <time>2022-04-27T11:14:50.078Z</time>
      </trkpt>
      <trkpt lat="48.4245" lon="7.36969">
        <ele>699.75121296291</ele>
        <time>2022-04-27T11:14:57.050Z</time>
      </trkpt>
      <trkpt lat="48.42516" lon="7.37044">
        <ele>699.44336539854</ele>
        <time>2022-04-27T11:15:04.035Z</time>
      </trkpt>
      <trkpt lat="48.42545" lon="7.37074">
        <ele>699.07076275618</ele>
        <time>2022-04-27T11:15:11.026Z</time>
      </trkpt>
      <trkpt lat="48.42586" lon="7.37114">
        <ele>698.82738838092</ele>
        <time>2022-04-27T11:15:18.024Z</time>
      </trkpt>
      <trkpt lat="48.42591" lon="7.37119">
        <ele>698.56897266385</ele>
        <time>2022-04-27T11:15:25.024Z</time>
      </trkpt>
      <trkpt lat="48.42648" lon="7.37172">
        <ele>698.19085125403</ele>
        <time>2022-04-27T11:15:32.034Z</time>
      </trkpt>
      <trkpt lat="48.42672" lon="7.37203">
        <ele>697.87688567422</ele>
        <time>2022-04-27T11:15:39.049Z</time>
      </trkpt>
      <trkpt lat="48.42681" lon="7.37227">
        <ele>697.75538244182</ele>
        <time>2022-04-27T11:15:46.067Z</time>
      </trkpt>
      <trkpt lat="48.42684" lon="7.37239">
        <ele>697.74640235222</ele>
        <time>2022-04-27T11:15:53.087Z</time>
      </trkpt>
      <trkpt lat="48.42688" lon="7.37264">
        <ele>697.83105307882</ele>
        <time>2022-04-27T11:16:00.109Z</time>
      </trkpt>
      <trkpt lat="48.42694" lon="7.37312">
        <ele>697.99049080704</ele>
        <time>2022-04-27T11:16:07.137Z</time>
      </trkpt>
      <trkpt lat="48.42705" lon="7.37365">
        <ele>698.21788449785</ele>
        <time>2022-04-27T11:16:14.170Z</time>
      </trkpt>
      <trkpt lat="48.42724" lon="7.37426">
        <ele>698.54280186283</ele>
        <time>2022-04-27T11:16:21.211Z</time>
      </trkpt>
      <trkpt lat="48.42733" lon="7.37474">
        <ele>698.96119392965</ele>
        <time>2022-04-27T11:16:28.257Z</time>
      </trkpt>
      <trkpt lat="48.42739" lon="7.37545">
        <ele>699.45502070366</ele>
        <time>2022-04-27T11:16:35.311Z</time>
      </trkpt>
      <trkpt lat="48.42739" lon="7.37545">
        <ele>700.08316467086</ele>
        <time>2022-04-27T11:16:42.365Z</time>
      </trkpt>
      <trkpt lat="48.42743" lon="7.37566">
        <ele>700.87419566897</ele>
        <time>2022-04-27T11:16:49.421Z</time>
      </trkpt>
      <trkpt lat="48.42757" lon="7.37596">
        <ele>701.84536866431</ele>
        <time>2022-04-27T11:16:56.481Z</time>
      </trkpt>
      <trkpt lat="48.42787" lon="7.37633">
        <ele>702.83545681593</ele>
        <time>2022-04-27T11:17:03.547Z</time>
      </trkpt>
      <trkpt lat="48.42799" lon="7.37657">
        <ele>703.73416616555</ele>
        <time>2022-04-27T11:17:10.616Z</time>
      </trkpt>
      <trkpt lat="48.42813" lon="7.37699">
        <ele>704.84908816756</ele>
        <time>2022-04-27T11:17:17.690Z</time>
      </trkpt>
      <trkpt lat="48.4282" lon="7.37739">
        <ele>705.93614109923</ele>
        <time>2022-04-27T11:17:24.769Z</time>
      </trkpt>
      <trkpt lat="48.42824" lon="7.37804">
        <ele>706.99246901332</ele>
        <time>2022-04-27T11:17:31.855Z</time>
      </trkpt>
      <trkpt lat="48.42823" lon="7.37838">
        <ele>708.05104667802</ele>
        <time>2022-04-27T11:17:38.944Z</time>
      </trkpt>
      <trkpt lat="48.42817" lon="7.37864">
        <ele>709.01924737823</ele>
        <time>2022-04-27T11:17:46.036Z</time>
      </trkpt>
      <trkpt lat="48.42811" lon="7.37883">
        <ele>710.00748406876</ele>
        <time>2022-04-27T11:17:53.130Z</time>
      </trkpt>
      <trkpt lat="48.42801" lon="7.37909">
        <ele>710.9258548106</ele>
        <time>2022-04-27T11:18:00.228Z</time>
      </trkpt>
      <trkpt lat="48.42788" lon="7.37931">
        <ele>711.85295545429</ele>
        <time>2022-04-27T11:18:07.329Z</time>
      </trkpt>
      <trkpt lat="48.42772" lon="7.37951">
        <ele>712.7269958284</ele>
        <time>2022-04-27T11:18:14.433Z</time>
      </trkpt>
      <trkpt lat="48.42756" lon="7.37967">
        <ele>713.58544135568</ele>
        <time>2022-04-27T11:18:21.540Z</time>
      </trkpt>
      <trkpt lat="48.42732" lon="7.37984">
        <ele>714.49100691235</ele>
        <time>2022-04-27T11:18:28.651Z</time>
      </trkpt>
      <trkpt lat="48.42688" lon="7.38022">
        <ele>715.28722678105</ele>
        <time>2022-04-27T11:18:35.771Z</time>
      </trkpt>
      <trkpt lat="48.42678" lon="7.38034">
        <ele>715.87750531338</ele>
        <time>2022-04-27T11:18:42.893Z</time>
      </trkpt>
      <trkpt lat="48.42663" lon="7.38058">
        <ele>716.35039587995</ele>
        <time>2022-04-27T11:18:50.018Z</time>
      </trkpt>
      <trkpt lat="48.42649" lon="7.38093">
        <ele>716.8314149041</ele>
        <time>2022-04-27T11:18:57.147Z</time>
      </trkpt>
      <trkpt lat="48.42638" lon="7.38127">
        <ele>717.33824903056</ele>
        <time>2022-04-27T11:19:04.280Z</time>
      </trkpt>
      <trkpt lat="48.42616" lon="7.38221">
        <ele>717.8514523814</ele>
        <time>2022-04-27T11:19:11.424Z</time>
      </trkpt>
      <trkpt lat="48.4259" lon="7.38334">
        <ele>718.22550477316</ele>
        <time>2022-04-27T11:19:18.581Z</time>
      </trkpt>
      <trkpt lat="48.42584" lon="7.38371">
        <ele>718.53084606802</ele>
        <time>2022-04-27T11:19:25.742Z</time>
      </trkpt>
      <trkpt lat="48.42582" lon="7.38397">
        <ele>718.87482391668</ele>
        <time>2022-04-27T11:19:32.906Z</time>
      </trkpt>
      <trkpt lat="48.42582" lon="7.38397">
        <ele>719.19994373436</ele>
        <time>2022-04-27T11:19:40.070Z</time>
      </trkpt>
      <trkpt lat="48.42585" lon="7.38426">
        <ele>719.55185188485</ele>
        <time>2022-04-27T11:19:47.237Z</time>
      </trkpt>
      <trkpt lat="48.42595" lon="7.38486">
        <ele>719.89364343128</ele>
        <time>2022-04-27T11:19:54.410Z</time>
      </trkpt>
      <trkpt lat="48.42603" lon="7.38528">
        <ele>720.1446701455</ele>
        <time>2022-04-27T11:20:01.588Z</time>
      </trkpt>
      <trkpt lat="48.42603" lon="7.38561">
        <ele>720.3884067827</ele>
        <time>2022-04-27T11:20:08.770Z</time>
      </trkpt>
      <trkpt lat="48.42599" lon="7.38578">
        <ele>720.66805946205</ele>
        <time>2022-04-27T11:20:15.954Z</time>
      </trkpt>
      <trkpt lat="48.4258" lon="7.38627">
        <ele>721.10490908533</ele>
        <time>2022-04-27T11:20:23.143Z</time>
      </trkpt>
      <trkpt lat="48.42574" lon="7.38649">
        <ele>721.43661718628</ele>
        <time>2022-04-27T11:20:30.335Z</time>
      </trkpt>
      <trkpt lat="48.42571" lon="7.38671">
        <ele>721.71345669563</ele>
        <time>2022-04-27T11:20:37.529Z</time>
      </trkpt>
      <trkpt lat="48.4257" lon="7.38755">
        <ele>721.96451873487</ele>
        <time>2022-04-27T11:20:44.732Z</time>
      </trkpt>
      <trkpt lat="48.42567" lon="7.38776">
        <ele>722.21366989732</ele>
        <time>2022-04-27T11:20:51.938Z</time>
      </trkpt>
      <trkpt lat="48.42562" lon="7.38792">
        <ele>722.47249269746</ele>
        <time>2022-04-27T11:20:59.146Z</time>
      </trkpt>
      <trkpt lat="48.42555" lon="7.38809">
        <ele>722.71337709838</ele>
        <time>2022-04-27T11:21:06.356Z</time>
      </trkpt>
      <trkpt lat="48.42538" lon="7.38835">
        <ele>722.93502215971</ele>
        <time>2022-04-27T11:21:13.569Z</time>
      </trkpt>
      <trkpt lat="48.42523" lon="7.38848">
        <ele>723.27300724406</ele>
        <time>2022-04-27T11:21:20.785Z</time>
      </trkpt>
      <trkpt lat="48.42463" lon="7.3889">
        <ele>723.68053483387</ele>
        <time>2022-04-27T11:21:28.012Z</time>
      </trkpt>
      <trkpt lat="48.42397" lon="7.38921">
        <ele>724.42907241131</ele>
        <time>2022-04-27T11:21:35.250Z</time>
      </trkpt>
      <trkpt lat="48.42328" lon="7.38978">
        <ele>724.9030174613</ele>
        <time>2022-04-27T11:21:42.501Z</time>
      </trkpt>
      <trkpt lat="48.42308" lon="7.38996">
        <ele>725.28272183955</ele>
        <time>2022-04-27T11:21:49.755Z</time>
      </trkpt>
      <trkpt lat="48.42296" lon="7.39011">
        <ele>725.52002911183</ele>
        <time>2022-04-27T11:21:57.012Z</time>
      </trkpt>
      <trkpt lat="48.42287" lon="7.39031">
        <ele>725.72667978322</ele>
        <time>2022-04-27T11:22:04.271Z</time>
      </trkpt>
      <trkpt lat="48.42273" lon="7.3909">
        <ele>725.74477694824</ele>
        <time>2022-04-27T11:22:11.537Z</time>
      </trkpt>
      <trkpt lat="48.4227" lon="7.39161">
        <ele>725.95897182504</ele>
        <time>2022-04-27T11:22:18.811Z</time>
      </trkpt>
      <trkpt lat="48.42268" lon="7.39235">
        <ele>726.270508005</ele>
        <time>2022-04-27T11:22:26.093Z</time>
      </trkpt>
      <trkpt lat="48.42268" lon="7.39235">
        <ele>726.58955289555</ele>
        <time>2022-04-27T11:22:33.375Z</time>
      </trkpt>
      <trkpt lat="48.42267" lon="7.39291">
        <ele>726.81071734493</ele>
        <time>2022-04-27T11:22:40.663Z</time>
      </trkpt>
      <trkpt lat="48.42267" lon="7.39291">
        <ele>727.22448998106</ele>
        <time>2022-04-27T11:22:47.951Z</time>
      </trkpt>
      <trkpt lat="48.42269" lon="7.39467">
        <ele>727.63108756882</ele>
        <time>2022-04-27T11:22:55.257Z</time>
      </trkpt>
      <trkpt lat="48.42265" lon="7.39594">
        <ele>728.03943872774</ele>
        <time>2022-04-27T11:23:02.577Z</time>
      </trkpt>
      <trkpt lat="48.42258" lon="7.397">
        <ele>728.63266838979</ele>
        <time>2022-04-27T11:23:09.908Z</time>
      </trkpt>
      <trkpt lat="48.42273" lon="7.39917">
        <ele>729.44653051954</ele>
        <time>2022-04-27T11:23:17.262Z</time>
      </trkpt>
      <trkpt lat="48.42275" lon="7.39938">
        <ele>730.27020168821</ele>
        <time>2022-04-27T11:23:24.619Z</time>
      </trkpt>
      <trkpt lat="48.42283" lon="7.3997">
        <ele>731.21724180768</ele>
        <time>2022-04-27T11:23:31.979Z</time>
      </trkpt>
      <trkpt lat="48.4229" lon="7.39983">
        <ele>732.26471646667</ele>
        <time>2022-04-27T11:23:39.341Z</time>
      </trkpt>
      <trkpt lat="48.42308" lon="7.40016">
        <ele>733.51563781965</ele>
        <time>2022-04-27T11:23:46.708Z</time>
      </trkpt>
      <trkpt lat="48.42334" lon="7.4007">
        <ele>735.01883677728</ele>
        <time>2022-04-27T11:23:54.082Z</time>
      </trkpt>
      <trkpt lat="48.42348" lon="7.40091">
        <ele>736.49868595826</ele>
        <time>2022-04-27T11:24:01.459Z</time>
      </trkpt>
      <trkpt lat="48.42357" lon="7.40101">
        <ele>737.91244545335</ele>
        <time>2022-04-27T11:24:08.838Z</time>
      </trkpt>
      <trkpt lat="48.42372" lon="7.40104">
        <ele>739.27335143201</ele>
        <time>2022-04-27T11:24:16.219Z</time>
      </trkpt>
      <trkpt lat="48.4239" lon="7.40098">
        <ele>740.62809878035</ele>
        <time>2022-04-27T11:24:23.603Z</time>
      </trkpt>
      <trkpt lat="48.4241" lon="7.40076">
        <ele>742.01066435433</ele>
        <time>2022-04-27T11:24:30.991Z</time>
      </trkpt>
      <trkpt lat="48.42431" lon="7.40045">
        <ele>743.47841169234</ele>
        <time>2022-04-27T11:24:38.384Z</time>
      </trkpt>
      <trkpt lat="48.42501" lon="7.39964">
        <ele>745.00281801557</ele>
        <time>2022-04-27T11:24:45.791Z</time>
      </trkpt>
      <trkpt lat="48.42513" lon="7.39954">
        <ele>746.42227466933</ele>
        <time>2022-04-27T11:24:53.200Z</time>
      </trkpt>
      <trkpt lat="48.42529" lon="7.39945">
        <ele>747.87187921066</ele>
        <time>2022-04-27T11:25:00.612Z</time>
      </trkpt>
      <trkpt lat="48.42548" lon="7.39942">
        <ele>749.33012307927</ele>
        <time>2022-04-27T11:25:08.027Z</time>
      </trkpt>
      <trkpt lat="48.42567" lon="7.39947">
        <ele>750.86148779105</ele>
        <time>2022-04-27T11:25:15.445Z</time>
      </trkpt>
      <trkpt lat="48.42586" lon="7.39961">
        <ele>752.42722519806</ele>
        <time>2022-04-27T11:25:22.866Z</time>
      </trkpt>
      <trkpt lat="48.42604" lon="7.3998">
        <ele>753.93817023148</ele>
        <time>2022-04-27T11:25:30.291Z</time>
      </trkpt>
      <trkpt lat="48.42616" lon="7.39995">
        <ele>755.37906001754</ele>
        <time>2022-04-27T11:25:37.718Z</time>
      </trkpt>
      <trkpt lat="48.42649" lon="7.40044">
        <ele>756.7841829573</ele>
        <time>2022-04-27T11:25:45.153Z</time>
      </trkpt>
      <trkpt lat="48.42683" lon="7.40085">
        <ele>758.05353203778</ele>
        <time>2022-04-27T11:25:52.595Z</time>
      </trkpt>
      <trkpt lat="48.42704" lon="7.40099">
        <ele>759.1761194398</ele>
        <time>2022-04-27T11:26:00.040Z</time>
      </trkpt>
      <trkpt lat="48.42726" lon="7.40111">
        <ele>760.28448525174</ele>
        <time>2022-04-27T11:26:07.489Z</time>
      </trkpt>
      <trkpt lat="48.42741" lon="7.40112">
        <ele>761.3067971612</ele>
        <time>2022-04-27T11:26:14.941Z</time>
      </trkpt>
      <trkpt lat="48.42759" lon="7.40109">
        <ele>762.28457216247</ele>
        <time>2022-04-27T11:26:22.396Z</time>
      </trkpt>
      <trkpt lat="48.42769" lon="7.40104">
        <ele>763.07199238161</ele>
        <time>2022-04-27T11:26:29.852Z</time>
      </trkpt>
      <trkpt lat="48.4278" lon="7.40094">
        <ele>763.70396854614</ele>
        <time>2022-04-27T11:26:37.310Z</time>
      </trkpt>
      <trkpt lat="48.42791" lon="7.40075">
        <ele>764.1848627644</ele>
        <time>2022-04-27T11:26:44.771Z</time>
      </trkpt>
      <trkpt lat="48.4282" lon="7.4001">
        <ele>764.3737325668</ele>
        <time>2022-04-27T11:26:52.240Z</time>
      </trkpt>
      <trkpt lat="48.42862" lon="7.39946">
        <ele>764.62244977706</ele>
        <time>2022-04-27T11:26:59.719Z</time>
      </trkpt>
      <trkpt lat="48.42884" lon="7.39923">
        <ele>764.8193379866</ele>
        <time>2022-04-27T11:27:07.202Z</time>
      </trkpt>
      <trkpt lat="48.42884" lon="7.39923">
        <ele>764.81518805084</ele>
        <time>2022-04-27T11:27:14.685Z</time>
      </trkpt>
      <trkpt lat="48.42894" lon="7.39917">
        <ele>764.71436511522</ele>
        <time>2022-04-27T11:27:22.170Z</time>
      </trkpt>
      <trkpt lat="48.42937" lon="7.399">
        <ele>764.53117299339</ele>
        <time>2022-04-27T11:27:29.662Z</time>
      </trkpt>
      <trkpt lat="48.42937" lon="7.399">
        <ele>764.15211540075</ele>
        <time>2022-04-27T11:27:37.154Z</time>
      </trkpt>
      <trkpt lat="48.42958" lon="7.399">
        <ele>763.64981624572</ele>
        <time>2022-04-27T11:27:44.649Z</time>
      </trkpt>
      <trkpt lat="48.42976" lon="7.39914">
        <ele>763.04972925442</ele>
        <time>2022-04-27T11:27:52.148Z</time>
      </trkpt>
      <trkpt lat="48.43008" lon="7.39954">
        <ele>762.41752474884</ele>
        <time>2022-04-27T11:27:59.653Z</time>
      </trkpt>
      <trkpt lat="48.43032" lon="7.3999">
        <ele>761.48438274574</ele>
        <time>2022-04-27T11:28:07.164Z</time>
      </trkpt>
      <trkpt lat="48.4305" lon="7.40012">
        <ele>760.42432653403</ele>
        <time>2022-04-27T11:28:14.678Z</time>
      </trkpt>
      <trkpt lat="48.43059" lon="7.40019">
        <ele>759.35511196578</ele>
        <time>2022-04-27T11:28:22.194Z</time>
      </trkpt>
      <trkpt lat="48.43059" lon="7.40019">
        <ele>758.27987509627</ele>
        <time>2022-04-27T11:28:29.710Z</time>
      </trkpt>
      <trkpt lat="48.43101" lon="7.40048">
        <ele>757.00686914498</ele>
        <time>2022-04-27T11:28:37.233Z</time>
      </trkpt>
      <trkpt lat="48.43115" lon="7.40054">
        <ele>755.81388214006</ele>
        <time>2022-04-27T11:28:44.759Z</time>
      </trkpt>
      <trkpt lat="48.43127" lon="7.40056">
        <ele>754.58152971256</ele>
        <time>2022-04-27T11:28:52.287Z</time>
      </trkpt>
      <trkpt lat="48.43166" lon="7.40044">
        <ele>753.06861761457</ele>
        <time>2022-04-27T11:28:59.821Z</time>
      </trkpt>
      <trkpt lat="48.43177" lon="7.40044">
        <ele>751.83288452735</ele>
        <time>2022-04-27T11:29:07.357Z</time>
      </trkpt>
      <trkpt lat="48.432" lon="7.4005">
        <ele>750.64175409925</ele>
        <time>2022-04-27T11:29:14.897Z</time>
      </trkpt>
      <trkpt lat="48.43274" lon="7.40073">
        <ele>749.31011570636</ele>
        <time>2022-04-27T11:29:22.449Z</time>
      </trkpt>
      <trkpt lat="48.4328" lon="7.40073">
        <ele>748.2041230077</ele>
        <time>2022-04-27T11:29:30.002Z</time>
      </trkpt>
      <trkpt lat="48.43281" lon="7.40077">
        <ele>747.23661447723</ele>
        <time>2022-04-27T11:29:37.555Z</time>
      </trkpt>
      <trkpt lat="48.43286" lon="7.4008">
        <ele>746.30730102926</ele>
        <time>2022-04-27T11:29:45.109Z</time>
      </trkpt>
      <trkpt lat="48.43293" lon="7.40076">
        <ele>745.38185665238</ele>
        <time>2022-04-27T11:29:52.664Z</time>
      </trkpt>
      <trkpt lat="48.43294" lon="7.40072">
        <ele>744.58605441024</ele>
        <time>2022-04-27T11:30:00.220Z</time>
      </trkpt>
      <trkpt lat="48.43294" lon="7.40067">
        <ele>743.89841367927</ele>
        <time>2022-04-27T11:30:07.776Z</time>
      </trkpt>
      <trkpt lat="48.43291" lon="7.40059">
        <ele>743.31920944589</ele>
        <time>2022-04-27T11:30:15.333Z</time>
      </trkpt>
      <trkpt lat="48.43284" lon="7.40058">
        <ele>742.9191535629</ele>
        <time>2022-04-27T11:30:22.891Z</time>
      </trkpt>
      <trkpt lat="48.43281" lon="7.40062">
        <ele>742.67242279471</ele>
        <time>2022-04-27T11:30:30.450Z</time>
      </trkpt>
      <trkpt lat="48.43249" lon="7.40053">
        <ele>742.63323789788</ele>
        <time>2022-04-27T11:30:38.014Z</time>
      </trkpt>
      <trkpt lat="48.43236" lon="7.40042">
        <ele>742.56317050118</ele>
        <time>2022-04-27T11:30:45.581Z</time>
      </trkpt>
      <trkpt lat="48.43236" lon="7.40042">
        <ele>742.58892442966</ele>
        <time>2022-04-27T11:30:53.148Z</time>
      </trkpt>
      <trkpt lat="48.43249" lon="7.40053">
        <ele>742.63323789788</ele>
        <time>2022-04-27T11:31:00.717Z</time>
      </trkpt>
      <trkpt lat="48.43281" lon="7.40062">
        <ele>742.80191650278</ele>
        <time>2022-04-27T11:31:08.291Z</time>
      </trkpt>
      <trkpt lat="48.4328" lon="7.40067">
        <ele>743.20868389005</ele>
        <time>2022-04-27T11:31:15.866Z</time>
      </trkpt>
      <trkpt lat="48.4328" lon="7.40073">
        <ele>748.2041230077</ele>
        <time>2022-04-27T11:31:23.441Z</time>
      </trkpt>
      <trkpt lat="48.43281" lon="7.40077">
        <ele>747.23661447723</ele>
        <time>2022-04-27T11:31:31.017Z</time>
      </trkpt>
      <trkpt lat="48.43286" lon="7.4008">
        <ele>746.30730102926</ele>
        <time>2022-04-27T11:31:38.594Z</time>
      </trkpt>
      <trkpt lat="48.43293" lon="7.40076">
        <ele>745.38185665238</ele>
        <time>2022-04-27T11:31:46.172Z</time>
      </trkpt>
      <trkpt lat="48.43311" lon="7.40086">
        <ele>746.42566377895</ele>
        <time>2022-04-27T11:31:53.753Z</time>
      </trkpt>
      <trkpt lat="48.43311" lon="7.40086">
        <ele>747.29380955627</ele>
        <time>2022-04-27T11:32:01.334Z</time>
      </trkpt>
      <trkpt lat="48.4333" lon="7.40094">
        <ele>748.2826485841</ele>
        <time>2022-04-27T11:32:08.918Z</time>
      </trkpt>
      <trkpt lat="48.43387" lon="7.40136">
        <ele>749.6334841187</ele>
        <time>2022-04-27T11:32:16.512Z</time>
      </trkpt>
      <trkpt lat="48.43416" lon="7.40164">
        <ele>750.64682953314</ele>
        <time>2022-04-27T11:32:24.112Z</time>
      </trkpt>
      <trkpt lat="48.43457" lon="7.40212">
        <ele>751.90156908812</ele>
        <time>2022-04-27T11:32:31.720Z</time>
      </trkpt>
      <trkpt lat="48.43475" lon="7.40224">
        <ele>752.85392341052</ele>
        <time>2022-04-27T11:32:39.331Z</time>
      </trkpt>
      <trkpt lat="48.43475" lon="7.40224">
        <ele>753.78876260036</ele>
        <time>2022-04-27T11:32:46.942Z</time>
      </trkpt>
      <trkpt lat="48.43488" lon="7.40224">
        <ele>754.64942597168</ele>
        <time>2022-04-27T11:32:54.555Z</time>
      </trkpt>
      <trkpt lat="48.43488" lon="7.40224">
        <ele>755.53616021733</ele>
        <time>2022-04-27T11:33:02.168Z</time>
      </trkpt>
      <trkpt lat="48.43505" lon="7.40217">
        <ele>756.29844061668</ele>
        <time>2022-04-27T11:33:09.784Z</time>
      </trkpt>
      <trkpt lat="48.43514" lon="7.40211">
        <ele>757.07061073515</ele>
        <time>2022-04-27T11:33:17.402Z</time>
      </trkpt>
      <trkpt lat="48.43537" lon="7.40208">
        <ele>757.74272566189</ele>
        <time>2022-04-27T11:33:25.023Z</time>
      </trkpt>
      <trkpt lat="48.4356" lon="7.4022">
        <ele>758.54966705156</ele>
        <time>2022-04-27T11:33:32.648Z</time>
      </trkpt>
      <trkpt lat="48.43583" lon="7.40239">
        <ele>759.27128589226</ele>
        <time>2022-04-27T11:33:40.278Z</time>
      </trkpt>
      <trkpt lat="48.43586" lon="7.40247">
        <ele>759.94886370111</ele>
        <time>2022-04-27T11:33:47.908Z</time>
      </trkpt>
      <trkpt lat="48.43592" lon="7.40255">
        <ele>760.5641390705</ele>
        <time>2022-04-27T11:33:55.540Z</time>
      </trkpt>
      <trkpt lat="48.43661" lon="7.40333">
        <ele>761.33056795454</ele>
        <time>2022-04-27T11:34:03.186Z</time>
      </trkpt>
      <trkpt lat="48.43668" lon="7.40315">
        <ele>761.7122373726</ele>
        <time>2022-04-27T11:34:10.834Z</time>
      </trkpt>
      <trkpt lat="48.43673" lon="7.40321">
        <ele>761.99900857375</ele>
        <time>2022-04-27T11:34:18.483Z</time>
      </trkpt>
      <trkpt lat="48.4371" lon="7.40358">
        <ele>762.24703533985</ele>
        <time>2022-04-27T11:34:26.139Z</time>
      </trkpt>
      <trkpt lat="48.43712" lon="7.40359">
        <ele>762.34272104286</ele>
        <time>2022-04-27T11:34:33.795Z</time>
      </trkpt>
      <trkpt lat="48.43712" lon="7.40359">
        <ele>762.33235485905</ele>
        <time>2022-04-27T11:34:41.451Z</time>
      </trkpt>
      <trkpt lat="48.4377" lon="7.404">
        <ele>762.07430070529</ele>
        <time>2022-04-27T11:34:49.118Z</time>
      </trkpt>
      <trkpt lat="48.43783" lon="7.40412">
        <ele>761.716577762</ele>
        <time>2022-04-27T11:34:56.787Z</time>
      </trkpt>
      <trkpt lat="48.43794" lon="7.40426">
        <ele>761.3410980803</ele>
        <time>2022-04-27T11:35:04.458Z</time>
      </trkpt>
      <trkpt lat="48.43794" lon="7.40426">
        <ele>761.00822488486</ele>
        <time>2022-04-27T11:35:12.129Z</time>
      </trkpt>
      <trkpt lat="48.43809" lon="7.40453">
        <ele>760.52121774787</ele>
        <time>2022-04-27T11:35:19.804Z</time>
      </trkpt>
      <trkpt lat="48.43816" lon="7.40475">
        <ele>760.09007839274</ele>
        <time>2022-04-27T11:35:27.482Z</time>
      </trkpt>
      <trkpt lat="48.4382" lon="7.40479">
        <ele>759.45000594013</ele>
        <time>2022-04-27T11:35:35.160Z</time>
      </trkpt>
      <trkpt lat="48.43822" lon="7.40479">
        <ele>757.97112726024</ele>
        <time>2022-04-27T11:35:42.839Z</time>
      </trkpt>
      <trkpt lat="48.43826" lon="7.40473">
        <ele>756.9709838292</ele>
        <time>2022-04-27T11:35:50.518Z</time>
      </trkpt>
      <trkpt lat="48.43824" lon="7.40462">
        <ele>756.00682880721</ele>
        <time>2022-04-27T11:35:58.199Z</time>
      </trkpt>
      <trkpt lat="48.43816" lon="7.4045">
        <ele>755.07095137844</ele>
        <time>2022-04-27T11:36:05.881Z</time>
      </trkpt>
      <trkpt lat="48.438" lon="7.40414">
        <ele>753.98999647713</ele>
        <time>2022-04-27T11:36:13.568Z</time>
      </trkpt>
      <trkpt lat="48.43762" lon="7.4036">
        <ele>752.93667933801</ele>
        <time>2022-04-27T11:36:21.263Z</time>
      </trkpt>
      <trkpt lat="48.43742" lon="7.40339">
        <ele>751.64648590891</ele>
        <time>2022-04-27T11:36:28.962Z</time>
      </trkpt>
      <trkpt lat="48.43741" lon="7.40333">
        <ele>750.17800292329</ele>
        <time>2022-04-27T11:36:36.662Z</time>
      </trkpt>
      <trkpt lat="48.43741" lon="7.40325">
        <ele>748.60731530783</ele>
        <time>2022-04-27T11:36:44.363Z</time>
      </trkpt>
      <trkpt lat="48.43744" lon="7.40324">
        <ele>746.96433537021</ele>
        <time>2022-04-27T11:36:52.064Z</time>
      </trkpt>
      <trkpt lat="48.43748" lon="7.40325">
        <ele>745.25830034432</ele>
        <time>2022-04-27T11:36:59.766Z</time>
      </trkpt>
      <trkpt lat="48.43798" lon="7.4038">
        <ele>743.32843057268</ele>
        <time>2022-04-27T11:37:07.478Z</time>
      </trkpt>
      <trkpt lat="48.43826" lon="7.40415">
        <ele>741.25786511887</ele>
        <time>2022-04-27T11:37:15.196Z</time>
      </trkpt>
      <trkpt lat="48.43847" lon="7.40456">
        <ele>739.3702345775</ele>
        <time>2022-04-27T11:37:22.919Z</time>
      </trkpt>
      <trkpt lat="48.4386" lon="7.40496">
        <ele>737.62966685893</ele>
        <time>2022-04-27T11:37:30.647Z</time>
      </trkpt>
      <trkpt lat="48.43871" lon="7.40531">
        <ele>735.45676719764</ele>
        <time>2022-04-27T11:37:38.379Z</time>
      </trkpt>
      <trkpt lat="48.43882" lon="7.40586">
        <ele>733.22497562159</ele>
        <time>2022-04-27T11:37:46.117Z</time>
      </trkpt>
      <trkpt lat="48.43881" lon="7.40633">
        <ele>731.16643131445</ele>
        <time>2022-04-27T11:37:53.860Z</time>
      </trkpt>
      <trkpt lat="48.43869" lon="7.40665">
        <ele>729.24620404561</ele>
        <time>2022-04-27T11:38:01.607Z</time>
      </trkpt>
      <trkpt lat="48.43854" lon="7.40683">
        <ele>727.07787712988</ele>
        <time>2022-04-27T11:38:09.357Z</time>
      </trkpt>
      <trkpt lat="48.43825" lon="7.40694">
        <ele>724.97270181209</ele>
        <time>2022-04-27T11:38:17.112Z</time>
      </trkpt>
      <trkpt lat="48.43799" lon="7.40698">
        <ele>723.19870551551</ele>
        <time>2022-04-27T11:38:24.871Z</time>
      </trkpt>
      <trkpt lat="48.43774" lon="7.40693">
        <ele>721.72320558312</ele>
        <time>2022-04-27T11:38:32.634Z</time>
      </trkpt>
      <trkpt lat="48.43756" lon="7.40682">
        <ele>720.23493755914</ele>
        <time>2022-04-27T11:38:40.400Z</time>
      </trkpt>
      <trkpt lat="48.43729" lon="7.40658">
        <ele>718.45371733617</ele>
        <time>2022-04-27T11:38:48.171Z</time>
      </trkpt>
      <trkpt lat="48.43695" lon="7.40616">
        <ele>716.30916856324</ele>
        <time>2022-04-27T11:38:55.949Z</time>
      </trkpt>
      <trkpt lat="48.43663" lon="7.40569">
        <ele>714.49081546823</ele>
        <time>2022-04-27T11:39:03.735Z</time>
      </trkpt>
      <trkpt lat="48.43627" lon="7.40525">
        <ele>712.77900389647</ele>
        <time>2022-04-27T11:39:11.528Z</time>
      </trkpt>
      <trkpt lat="48.43583" lon="7.40484">
        <ele>710.99005130315</ele>
        <time>2022-04-27T11:39:19.329Z</time>
      </trkpt>
      <trkpt lat="48.43508" lon="7.4043">
        <ele>708.82645560119</ele>
        <time>2022-04-27T11:39:27.144Z</time>
      </trkpt>
      <trkpt lat="48.43491" lon="7.4042">
        <ele>706.782724598</ele>
        <time>2022-04-27T11:39:34.961Z</time>
      </trkpt>
      <trkpt lat="48.43474" lon="7.40411">
        <ele>704.49554628282</ele>
        <time>2022-04-27T11:39:42.781Z</time>
      </trkpt>
      <trkpt lat="48.43447" lon="7.40408">
        <ele>701.69762935399</ele>
        <time>2022-04-27T11:39:50.606Z</time>
      </trkpt>
      <trkpt lat="48.43402" lon="7.40409">
        <ele>699.3601218811</ele>
        <time>2022-04-27T11:39:58.438Z</time>
      </trkpt>
      <trkpt lat="48.4334" lon="7.4042">
        <ele>696.85779740623</ele>
        <time>2022-04-27T11:40:06.280Z</time>
      </trkpt>
      <trkpt lat="48.43313" lon="7.40432">
        <ele>694.29801183249</ele>
        <time>2022-04-27T11:40:14.126Z</time>
      </trkpt>
      <trkpt lat="48.43276" lon="7.40454">
        <ele>691.64022292499</ele>
        <time>2022-04-27T11:40:21.979Z</time>
      </trkpt>
      <trkpt lat="48.43233" lon="7.40494">
        <ele>689.24715405801</ele>
        <time>2022-04-27T11:40:29.840Z</time>
      </trkpt>
      <trkpt lat="48.43233" lon="7.40494">
        <ele>686.68885170734</ele>
        <time>2022-04-27T11:40:37.701Z</time>
      </trkpt>
      <trkpt lat="48.43223" lon="7.40506">
        <ele>684.10415223866</ele>
        <time>2022-04-27T11:40:45.564Z</time>
      </trkpt>
      <trkpt lat="48.43221" lon="7.4052">
        <ele>681.04223076816</ele>
        <time>2022-04-27T11:40:53.429Z</time>
      </trkpt>
      <trkpt lat="48.43223" lon="7.40531">
        <ele>677.90079380775</ele>
        <time>2022-04-27T11:41:01.295Z</time>
      </trkpt>
      <trkpt lat="48.43248" lon="7.40589">
        <ele>674.08436693993</ele>
        <time>2022-04-27T11:41:09.168Z</time>
      </trkpt>
      <trkpt lat="48.43263" lon="7.40637">
        <ele>671.26692819044</ele>
        <time>2022-04-27T11:41:17.047Z</time>
      </trkpt>
      <trkpt lat="48.43273" lon="7.4068">
        <ele>668.21855394633</ele>
        <time>2022-04-27T11:41:24.931Z</time>
      </trkpt>
      <trkpt lat="48.43279" lon="7.40727">
        <ele>665.50317701643</ele>
        <time>2022-04-27T11:41:32.820Z</time>
      </trkpt>
      <trkpt lat="48.4328" lon="7.4077">
        <ele>662.96014015524</ele>
        <time>2022-04-27T11:41:40.713Z</time>
      </trkpt>
      <trkpt lat="48.43277" lon="7.40801">
        <ele>660.49450976532</ele>
        <time>2022-04-27T11:41:48.610Z</time>
      </trkpt>
      <trkpt lat="48.43258" lon="7.40883">
        <ele>657.9705024536</ele>
        <time>2022-04-27T11:41:56.516Z</time>
      </trkpt>
      <trkpt lat="48.43228" lon="7.40947">
        <ele>655.36039233127</ele>
        <time>2022-04-27T11:42:04.430Z</time>
      </trkpt>
      <trkpt lat="48.43192" lon="7.41006">
        <ele>652.5531755462</ele>
        <time>2022-04-27T11:42:12.353Z</time>
      </trkpt>
      <trkpt lat="48.43167" lon="7.41053">
        <ele>649.96136354181</ele>
        <time>2022-04-27T11:42:20.282Z</time>
      </trkpt>
      <trkpt lat="48.4314" lon="7.41092">
        <ele>647.57084855031</ele>
        <time>2022-04-27T11:42:28.217Z</time>
      </trkpt>
      <trkpt lat="48.43135" lon="7.41113">
        <ele>644.33038443727</ele>
        <time>2022-04-27T11:42:36.154Z</time>
      </trkpt>
      <trkpt lat="48.43131" lon="7.41186">
        <ele>640.19739935648</ele>
        <time>2022-04-27T11:42:44.099Z</time>
      </trkpt>
      <trkpt lat="48.43124" lon="7.41262">
        <ele>636.4306866097</ele>
        <time>2022-04-27T11:42:52.052Z</time>
      </trkpt>
      <trkpt lat="48.43123" lon="7.41297">
        <ele>633.23729781091</ele>
        <time>2022-04-27T11:43:00.009Z</time>
      </trkpt>
      <trkpt lat="48.4313" lon="7.41333">
        <ele>629.53499030507</ele>
        <time>2022-04-27T11:43:07.970Z</time>
      </trkpt>
      <trkpt lat="48.4314" lon="7.41372">
        <ele>625.52423084307</ele>
        <time>2022-04-27T11:43:15.936Z</time>
      </trkpt>
      <trkpt lat="48.43155" lon="7.41405">
        <ele>621.00802186764</ele>
        <time>2022-04-27T11:43:23.906Z</time>
      </trkpt>
      <trkpt lat="48.43169" lon="7.41427">
        <ele>616.19068280752</ele>
        <time>2022-04-27T11:43:31.879Z</time>
      </trkpt>
      <trkpt lat="48.4323" lon="7.41482">
        <ele>610.85094823059</ele>
        <time>2022-04-27T11:43:39.864Z</time>
      </trkpt>
      <trkpt lat="48.4323" lon="7.41482">
        <ele>606.24183893086</ele>
        <time>2022-04-27T11:43:47.849Z</time>
      </trkpt>
      <trkpt lat="48.43361" lon="7.41602">
        <ele>600.15832211002</ele>
        <time>2022-04-27T11:43:55.858Z</time>
      </trkpt>
      <trkpt lat="48.43379" lon="7.41622">
        <ele>596.42401611067</ele>
        <time>2022-04-27T11:44:03.871Z</time>
      </trkpt>
      <trkpt lat="48.43398" lon="7.41655">
        <ele>592.73304207985</ele>
        <time>2022-04-27T11:44:11.888Z</time>
      </trkpt>
      <trkpt lat="48.43442" lon="7.41753">
        <ele>588.33039279932</ele>
        <time>2022-04-27T11:44:19.918Z</time>
      </trkpt>
      <trkpt lat="48.43454" lon="7.4177">
        <ele>585.00079953422</ele>
        <time>2022-04-27T11:44:27.951Z</time>
      </trkpt>
      <trkpt lat="48.4346" lon="7.41783">
        <ele>582.32260765047</ele>
        <time>2022-04-27T11:44:35.985Z</time>
      </trkpt>
      <trkpt lat="48.43464" lon="7.41789">
        <ele>580.0323128312</ele>
        <time>2022-04-27T11:44:44.020Z</time>
      </trkpt>
      <trkpt lat="48.43467" lon="7.41804">
        <ele>578.11704254888</ele>
        <time>2022-04-27T11:44:52.057Z</time>
      </trkpt>
      <trkpt lat="48.43466" lon="7.41806">
        <ele>576.41555907275</ele>
        <time>2022-04-27T11:45:00.094Z</time>
      </trkpt>
    </trkseg>
  </trk>
</gpx>